[[{"header":{"parameterUnit":"m.s-1","parameterCategory":1,"la1":31.0,"la2":29.5877,"lo1":-88.7671,"lo2":-86.6584,"dy":0.0162,"dx":0.0185,"nx":115,"ny":88,"refTime":"2023-06-26T18:00:00:Z","depth":0,"parameterNumber":2,"parameterNumberName":"U-component_of_WINDS"},"data":[0.0,0.0,0.0,0.0,0.0,0.0,0.0,0.0,0.0,0.0,0.0,0.0,0.0,0.0,0.0,0.0,0.0,0.0,0.0,0.0,0.0,0.0,0.0,0.0,0.0,0.0,0.0,0.0,0.0,0.0,0.0,0.0,0.0,0.0,0.0,0.0,0.0,0.0,0.0,0.0,0.0,0.0,0.0,0.0,0.0,0.0,0.0,0.0,0.0,0.0,0.0,0.0,0.0,0.0,0.0,0.0,0.0,0.0,0.0,0.0,0.0,0.0,0.0,0.0,0.0,0.0,0.0,0.0,0.0,0.0,0.0,0.0,0.0,0.0,0.0,0.0,0.0,0.0,0.0,0.0,0.0,0.0,0.0,0.0,0.0,0.0,0.0,0.0,0.0,0.0,0.0,0.0,0.0,0.0,0.0,0.0,0.0,0.0,0.0,0.0,0.0,0.0,0.0,0.0,0.0,0.0,0.0,0.0,0.0,0.0,0.0,0.0,0.0,0.0,0.0,0.0,0.0,0.0,0.0,0.0,0.0,0.0,0.0,0.0,0.0,0.0,0.0,0.0,0.0,0.0,0.0,0.0,0.0,0.0,0.0,0.0,0.0,0.0,0.0,0.0,0.0,0.0,0.0,0.0,0.0,0.0,0.0,0.0,0.0,0.0,0.0,0.0,0.0,0.0,0.0,0.0,0.0,0.0,0.0,0.0,0.0,0.0,0.0,0.0,0.0,0.0,0.0,0.0,0.0,0.0,0.0,0.0,0.0,0.0,0.0,0.0,0.0,0.0,0.0,0.0,0.0,0.0,0.0,0.0,0.0,0.0,0.0,0.0,0.0,0.0,0.0,0.0,0.0,0.0,0.0,0.0,0.0,0.0,0.0,0.0,0.0,0.0,0.0,0.0,0.0,0.0,0.0,0.0,0.0,0.0,0.0,0.0,0.0,0.0,0.0,0.0,0.0,0.0,0.0,0.0,0.0,0.0,0.0,0.0,0.0,0.0,0.0,0.0,0.0,0.0,0.0,0.0,0.0,0.0,0.0,0.0,0.0,0.0,0.0,0.0,0.0,0.0,0.0,0.0,0.0,0.0,0.0,0.0,0.0,0.0,0.0,0.0,0.0,0.0,0.0,0.0,0.0,0.0,0.0,0.0,0.0,0.0,0.0,0.0,0.0,0.0,0.0,0.0,0.0,0.0,0.0,0.0,0.0,0.0,0.0,0.0,0.0,0.0,0.0,0.0,0.0,0.0,0.0,0.0,0.0,0.0,0.0,0.0,0.0,0.0,0.0,0.0,0.0,0.0,0.0,0.0,0.0,0.0,0.0,0.0,0.0,0.0,0.0,0.0,0.0,0.0,0.0,0.0,0.0,0.0,0.0,0.0,0.0,0.0,0.0,0.0,0.0,0.0,0.0,0.0,0.0,0.0,0.0,0.0,0.0,0.0,0.0,0.0,0.0,0.0,0.0,0.0,0.0,0.0,0.0,0.0,0.0,0.0,0.0,0.0,0.0,0.0,0.0,0.0,0.0,0.0,0.0,0.0,0.0,0.0,0.0,0.0,0.0,0.0,0.0,0.0,0.0,0.0,0.0,0.0,0.0,0.0,0.0,0.0,0.0,0.0,0.0,0.0,0.0,0.0,0.0,0.0,0.0,0.0,0.0,0.0,0.0,0.0,0.0,0.0,0.0,0.0,0.0,0.0,0.0,0.0,0.0,0.0,0.0,0.0,0.0,0.0,0.0,0.0,0.0,0.0,0.0,0.0,0.0,0.0,0.0,0.0,0.0,0.0,0.0,0.0,0.0,0.0,0.0,0.0,0.0,0.0,0.0,0.0,0.0,0.0,0.0,0.0,0.0,0.0,0.0,0.0,0.0,0.0,0.0,0.0,0.0,0.0,0.0,0.0,0.0,0.0,0.0,0.0,0.0,0.0,0.0,0.0,0.0,0.0,0.0,0.0,0.0,0.0,0.0,0.0,0.0,0.0,0.0,0.0,0.0,0.0,0.0,0.0,0.0,0.0,0.0,0.0,0.0,0.0,0.0,0.0,0.0,0.0,0.0,0.0,0.0,0.0,0.0,0.0,0.0,0.0,0.0,0.0,0.0,0.0,0.0,0.0,0.0,0.0,0.0,0.0,0.0,0.0,0.0,0.0,0.0,0.0,0.0,0.0,0.0,0.0,0.0,0.0,0.0,0.0,0.0,0.0,0.0,0.0,0.0,0.0,0.0,0.0,0.0,0.0,0.0,0.0,0.0,0.0,0.0,0.0,0.0,0.0,0.0,0.0,0.0,0.0,0.0,0.0,0.0,0.0,0.0,0.0,0.0,0.0,0.0,0.0,0.0,0.0,0.0,0.0,0.0,0.0,0.0,0.0,0.0,0.0,0.0,0.0,0.0,0.0,0.0,0.0,0.0,0.0,0.0,0.0,0.0,0.0,0.0,0.0,0.0,0.0,0.0,0.0,0.0,0.0,0.0,0.0,0.0,0.0,0.0,0.0,0.0,0.0,0.0,0.0,0.0,0.0,0.0,0.0,0.0,0.0,0.0,0.0,0.0,0.0,0.0,0.0,0.0,0.0,0.0,0.0,0.0,0.0,0.0,0.0,0.0,0.0,0.0,0.0,0.0,0.0,0.0,0.0,0.0,0.0,0.0,0.0,0.0,0.0,0.0,0.0,0.0,0.0,0.0,0.0,0.0,0.0,0.0,0.0,0.0,0.0,0.0,0.0,0.0,0.0,0.0,0.0,0.0,0.0,0.0,0.0,0.0,0.0,0.0,0.0,0.0,0.0,0.0,0.0,0.0,0.0,0.0,0.0,0.0,0.0,0.0,0.0,0.0,0.0,0.0,0.0,0.0,0.0,0.0,0.0,0.0,0.0,0.0,0.0,0.0,0.0,0.0,0.0,0.0,0.0,0.0,0.0,0.0,0.0,0.0,0.0,0.0,0.0,0.0,0.0,0.0,0.0,0.0,0.0,0.0,0.0,0.0,0.0,0.0,0.0,0.0,0.0,0.0,0.0,0.0,0.0,0.0,0.0,0.0,0.0,0.0,0.0,0.0,0.0,0.0,0.0,0.0,0.0,0.0,0.0,0.0,0.0,0.0,0.0,0.0,0.0,0.0,0.0,0.0,0.0,0.0,0.0,0.0,0.0,0.0,0.0,0.0,0.0,0.0,0.0,0.0,0.0,0.0,0.0,0.0,0.0,0.0,0.0,0.0,0.0,0.0,0.0,0.0,0.0,0.0,0.0,0.0,0.0,0.0,0.0,0.0,0.0,0.0,0.0,0.0,0.0,0.0,0.0,0.0,0.0,0.0,0.0,0.0,0.0,0.0,0.0,0.0,0.0,0.0,0.0,0.0,0.0,0.0,0.0,0.0,0.0,0.0,0.0,0.0,0.0,0.0,0.0,0.0,0.0,0.0,0.0,0.0,0.0,0.0,0.0,0.0,0.0,0.0,0.0,0.0,0.0,0.0,0.0,0.0,0.0,0.0,0.0,0.0,0.0,0.0,0.0,0.0,0.0,0.0,0.0,0.0,0.0,0.0,0.0,0.0,0.0,0.0,0.0,0.0,0.0,0.0,0.0,0.0,0.0,0.0,0.0,0.0,0.0,0.0,0.0,0.0,0.0,0.0,0.0,0.0,0.0,0.0,0.0,0.0,0.0,0.0,0.0,0.0,0.0,0.0,0.0,0.0,0.0,0.0,0.0,0.0,0.0,0.0,0.0,0.0,0.0,0.0,0.0,0.0,0.0,0.0,0.0,0.0,0.0,0.0,0.0,0.0,0.0,0.0,0.0,0.0,0.0,0.0,0.0,0.0,0.0,0.0,0.0,0.0,0.0,0.0,0.0,0.0,0.0,0.0,0.0,0.0,0.0,0.0,0.0,0.0,0.0,0.0,0.0,0.0,0.0,0.0,0.0,0.0,0.0,0.0,0.0,0.0,0.0,0.0,0.0,0.0,0.0,0.0,0.0,0.0,0.0,0.0,0.0,0.0,0.0,0.0,0.0,0.0,0.0,0.0,0.0,0.0,0.0,0.0,0.0,0.0,0.0,0.0,0.0,0.0,0.0,0.0,0.0,0.0,0.0,0.0,0.0,0.0,0.0,0.0,0.0,0.0,0.0,0.0,0.0,0.0,0.0,0.0,0.0,0.0,0.0,0.0,0.0,0.0,0.0,0.0,0.0,0.0,0.0,0.0,0.0,0.0,0.0,0.0,0.0,0.0,0.0,0.0,0.0,0.0,0.0,0.0,0.0,0.0,0.0,0.0,0.0,-2.2409,0.0,0.0,0.0,0.0,0.0,0.0,0.0,0.0,0.0,0.0,0.0,0.0,0.0,0.0,0.0,0.0,0.0,0.0,0.0,0.0,0.0,0.0,0.0,0.0,0.0,0.0,0.0,0.0,0.0,0.0,0.0,0.0,0.0,0.0,0.0,0.0,0.0,0.0,0.0,0.0,0.0,0.0,0.0,0.0,0.0,0.0,0.0,0.0,0.0,0.0,0.0,0.0,0.0,0.0,0.0,0.0,0.0,0.0,0.0,0.0,0.0,0.0,0.0,0.0,0.0,0.0,0.0,0.0,0.0,0.0,0.0,0.0,0.0,0.0,0.0,0.0,0.0,0.0,0.0,0.0,0.0,0.0,0.0,0.0,0.0,0.0,0.0,0.0,0.0,0.0,0.0,0.0,0.0,0.0,0.0,0.0,0.0,0.0,0.0,0.0,0.0,0.0,0.0,0.0,0.0,0.0,0.0,0.0,0.0,0.0,-1.9723,-1.9738,-2.1011,-2.1798,-2.2037,0.0,0.0,0.0,0.0,0.0,0.0,0.0,0.0,0.0,0.0,0.0,0.0,0.0,0.0,0.0,0.0,0.0,0.0,0.0,0.0,0.0,0.0,0.0,0.0,0.0,0.0,0.0,0.0,0.0,0.0,0.0,0.0,0.0,0.0,0.0,0.0,0.0,0.0,0.0,0.0,0.0,0.0,0.0,0.0,0.0,0.0,0.0,0.0,0.0,0.0,0.0,0.0,0.0,0.0,0.0,0.0,0.0,0.0,0.0,0.0,0.0,0.0,0.0,0.0,0.0,0.0,0.0,0.0,0.0,0.0,0.0,0.0,0.0,0.0,0.0,0.0,0.0,0.0,0.0,0.0,0.0,0.0,0.0,0.0,0.0,0.0,0.0,0.0,0.0,0.0,0.0,0.0,0.0,0.0,0.0,0.0,0.0,0.0,0.0,0.0,0.0,0.0,0.0,0.0,0.0,0.0,0.0,0.0,0.0,0.0,0.0,0.0,-2.1016,-2.1886,-2.2493,0.0,0.0,0.0,0.0,0.0,0.0,0.0,0.0,0.0,0.0,0.0,0.0,0.0,0.0,0.0,0.0,0.0,0.0,0.0,0.0,0.0,0.0,0.0,0.0,0.0,0.0,0.0,0.0,0.0,0.0,0.0,0.0,0.0,0.0,0.0,0.0,0.0,0.0,0.0,0.0,0.0,0.0,0.0,0.0,0.0,0.0,0.0,0.0,0.0,0.0,0.0,0.0,0.0,0.0,0.0,0.0,0.0,0.0,0.0,0.0,0.0,0.0,0.0,0.0,0.0,0.0,0.0,0.0,0.0,0.0,0.0,0.0,0.0,0.0,0.0,0.0,0.0,0.0,0.0,0.0,0.0,0.0,0.0,0.0,0.0,0.0,0.0,0.0,0.0,0.0,0.0,0.0,0.0,0.0,0.0,0.0,0.0,0.0,0.0,0.0,0.0,0.0,0.0,0.0,0.0,0.0,0.0,0.0,0.0,0.0,-1.9989,-2.0602,-2.1088,0.0,-2.4652,0.0,0.0,0.0,0.0,0.0,0.0,0.0,0.0,0.0,0.0,0.0,0.0,0.0,0.0,0.0,0.0,0.0,0.0,0.0,0.0,0.0,0.0,0.0,0.0,0.0,0.0,0.0,0.0,0.0,0.0,0.0,0.0,0.0,0.0,0.0,0.0,0.0,0.0,0.0,0.0,0.0,0.0,0.0,0.0,0.0,0.0,0.0,0.0,0.0,0.0,0.0,0.0,0.0,0.0,0.0,0.0,0.0,0.0,0.0,0.0,0.0,0.0,0.0,0.0,0.0,0.0,0.0,0.0,0.0,0.0,0.0,0.0,0.0,0.0,0.0,0.0,0.0,0.0,0.0,0.0,0.0,0.0,0.0,0.0,0.0,0.0,0.0,0.0,0.0,0.0,0.0,0.0,0.0,0.0,0.0,0.0,0.0,0.0,0.0,0.0,0.0,0.0,0.0,0.0,0.0,0.0,0.0,0.0,0.0,0.0,-2.0589,-2.1678,-2.2551,-2.3834,0.0,0.0,0.0,0.0,0.0,0.0,0.0,0.0,0.0,0.0,0.0,0.0,0.0,0.0,0.0,0.0,0.0,0.0,0.0,0.0,0.0,0.0,0.0,0.0,0.0,0.0,0.0,0.0,0.0,0.0,0.0,0.0,0.0,0.0,0.0,0.0,0.0,0.0,0.0,0.0,0.0,0.0,0.0,0.0,0.0,0.0,0.0,0.0,0.0,0.0,0.0,0.0,0.0,0.0,0.0,0.0,0.0,0.0,0.0,0.0,0.0,0.0,0.0,0.0,0.0,0.0,0.0,0.0,0.0,0.0,0.0,0.0,0.0,0.0,0.0,0.0,0.0,0.0,0.0,0.0,0.0,0.0,0.0,0.0,0.0,0.0,0.0,0.0,0.0,0.0,0.0,0.0,0.0,0.0,0.0,0.0,0.0,0.0,0.0,0.0,0.0,0.0,0.0,0.0,0.0,0.0,0.0,0.0,0.0,0.0,-2.0788,-2.1494,-2.2769,-2.4058,-2.5078,-2.591,0.0,0.0,0.0,0.0,0.0,0.0,0.0,0.0,0.0,0.0,0.0,0.0,0.0,0.0,0.0,0.0,0.0,0.0,0.0,0.0,0.0,0.0,0.0,0.0,0.0,0.0,0.0,0.0,0.0,0.0,0.0,0.0,0.0,0.0,0.0,0.0,0.0,0.0,0.0,0.0,0.0,0.0,0.0,0.0,0.0,0.0,0.0,0.0,0.0,0.0,0.0,0.0,0.0,0.0,0.0,0.0,0.0,0.0,0.0,0.0,0.0,0.0,0.0,0.0,0.0,0.0,0.0,0.0,0.0,0.0,0.0,0.0,0.0,0.0,0.0,0.0,0.0,0.0,0.0,0.0,0.0,0.0,0.0,0.0,0.0,0.0,0.0,0.0,0.0,0.0,0.0,0.0,0.0,0.0,0.0,0.0,0.0,0.0,0.0,0.0,0.0,0.0,0.0,0.0,0.0,0.0,0.0,0.0,-2.0385,-2.1634,-2.2794,-2.3819,-2.5203,-2.5875,0.0,0.0,0.0,0.0,0.0,0.0,0.0,0.0,0.0,0.0,0.0,0.0,0.0,0.0,0.0,0.0,0.0,0.0,0.0,0.0,0.0,0.0,0.0,0.0,0.0,0.0,0.0,0.0,0.0,0.0,0.0,0.0,0.0,0.0,0.0,0.0,0.0,0.0,0.0,0.0,0.0,0.0,0.0,0.0,0.0,0.0,0.0,0.0,0.0,0.0,0.0,0.0,0.0,0.0,0.0,0.0,0.0,0.0,0.0,0.0,0.0,0.0,0.0,0.0,0.0,0.0,0.0,0.0,0.0,0.0,0.0,0.0,0.0,0.0,0.0,0.0,0.0,0.0,0.0,0.0,0.0,0.0,0.0,0.0,0.0,0.0,0.0,0.0,0.0,0.0,0.0,0.0,0.0,0.0,0.0,0.0,0.0,0.0,0.0,0.0,0.0,0.0,0.0,0.0,0.0,0.0,0.0,0.0,0.0,-2.1683,-2.364,-2.4798,-2.5011,-2.595,-2.6419,0.0,0.0,0.0,0.0,0.0,0.0,0.0,0.0,0.0,0.0,0.0,0.0,0.0,0.0,0.0,0.0,0.0,0.0,0.0,0.0,0.0,0.0,0.0,0.0,0.0,0.0,0.0,0.0,0.0,0.0,0.0,0.0,0.0,0.0,0.0,0.0,0.0,0.0,0.0,0.0,0.0,0.0,0.0,0.0,0.0,0.0,0.0,0.0,0.0,0.0,0.0,0.0,0.0,0.0,0.0,0.0,0.0,0.0,0.0,0.0,0.0,0.0,0.0,0.0,0.0,0.0,0.0,0.0,0.0,0.0,0.0,0.0,0.0,0.0,0.0,0.0,0.0,0.0,0.0,0.0,0.0,0.0,0.0,0.0,0.0,0.0,0.0,0.0,0.0,0.0,0.0,0.0,0.0,0.0,0.0,0.0,0.0,0.0,0.0,0.0,0.0,0.0,0.0,0.0,0.0,0.0,0.0,0.0,0.0,-2.3526,0.0,-2.5899,-2.5981,-2.6454,-2.6708,0.0,0.0,0.0,0.0,0.0,0.0,0.0,0.0,0.0,0.0,0.0,0.0,0.0,0.0,0.0,0.0,0.0,0.0,0.0,0.0,0.0,0.0,0.0,0.0,0.0,0.0,0.0,0.0,0.0,0.0,0.0,0.0,0.0,0.0,0.0,0.0,0.0,0.0,0.0,0.0,0.0,0.0,0.0,0.0,0.0,0.0,0.0,0.0,0.0,0.0,0.0,0.0,0.0,0.0,0.0,0.0,0.0,0.0,0.0,0.0,0.0,0.0,0.0,0.0,0.0,0.0,0.0,0.0,0.0,0.0,0.0,0.0,0.0,0.0,0.0,0.0,0.0,0.0,0.0,0.0,0.0,0.0,0.0,0.0,0.0,0.0,0.0,0.0,0.0,0.0,0.0,0.0,0.0,0.0,0.0,0.0,0.0,0.0,0.0,0.0,0.0,0.0,0.0,0.0,0.0,0.0,0.0,0.0,-2.4236,-2.5842,-2.5732,-2.5981,-2.6674,-2.6691,-2.6708,0.0,0.0,0.0,0.0,0.0,0.0,0.0,0.0,0.0,0.0,0.0,0.0,0.0,0.0,0.0,0.0,0.0,0.0,0.0,0.0,0.0,0.0,0.0,0.0,0.0,0.0,0.0,0.0,0.0,0.0,0.0,0.0,0.0,0.0,0.0,0.0,0.0,0.0,0.0,0.0,0.0,0.0,0.0,0.0,0.0,0.0,0.0,0.0,0.0,0.0,0.0,0.0,0.0,0.0,0.0,0.0,0.0,0.0,0.0,0.0,0.0,0.0,0.0,0.0,0.0,0.0,0.0,0.0,0.0,0.0,0.0,0.0,0.0,0.0,0.0,0.0,0.0,0.0,0.0,0.0,0.0,0.0,0.0,0.0,0.0,0.0,0.0,0.0,0.0,0.0,0.0,0.0,0.0,0.0,0.0,0.0,0.0,0.0,0.0,0.0,0.0,0.0,0.0,0.0,0.0,0.0,0.0,0.0,0.0,-2.5449,-2.6046,-2.6454,-2.6691,-2.6708,-2.6708,0.0,0.0,0.0,0.0,0.0,0.0,0.0,0.0,0.0,0.0,0.0,0.0,0.0,0.0,0.0,0.0,0.0,0.0,0.0,0.0,0.0,0.0,0.0,0.0,0.0,0.0,0.0,0.0,0.0,0.0,0.0,0.0,0.0,0.0,0.0,0.0,0.0,0.0,0.0,0.0,0.0,0.0,0.0,0.0,0.0,0.0,0.0,0.0,0.0,0.0,0.0,0.0,0.0,0.0,0.0,0.0,0.0,0.0,0.0,0.0,0.0,0.0,0.0,0.0,0.0,0.0,0.0,0.0,0.0,0.0,0.0,0.0,0.0,0.0,0.0,0.0,0.0,0.0,0.0,0.0,0.0,0.0,0.0,0.0,0.0,0.0,0.0,0.0,0.0,0.0,0.0,0.0,0.0,0.0,0.0,0.0,0.0,0.0,0.0,0.0,0.0,0.0,0.0,0.0,0.0,0.0,0.0,0.0,0.0,-2.6328,-2.6813,-2.7114,-2.7097,-2.7402,-2.7402,-2.7131,0.0,0.0,0.0,0.0,0.0,0.0,0.0,0.0,0.0,0.0,0.0,0.0,0.0,0.0,0.0,0.0,0.0,0.0,0.0,0.0,0.0,0.0,0.0,0.0,0.0,0.0,0.0,0.0,0.0,0.0,0.0,0.0,0.0,0.0,0.0,0.0,0.0,0.0,0.0,0.0,0.0,0.0,0.0,0.0,0.0,0.0,0.0,0.0,0.0,0.0,0.0,0.0,0.0,0.0,0.0,0.0,0.0,0.0,0.0,0.0,0.0,0.0,0.0,0.0,0.0,0.0,0.0,0.0,0.0,0.0,0.0,0.0,0.0,0.0,0.0,0.0,0.0,0.0,0.0,0.0,0.0,0.0,0.0,0.0,0.0,0.0,0.0,0.0,0.0,0.0,0.0,0.0,0.0,0.0,0.0,0.0,0.0,0.0,0.0,0.0,0.0,0.0,0.0,0.0,0.0,0.0,0.0,0.0,-2.8132,-2.8044,-2.7976,-2.7858,-2.8586,-2.8636,0.0,0.0,0.0,0.0,0.0,0.0,0.0,0.0,0.0,0.0,0.0,0.0,0.0,0.0,0.0,0.0,0.0,0.0,0.0,0.0,0.0,0.0,0.0,0.0,0.0,0.0,0.0,0.0,0.0,0.0,0.0,0.0,0.0,0.0,0.0,0.0,0.0,0.0,0.0,0.0,0.0,0.0,0.0,0.0,0.0,0.0,0.0,0.0,0.0,0.0,0.0,0.0,0.0,0.0,0.0,0.0,0.0,0.0,0.0,0.0,0.0,0.0,0.0,0.0,0.0,0.0,0.0,0.0,0.0,0.0,0.0,0.0,0.0,0.0,0.0,0.0,0.0,0.0,0.0,0.0,0.0,0.0,0.0,0.0,0.0,0.0,0.0,0.0,0.0,0.0,0.0,0.0,0.0,0.0,0.0,0.0,0.0,0.0,0.0,0.0,0.0,0.0,0.0,0.0,0.0,0.0,0.0,0.0,0.0,-2.8736,-2.9781,-2.9786,-2.8738,-2.8891,-2.8908,0.0,0.0,0.0,0.0,0.0,0.0,0.0,0.0,0.0,0.0,0.0,0.0,0.0,0.0,0.0,0.0,0.0,0.0,0.0,0.0,0.0,0.0,0.0,0.0,0.0,0.0,0.0,0.0,0.0,0.0,0.0,0.0,0.0,0.0,0.0,0.0,0.0,0.0,0.0,0.0,0.0,0.0,0.0,0.0,0.0,0.0,0.0,0.0,0.0,0.0,0.0,0.0,0.0,0.0,0.0,0.0,0.0,0.0,0.0,0.0,0.0,0.0,0.0,0.0,0.0,0.0,0.0,0.0,0.0,0.0,0.0,0.0,0.0,0.0,0.0,0.0,0.0,0.0,0.0,0.0,0.0,0.0,0.0,0.0,0.0,0.0,0.0,0.0,0.0,0.0,0.0,0.0,0.0,0.0,0.0,0.0,0.0,0.0,0.0,0.0,0.0,0.0,0.0,0.0,0.0,0.0,0.0,0.0,-2.7914,-2.943,-3.0905,-3.1413,-3.0852,-3.055,-3.0245,0.0,0.0,0.0,0.0,0.0,0.0,0.0,0.0,0.0,0.0,0.0,0.0,0.0,0.0,0.0,0.0,0.0,0.0,0.0,0.0,0.0,0.0,0.0,0.0,0.0,0.0,0.0,0.0,0.0,0.0,0.0,0.0,0.0,0.0,0.0,0.0,0.0,0.0,0.0,0.0,0.0,0.0,0.0,0.0,0.0,0.0,0.0,0.0,0.0,0.0,0.0,0.0,0.0,0.0,0.0,0.0,0.0,0.0,0.0,0.0,0.0,0.0,0.0,0.0,0.0,0.0,0.0,0.0,0.0,0.0,0.0,0.0,0.0,0.0,0.0,0.0,0.0,0.0,0.0,0.0,0.0,0.0,0.0,0.0,0.0,0.0,0.0,0.0,0.0,0.0,0.0,0.0,0.0,0.0,0.0,0.0,0.0,0.0,0.0,0.0,0.0,0.0,0.0,0.0,0.0,0.0,0.0,0.0,-2.9083,-3.0326,-3.1749,-3.2872,-3.3541,-3.2822,-3.2073,0.0,0.0,0.0,0.0,0.0,0.0,0.0,0.0,0.0,0.0,0.0,0.0,0.0,0.0,0.0,0.0,0.0,0.0,0.0,0.0,0.0,0.0,0.0,0.0,0.0,0.0,0.0,0.0,0.0,0.0,0.0,0.0,0.0,0.0,0.0,0.0,0.0,0.0,0.0,0.0,0.0,0.0,0.0,0.0,0.0,0.0,0.0,0.0,0.0,0.0,0.0,0.0,0.0,0.0,0.0,0.0,0.0,0.0,0.0,0.0,0.0,0.0,0.0,0.0,0.0,0.0,0.0,0.0,0.0,0.0,0.0,0.0,0.0,0.0,0.0,0.0,0.0,0.0,0.0,0.0,0.0,0.0,0.0,0.0,0.0,0.0,0.0,0.0,0.0,0.0,0.0,0.0,0.0,0.0,0.0,0.0,0.0,0.0,0.0,0.0,0.0,0.0,0.0,0.0,0.0,0.0,0.0,0.0,-2.9987,-3.1799,-3.3275,-3.4299,-3.4869,-3.3775,-3.2814,0.0,0.0,0.0,0.0,0.0,0.0,0.0,0.0,0.0,0.0,0.0,0.0,0.0,0.0,0.0,0.0,0.0,0.0,0.0,0.0,0.0,0.0,0.0,0.0,0.0,0.0,0.0,0.0,0.0,0.0,0.0,0.0,0.0,0.0,0.0,0.0,0.0,0.0,0.0,0.0,0.0,0.0,0.0,0.0,0.0,0.0,0.0,0.0,-2.4724,0.0,0.0,0.0,0.0,0.0,0.0,0.0,0.0,0.0,0.0,0.0,0.0,0.0,0.0,0.0,0.0,0.0,0.0,0.0,0.0,0.0,0.0,0.0,0.0,0.0,0.0,0.0,0.0,0.0,0.0,0.0,0.0,0.0,0.0,0.0,0.0,0.0,0.0,0.0,0.0,0.0,0.0,0.0,0.0,0.0,0.0,0.0,0.0,0.0,0.0,0.0,0.0,0.0,0.0,0.0,0.0,0.0,0.0,0.0,-3.1145,-3.2777,-3.3935,-3.481,-3.5394,-3.4793,-3.4041,0.0,0.0,0.0,0.0,0.0,0.0,0.0,0.0,0.0,0.0,0.0,0.0,0.0,0.0,0.0,0.0,0.0,0.0,0.0,0.0,0.0,0.0,0.0,0.0,0.0,0.0,0.0,0.0,0.0,0.0,0.0,0.0,0.0,0.0,0.0,0.0,0.0,0.0,0.0,0.0,0.0,0.0,0.0,0.0,0.0,0.0,0.0,0.0,0.0,0.0,0.0,0.0,0.0,0.0,0.0,0.0,0.0,0.0,0.0,0.0,0.0,0.0,0.0,0.0,0.0,0.0,0.0,0.0,0.0,0.0,0.0,0.0,0.0,0.0,0.0,0.0,0.0,0.0,0.0,0.0,0.0,0.0,0.0,0.0,0.0,0.0,0.0,0.0,0.0,0.0,0.0,0.0,0.0,0.0,0.0,0.0,0.0,0.0,0.0,0.0,0.0,0.0,0.0,0.0,0.0,0.0,0.0,-3.0281,-3.2229,-3.3689,-3.4353,-3.5001,-3.5683,-3.5526,-3.5075,-3.4216,0.0,0.0,0.0,0.0,0.0,0.0,0.0,0.0,0.0,0.0,0.0,0.0,0.0,0.0,0.0,0.0,0.0,0.0,0.0,0.0,0.0,0.0,0.0,0.0,0.0,0.0,0.0,0.0,0.0,0.0,0.0,0.0,0.0,0.0,0.0,0.0,0.0,0.0,-2.3725,-2.4336,0.0,0.0,0.0,0.0,0.0,0.0,0.0,0.0,-2.4664,0.0,0.0,0.0,0.0,0.0,0.0,0.0,0.0,0.0,0.0,0.0,0.0,0.0,0.0,0.0,0.0,0.0,0.0,0.0,0.0,0.0,0.0,0.0,0.0,0.0,0.0,0.0,0.0,0.0,0.0,0.0,0.0,0.0,0.0,0.0,0.0,0.0,0.0,0.0,0.0,0.0,0.0,0.0,0.0,0.0,0.0,0.0,0.0,0.0,0.0,0.0,0.0,0.0,0.0,0.0,0.0,-3.0685,-3.1188,-3.2651,-3.5155,-3.5346,-3.5691,-3.6228,-3.5241,-3.4529,-3.4196,0.0,0.0,0.0,0.0,0.0,0.0,0.0,0.0,0.0,0.0,0.0,0.0,0.0,0.0,0.0,0.0,0.0,0.0,0.0,0.0,0.0,0.0,0.0,0.0,0.0,0.0,0.0,0.0,0.0,0.0,0.0,0.0,0.0,0.0,0.0,0.0,0.0,0.0,0.0,-2.5041,-2.5427,0.0,0.0,0.0,0.0,0.0,0.0,0.0,0.0,-2.4799,0.0,0.0,0.0,0.0,0.0,0.0,0.0,0.0,0.0,0.0,0.0,0.0,0.0,0.0,0.0,0.0,0.0,0.0,0.0,0.0,0.0,0.0,0.0,0.0,0.0,0.0,0.0,0.0,0.0,0.0,0.0,0.0,0.0,0.0,0.0,0.0,0.0,0.0,0.0,0.0,0.0,0.0,0.0,0.0,0.0,0.0,0.0,0.0,0.0,0.0,0.0,0.0,0.0,0.0,0.0,-3.0984,-3.2691,-3.4242,-3.5549,-3.5616,-3.5717,-3.5968,-3.503,-3.4262,0.0,0.0,0.0,0.0,0.0,0.0,0.0,0.0,0.0,0.0,0.0,0.0,0.0,0.0,0.0,0.0,0.0,0.0,0.0,0.0,0.0,0.0,0.0,0.0,0.0,0.0,0.0,0.0,0.0,0.0,0.0,0.0,0.0,0.0,0.0,0.0,0.0,0.0,0.0,0.0,-2.542,-2.5734,-2.6063,0.0,0.0,0.0,0.0,0.0,0.0,-2.4814,-2.4709,0.0,0.0,0.0,0.0,0.0,0.0,0.0,0.0,0.0,0.0,0.0,0.0,0.0,0.0,0.0,0.0,0.0,0.0,0.0,0.0,0.0,0.0,0.0,0.0,0.0,0.0,0.0,0.0,0.0,0.0,0.0,0.0,0.0,0.0,0.0,0.0,0.0,0.0,0.0,0.0,0.0,0.0,0.0,0.0,0.0,0.0,0.0,0.0,0.0,0.0,0.0,0.0,0.0,0.0,0.0,-3.0879,-3.3698,-3.5318,-3.5583,-3.5616,-3.5616,-3.5583,-3.4759,-3.3931,0.0,0.0,0.0,0.0,0.0,0.0,0.0,0.0,0.0,0.0,0.0,0.0,0.0,0.0,0.0,0.0,0.0,0.0,0.0,0.0,0.0,0.0,0.0,0.0,0.0,0.0,0.0,0.0,0.0,0.0,0.0,0.0,0.0,0.0,0.0,0.0,0.0,0.0,0.0,0.0,0.0,-2.5959,-2.6333,-2.5944,0.0,0.0,0.0,0.0,-2.4799,-2.4918,0.0,0.0,0.0,0.0,0.0,0.0,0.0,0.0,0.0,0.0,0.0,0.0,0.0,0.0,0.0,0.0,0.0,0.0,0.0,0.0,0.0,0.0,0.0,0.0,0.0,0.0,0.0,0.0,0.0,0.0,0.0,0.0,0.0,0.0,0.0,0.0,0.0,0.0,0.0,0.0,0.0,0.0,0.0,0.0,0.0,0.0,0.0,0.0,0.0,0.0,0.0,0.0,0.0,0.0,0.0,0.0,-3.1461,-3.3036,-3.4407,-3.5543,-3.5616,-3.5616,-3.5583,-3.4269,-3.3186,0.0,0.0,0.0,0.0,0.0,0.0,0.0,0.0,0.0,0.0,0.0,0.0,0.0,0.0,0.0,0.0,0.0,0.0,0.0,0.0,0.0,0.0,0.0,0.0,0.0,0.0,0.0,0.0,0.0,0.0,0.0,0.0,0.0,0.0,0.0,0.0,0.0,0.0,0.0,0.0,0.0,-2.6288,-2.5794,-2.5659,-2.5375,0.0,0.0,-2.5457,-2.5495,-2.5974,0.0,0.0,0.0,0.0,0.0,0.0,0.0,0.0,0.0,0.0,0.0,0.0,0.0,0.0,0.0,0.0,0.0,0.0,0.0,0.0,0.0,0.0,0.0,0.0,0.0,0.0,0.0,0.0,0.0,0.0,0.0,0.0,0.0,0.0,0.0,0.0,0.0,0.0,0.0,0.0,0.0,0.0,0.0,0.0,0.0,0.0,0.0,0.0,0.0,0.0,0.0,0.0,0.0,0.0,0.0,-3.0752,-3.1646,-3.3664,-3.502,-3.5583,-3.5616,-3.5616,-3.56,-3.4184,-3.3051,0.0,0.0,0.0,0.0,0.0,0.0,0.0,0.0,0.0,0.0,0.0,0.0,0.0,0.0,0.0,0.0,0.0,0.0,0.0,0.0,0.0,0.0,0.0,0.0,0.0,0.0,0.0,0.0,0.0,0.0,0.0,0.0,0.0,0.0,0.0,0.0,0.0,0.0,0.0,0.0,0.0,0.0,-2.6198,-2.5839,0.0,0.0,0.0,-2.5495,-2.5098,0.0,0.0,0.0,0.0,0.0,0.0,0.0,0.0,0.0,0.0,0.0,0.0,0.0,0.0,0.0,0.0,0.0,0.0,0.0,0.0,0.0,0.0,0.0,0.0,0.0,0.0,0.0,0.0,0.0,0.0,0.0,0.0,0.0,0.0,0.0,0.0,0.0,0.0,0.0,0.0,0.0,0.0,0.0,0.0,0.0,0.0,0.0,0.0,0.0,0.0,0.0,0.0,0.0,0.0,0.0,0.0,0.0,-3.1638,-3.4232,-3.5616,-3.5616,-3.5616,-3.5616,-3.5583,-3.4353,0.0,0.0,0.0,0.0,0.0,0.0,0.0,0.0,0.0,0.0,0.0,0.0,0.0,0.0,0.0,0.0,0.0,0.0,0.0,0.0,0.0,0.0,0.0,0.0,0.0,0.0,0.0,-2.2071,0.0,0.0,0.0,0.0,0.0,0.0,0.0,0.0,0.0,0.0,0.0,0.0,0.0,0.0,-2.6926,-2.7081,-2.6527,-2.6153,0.0,0.0,-2.5989,-2.5651,-2.6587,-2.6886,0.0,0.0,0.0,0.0,0.0,0.0,0.0,0.0,0.0,0.0,0.0,0.0,0.0,0.0,0.0,0.0,0.0,0.0,0.0,0.0,0.0,0.0,0.0,0.0,0.0,0.0,0.0,0.0,0.0,0.0,0.0,0.0,0.0,0.0,0.0,0.0,0.0,0.0,0.0,0.0,0.0,0.0,0.0,0.0,0.0,0.0,0.0,0.0,0.0,0.0,0.0,0.0,0.0,0.0,0.0,-3.1678,-3.4249,-3.5616,-3.5616,-3.5616,-3.5616,-3.56,-3.4844,-3.3423,0.0,0.0,0.0,0.0,0.0,0.0,0.0,0.0,0.0,0.0,0.0,0.0,0.0,0.0,0.0,0.0,0.0,0.0,0.0,0.0,0.0,0.0,0.0,0.0,0.0,0.0,0.0,0.0,0.0,0.0,0.0,0.0,0.0,0.0,0.0,0.0,0.0,0.0,0.0,0.0,0.0,-2.7764,-2.8382,-2.7899,-2.769,0.0,-2.7859,-2.7675,-2.8233,-2.8891,-2.8948,-2.76,0.0,0.0,0.0,0.0,0.0,0.0,0.0,0.0,0.0,0.0,0.0,0.0,0.0,0.0,0.0,0.0,0.0,0.0,0.0,0.0,0.0,0.0,0.0,0.0,0.0,0.0,0.0,0.0,0.0,0.0,0.0,0.0,0.0,0.0,0.0,0.0,0.0,0.0,0.0,0.0,0.0,0.0,0.0,0.0,0.0,0.0,0.0,0.0,0.0,0.0,0.0,0.0,0.0,-3.1582,-3.1622,-3.4249,-3.5616,-3.5616,-3.5616,-3.5616,-3.56,-3.4895,-3.3457,0.0,0.0,0.0,0.0,0.0,0.0,0.0,0.0,0.0,0.0,0.0,0.0,0.0,0.0,0.0,0.0,0.0,0.0,0.0,0.0,0.0,0.0,0.0,0.0,0.0,0.0,0.0,0.0,-2.4336,-2.428,-2.3728,0.0,0.0,0.0,0.0,0.0,0.0,0.0,0.0,0.0,0.0,-2.8308,-2.8562,-2.8368,0.0,0.0,-2.8368,-2.8143,-2.8019,-2.8558,-2.8517,-2.7195,-2.6986,0.0,0.0,0.0,0.0,0.0,0.0,0.0,0.0,0.0,0.0,0.0,0.0,0.0,0.0,0.0,0.0,0.0,0.0,0.0,0.0,0.0,0.0,0.0,0.0,0.0,0.0,0.0,0.0,0.0,0.0,0.0,0.0,0.0,0.0,0.0,0.0,0.0,0.0,0.0,0.0,0.0,0.0,0.0,0.0,0.0,0.0,0.0,0.0,0.0,0.0,0.0,0.0,-3.1581,-3.1575,-3.424,-3.5616,-3.5616,-3.5616,-3.5616,-3.56,-3.5115,-3.3897,0.0,0.0,0.0,0.0,0.0,0.0,0.0,0.0,0.0,0.0,0.0,0.0,0.0,0.0,0.0,0.0,0.0,0.0,0.0,0.0,0.0,0.0,0.0,0.0,0.0,0.0,0.0,0.0,-2.4437,-2.4431,-2.4042,0.0,0.0,0.0,0.0,0.0,0.0,0.0,0.0,0.0,0.0,-2.916,-2.9175,-2.9026,-2.8891,-2.8906,-2.8727,-2.8502,-2.8229,-2.8603,-2.8562,-2.7634,0.0,0.0,0.0,0.0,0.0,0.0,0.0,0.0,0.0,0.0,0.0,0.0,0.0,0.0,0.0,0.0,0.0,0.0,0.0,0.0,0.0,0.0,0.0,0.0,0.0,0.0,0.0,-2.1483,0.0,0.0,-2.1418,0.0,0.0,0.0,0.0,0.0,0.0,0.0,0.0,0.0,0.0,0.0,0.0,0.0,0.0,0.0,0.0,0.0,0.0,0.0,0.0,0.0,0.0,-3.1549,-3.1435,-3.4186,-3.5616,-3.5616,-3.5616,-3.5616,-3.56,-3.5583,-3.4856,-3.3351,0.0,0.0,0.0,0.0,0.0,0.0,0.0,0.0,0.0,0.0,0.0,0.0,0.0,0.0,0.0,0.0,0.0,0.0,0.0,0.0,0.0,0.0,0.0,0.0,0.0,0.0,-2.3258,-2.3678,-2.4017,0.0,0.0,0.0,0.0,0.0,0.0,0.0,0.0,0.0,0.0,-2.954,-3.0447,-3.0417,-2.9924,-2.9562,-2.9577,-2.9052,-2.8831,-2.9442,-2.9547,-2.9592,0.0,0.0,0.0,0.0,0.0,0.0,0.0,0.0,0.0,0.0,0.0,0.0,0.0,0.0,0.0,0.0,0.0,0.0,0.0,0.0,0.0,0.0,0.0,0.0,0.0,0.0,0.0,-2.2884,-2.2871,0.0,0.0,0.0,0.0,0.0,0.0,0.0,0.0,0.0,0.0,0.0,-2.9311,-3.0627,0.0,0.0,0.0,0.0,0.0,0.0,0.0,0.0,0.0,0.0,0.0,0.0,-3.144,-3.1528,-3.4153,-3.5616,-3.5616,-3.5616,-3.5616,-3.5616,-3.5616,-3.4906,-3.3436,0.0,0.0,0.0,0.0,0.0,0.0,0.0,0.0,0.0,0.0,0.0,0.0,0.0,0.0,0.0,0.0,0.0,0.0,0.0,0.0,0.0,0.0,0.0,0.0,0.0,-2.3916,0.0,0.0,0.0,0.0,0.0,0.0,0.0,0.0,0.0,0.0,0.0,-2.7717,-2.8309,-2.8891,-2.94,-2.9819,-2.9714,-2.9729,0.0,0.0,0.0,0.0,0.0,0.0,0.0,0.0,0.0,0.0,0.0,0.0,0.0,0.0,-2.7829,-2.6497,-2.6437,-2.6587,-2.6587,0.0,0.0,0.0,0.0,0.0,0.0,0.0,0.0,0.0,0.0,0.0,0.0,0.0,0.0,-2.4786,0.0,-2.4799,0.0,0.0,0.0,0.0,0.0,0.0,0.0,0.0,-2.9453,-3.031,-3.0626,-3.1971,-3.2241,0.0,-3.2289,-3.1374,0.0,0.0,0.0,0.0,0.0,0.0,0.0,0.0,-3.1361,-3.1474,-3.414,-3.5616,-3.5616,-3.5616,-3.5616,-3.5616,-3.5616,-3.5143,-3.418,-3.2873,-3.1918,0.0,0.0,0.0,0.0,0.0,0.0,0.0,0.0,0.0,0.0,0.0,0.0,0.0,0.0,0.0,0.0,0.0,0.0,0.0,0.0,0.0,0.0,0.0,-2.4494,0.0,0.0,0.0,0.0,0.0,0.0,0.0,0.0,0.0,-2.5673,-2.7131,-2.8393,-2.8773,-2.9085,-2.9265,-2.925,0.0,0.0,0.0,0.0,0.0,0.0,0.0,-2.8532,-2.8319,-2.8483,-2.8768,-2.919,-2.9472,-2.9621,-2.9621,0.0,0.0,-2.7929,-2.7809,-2.7959,-2.7944,-2.7764,-2.7585,-2.7585,-2.727,-2.6956,0.0,0.0,0.0,0.0,0.0,0.0,0.0,0.0,-2.7329,-2.7023,0.0,-2.7079,0.0,0.0,0.0,0.0,-2.5448,-2.7399,0.0,0.0,-3.0552,-3.1179,-3.0736,-3.2044,-3.2338,-3.1867,-3.3705,-3.3597,-3.179,-3.1734,0.0,0.0,0.0,0.0,0.0,0.0,-3.1353,-3.1407,-3.4129,-3.5616,-3.5616,-3.5616,-3.5616,-3.5616,-3.5616,-3.5583,-3.5526,-3.4334,-3.3637,-3.3542,-3.111,0.0,0.0,0.0,0.0,0.0,0.0,0.0,0.0,0.0,0.0,0.0,0.0,0.0,0.0,0.0,0.0,0.0,0.0,0.0,0.0,-2.5259,0.0,0.0,0.0,0.0,0.0,0.0,0.0,0.0,0.0,0.0,-2.6494,-2.8229,-2.9577,-2.9549,0.0,0.0,0.0,0.0,-2.9127,-2.7914,-2.7675,-2.7705,-2.775,-2.8233,-2.8846,-2.9487,0.0,0.0,-3.0492,-3.0028,-2.9711,-2.9669,-3.0163,-3.0342,-2.9744,-2.9172,-2.8771,-2.8742,-2.8293,-2.7794,-2.775,-2.7914,-2.7794,-2.9798,0.0,0.0,0.0,0.0,-2.6726,-2.7501,-2.8798,-2.8798,-2.8698,-2.8555,-2.8726,0.0,0.0,0.0,0.0,0.0,0.0,-2.8939,-2.9958,-3.1068,-3.1971,-3.2736,-3.3613,-3.4146,-3.4478,-3.5038,-3.5013,-3.4474,-3.4457,-3.2718,-2.9367,0.0,0.0,0.0,0.0,-3.1759,-3.281,-3.4636,-3.5616,-3.5616,-3.5616,-3.5616,-3.5616,-3.5616,-3.5616,-3.56,-3.5245,-3.4593,-3.3614,-3.2426,0.0,0.0,0.0,0.0,0.0,0.0,0.0,0.0,0.0,0.0,0.0,0.0,0.0,0.0,0.0,0.0,0.0,0.0,0.0,-2.6051,-2.645,-2.638,0.0,0.0,0.0,0.0,0.0,0.0,0.0,0.0,0.0,-2.7755,-2.8416,-2.8876,0.0,0.0,-2.8304,-2.7944,-2.8442,-2.8906,-2.9022,-2.9022,0.0,-2.9594,-2.946,-2.9382,-2.9577,-3.0088,-3.0492,-3.0492,-3.0761,-3.0943,-3.0956,-3.1092,-3.1152,-3.1002,-3.0808,-3.0644,-3.0658,-3.0494,-3.0374,-3.0372,-3.0043,-2.9654,-3.1931,-3.0338,-2.9247,-2.8669,-2.8501,-2.8233,-2.8928,-3.0221,-3.0221,-3.0075,-2.984,-3.0119,-2.9305,-2.7738,-2.7738,0.0,0.0,0.0,-2.9819,-3.0911,-3.1658,-3.2591,-3.3668,-3.4584,-3.5404,-3.6061,-3.6386,-3.6495,-3.6495,-3.6231,-3.4639,-3.1783,0.0,0.0,-3.0004,-3.1361,-3.251,-3.344,-3.4856,-3.5616,-3.5616,-3.5926,-3.6079,-3.6079,-3.6366,-3.6535,-3.6495,-3.6231,-3.5723,-3.4898,-3.3676,-3.2337,0.0,0.0,0.0,0.0,0.0,0.0,0.0,0.0,0.0,0.0,0.0,-2.5714,-2.4752,0.0,0.0,0.0,-2.7016,-2.7329,-2.7639,-2.7471,0.0,0.0,0.0,0.0,0.0,0.0,0.0,-2.5493,-2.6811,-2.7896,-2.8325,-2.8744,-2.9086,-2.9325,-2.8996,-2.8678,-2.8423,0.0,-2.9415,-2.9577,-2.9621,-2.9714,-3.0073,-3.0043,-3.0028,-3.0313,-3.0642,-3.0868,-3.0898,-3.1256,-3.1496,-3.1496,-3.1496,-3.1496,-3.1496,-3.1496,-3.1496,-3.1496,-3.1496,-3.1496,-3.1496,-3.1182,-3.0911,-3.3814,-3.3572,-3.1041,-3.0233,-3.0581,-2.9972,-3.0456,-3.1645,-3.166,-3.1301,-3.0791,-3.1376,-3.0599,-2.8827,-2.8784,0.0,-2.9755,-3.0434,-3.1106,-3.1674,-3.2356,-3.3094,-3.392,-3.5111,-3.6108,-3.6886,-3.7573,-3.7898,-3.7831,-3.7195,-3.6451,-3.5566,-3.423,-3.2882,-3.1702,-3.2765,-3.3474,-3.3592,-3.4906,-3.5667,-3.5785,-3.6502,-3.688,-3.6914,-3.755,-3.7905,-3.7889,-3.7229,-3.6897,-3.6823,-3.4951,-3.3514,-3.2689,0.0,0.0,0.0,0.0,0.0,0.0,0.0,0.0,0.0,0.0,0.0,0.0,0.0,0.0,0.0,-2.8111,0.0,-2.9612,-2.8462,0.0,0.0,0.0,-2.6687,-2.7244,-2.7355,-2.7339,-2.7193,0.0,0.0,-2.8483,-2.9116,-2.9824,-3.0507,-3.0492,-3.0223,-2.9654,-3.0058,-3.0298,-2.9786,-2.9756,-2.9786,-2.9939,-3.0283,-3.0761,-3.1286,-3.1496,-3.1466,-3.1451,-3.1481,-3.1496,-3.1496,-3.1496,-3.1496,-3.1496,-3.1496,-3.1496,-3.1496,-3.1496,-3.1496,-3.1496,-3.1466,-3.1436,-3.6477,-3.6369,-3.5282,-3.401,-3.2763,-3.2585,-3.2705,-3.3021,-3.3021,-3.2931,-3.2796,-3.2946,-3.2751,-3.2287,-3.2287,-3.2362,-3.2525,-3.2706,-3.2871,-3.3021,-3.3216,-3.3954,-3.5236,-3.5546,-3.6371,-3.7597,-3.7817,-3.7898,-3.7905,-3.7736,-3.6958,-3.5633,-3.5245,-3.4373,-3.298,-3.3258,-3.3964,-3.5059,-3.5414,-3.6174,-3.7313,-3.755,-3.7635,-3.7635,-3.7821,-3.7898,-3.7882,-3.7753,-3.7635,-3.7611,-3.6603,-3.5242,-3.3526,-3.251,0.0,0.0,0.0,0.0,0.0,0.0,0.0,0.0,0.0,-2.7163,-2.6254,0.0,-2.813,0.0,-2.9341,-3.0086,-3.0255,-2.9474,0.0,0.0,-2.7997,-2.7131,-2.7239,-2.7684,-2.7795,-2.7278,-2.7804,-2.8679,-2.9819,-2.9677,-2.9912,-3.1051,-3.0417,-2.9744,-2.9636,-3.0118,-3.0447,-3.0357,-3.0702,-3.1032,-3.1017,-3.1152,-3.1301,-3.1481,-3.1496,-3.1496,-3.1496,-3.1496,-3.1496,-3.1496,-3.1496,-3.1496,-3.1496,-3.1496,-3.1496,-3.1496,-3.1496,-3.1496,-3.1496,-3.1496,-3.1496,-3.7404,-3.7375,-3.703,-3.6252,-3.519,-3.4637,-3.4397,-3.4397,-3.4382,-3.4218,-3.3934,-3.3619,-3.3499,-3.3499,-3.3499,-3.3499,-3.3499,-3.3499,-3.3499,-3.353,-3.3819,-3.474,-3.6169,-3.6502,-3.7442,-3.887,-3.8886,-3.887,-3.887,-3.887,-3.843,-3.7618,-3.7601,-3.6874,-3.5419,-3.41,-3.3808,-3.4602,-3.5261,-3.6326,-3.7855,-3.821,-3.8091,-3.7449,-3.7736,-3.7584,-3.6884,-3.6569,-3.6383,-3.636,-3.5714,-3.4652,-3.3242,-3.2542,-3.1278,0.0,0.0,0.0,0.0,0.0,0.0,0.0,0.0,0.0,0.0,0.0,-2.9026,-2.9041,-2.9939,-3.0402,-3.0118,-2.9725,-2.964,-2.9971,-2.9256,-2.8814,-2.9057,-2.9446,-2.9384,-2.8655,-2.9223,-2.9706,-2.984,-3.0119,-3.047,-3.0955,-3.0654,-3.0447,-3.0462,-3.0733,-3.0943,-3.0986,-3.1256,-3.1496,-3.1496,-3.1496,-3.1496,-3.1496,-3.1496,-3.1496,-3.1496,-3.1496,-3.1496,-3.1496,-3.1496,-3.1496,-3.1496,-3.1496,-3.1496,-3.1496,-3.1496,-3.1496,-3.1496,-3.1496,-3.1496,-3.7793,-3.7793,-3.7689,-3.7674,-3.7569,-3.6492,-3.5908,-3.5744,-3.5759,-3.5415,-3.4816,-3.4247,-3.4008,-3.3993,-3.3993,-3.3993,-3.3993,-3.4008,-3.4055,-3.4195,-3.4756,-3.5859,-3.7371,-3.7954,-3.8973,-4.0358,-4.0383,-4.0383,-4.04,-4.0383,-4.0299,-4.0113,-4.0113,-3.936,-3.7855,-3.5199,-3.3795,-3.3689,-3.5143,-3.6546,-3.7848,-3.8345,-3.7956,-3.6738,-3.728,-3.6969,-3.565,-3.4996,-3.4624,-3.4619,-3.4078,-3.3498,-3.2914,-3.2336,-3.1446,0.0,-2.948,0.0,0.0,0.0,0.0,0.0,0.0,0.0,0.0,-2.9193,-2.9636,-2.9684,-3.0193,-3.0313,-2.9864,-2.9834,-3.0043,-3.0567,-3.0627,-3.0824,-3.1275,-3.1248,-3.0896,-3.0208,-3.0644,-3.045,-2.9476,-3.048,-3.1058,-3.0524,-3.0984,-3.1289,-3.1306,-3.1349,-3.1451,-3.1496,-3.1496,-3.1496,-3.1496,-3.1496,-3.1496,-3.1496,-3.1496,-3.1496,-3.1496,-3.1496,-3.1496,-3.1496,-3.1496,-3.1496,-3.1496,-3.1496,-3.1496,-3.1496,-3.1496,-3.1496,-3.1496,-3.1496,-3.1496,-3.9828,-3.9783,-3.926,-3.9,-3.8985,-3.8781,-3.8048,-3.7045,-3.7045,-3.6971,-3.6851,-3.6716,-3.6671,-3.6671,-3.6671,-3.6686,-3.6671,-3.6671,-3.7041,-3.7695,-3.7854,-3.8773,-4.032,-4.0478,-4.1022,-4.1863,-4.1863,-4.1863,-4.188,-4.188,-4.1271,-4.0113,-4.0121,-3.9352,-3.7939,0.0,0.0,0.0,-3.6705,-3.7618,-3.7855,-3.68,-3.6129,-3.5819,-3.5955,0.0,-3.5616,-3.5464,-3.538,-3.538,-3.5268,0.0,0.0,0.0,0.0,0.0,0.0,0.0,0.0,0.0,0.0,0.0,-2.9475,-2.9376,-2.9387,-2.951,-2.9816,-3.0283,-3.0432,-3.0687,-3.1092,-3.1137,-3.1182,-3.1286,-3.1316,-3.11,-3.0614,-2.9919,-2.9411,-2.924,-2.878,-2.8876,-2.9889,-3.0374,-3.0464,-3.0299,-3.0999,-3.119,-3.0598,-3.1087,-3.1467,-3.1496,-3.1496,-3.1496,-3.1496,-3.1496,-3.1496,-3.1496,-3.1496,-3.1496,-3.1496,-3.1525,-3.1511,-3.1525,-3.1496,-3.154,-3.1525,-3.1496,-3.1585,-3.1511,-3.1525,-3.1496,-3.1496,-3.1511,-3.1496,-4.0891,-4.0861,-4.0531,-4.0397,0.0,-4.0053,-3.9514,-3.8856,-3.8542,-3.8212,-3.7868,-3.7554,-3.7404,-3.7404,-3.7404,-3.7404,-3.7404,-3.7849,-3.8284,-3.8725,-3.9125,-4.0007,-4.1189,-4.1189,-4.1572,-4.2286,-4.2303,-4.2303,-4.2303,-4.2303,-4.1931,-4.1178,-4.1204,-4.0832,-4.0087,-3.9723,-3.8599,-3.6749,-3.7516,-3.8244,-3.892,-3.8227,-3.7483,-3.6766,-3.6715,0.0,0.0,0.0,0.0,0.0,0.0,0.0,0.0,-3.5027,0.0,-3.3734,-3.2953,-3.2228,-3.1569,-3.1466,-3.1375,-3.1061,-3.0731,-3.0402,-3.0058,-3.0342,-3.0672,-3.0957,-3.0987,-3.1122,-3.1466,-3.1496,-3.1496,-3.1496,-3.1496,-3.119,-3.0434,-2.9919,-2.9642,-2.9597,-2.924,-2.9223,-2.9597,-3.0086,-2.9889,-2.9223,-2.9721,-3.0162,-2.9889,-3.0718,-3.1496,-3.1496,-3.1496,-3.1496,-3.1496,-3.1496,-3.1511,-3.1496,-3.1496,-3.1496,-3.1496,-3.1765,-3.1989,-3.2004,-3.2243,-3.2497,-3.2482,-3.2467,-3.2497,-3.2497,-3.2497,-3.2497,-3.2437,-3.1974,-3.1496,-4.1587,-4.1587,-4.1467,-4.1422,-4.1339,-4.0801,-4.0516,-4.0352,-3.9709,0.0,0.0,-3.8003,-3.7764,-3.7764,-3.7764,-3.7764,-3.7798,-3.8485,-3.8984,-3.9325,-4.0037,-4.0859,-4.1785,-4.1813,-4.2139,-4.2692,-4.2692,-4.2692,-4.2692,-4.2692,-4.2709,-4.2719,-4.2692,-4.2625,-4.2506,-4.2489,-4.1238,-3.8802,-3.8294,-3.8684,-3.9859,-3.952,-3.8717,-3.7516,-3.7476,-3.6884,-3.565,-3.5616,-3.5616,-3.5616,-3.5659,-3.5802,-3.6042,-3.5309,-3.4735,-3.4435,-3.3573,-3.3006,-3.2871,-3.2856,-3.2811,-3.2691,-3.2168,-3.1511,-3.0761,-3.1182,-3.1496,-3.1496,-3.1615,-3.1675,-3.169,-3.1795,-3.1839,-3.1854,-3.1854,-3.1605,-3.0963,-3.0539,-3.0366,-3.0385,-3.0023,-2.9701,-2.9215,-2.9694,-2.967,-2.8504,-2.8978,-2.9274,-2.9438,-3.0427,-3.1292,-3.1438,-3.163,-3.1705,-3.1705,-3.1869,-3.1839,-3.1959,-3.1914,-3.1854,-3.1944,-3.2288,-3.2647,-3.2662,-3.3155,-3.338,-3.3469,-3.341,-3.3499,-3.3499,-3.3499,-3.3499,-3.341,-3.2662,-3.1944,-4.2276,-4.2216,-4.1647,-4.1422,-4.1369,-4.128,-4.0958,-4.0352,-3.9709,-3.9343,-3.9275,-3.9149,-3.9104,-3.9104,-3.9104,-3.9089,-3.914,-3.9232,-4.0101,-4.1501,-4.1662,-4.2582,-4.4063,-4.4136,-4.4193,-4.4265,-4.4276,-4.4293,-4.4276,-4.4259,-4.4276,-4.4276,-4.4293,-4.391,-4.3291,-4.324,-4.2726,-4.166,-3.98,-3.8954,-3.9123,-3.7246,-3.6163,-3.5938,-3.5988,-3.5836,-3.5616,-3.565,-3.5616,-3.5616,-3.5633,-3.6211,-3.7444,-3.6273,-3.5999,-3.7033,-3.5876,-3.4816,-3.4279,-3.4203,-3.3979,-3.3425,-3.3275,-3.2706,-3.1496,-3.1451,-3.1496,-3.1525,-3.2034,-3.2348,-3.2407,-3.2856,-3.314,-3.317,-3.32,-3.3139,-3.282,-3.1586,-3.0665,-3.0618,-2.934,-2.8768,-2.9268,-2.9453,-2.9474,-2.93,-2.9462,-3.0246,-3.0201,-3.0432,-3.0791,-3.1396,-3.1989,-3.2303,-3.2422,-3.2871,-3.3051,-3.3215,-3.314,-3.3066,-3.3051,-3.3215,-3.3335,-3.3365,-3.3529,-3.3589,-3.3589,-3.3499,-3.3619,-3.3664,-3.3664,-3.3634,-3.3664,-3.3395,-3.323,-4.288,-4.2851,-4.2566,-4.2447,-4.2417,-4.2073,-4.1587,-4.092,-4.0621,-4.0068,-3.9403,-3.9388,-3.9388,-3.9388,-3.9388,-3.9388,-3.9409,-3.9884,-4.0535,-4.1346,-4.2269,-4.3139,-4.3873,-4.44,-4.4598,-4.4598,-4.4598,-4.4598,-4.4598,-4.4598,-4.4598,-4.4598,-4.4598,-4.4429,-4.4062,-4.4045,-4.3876,-4.3515,-4.1737,-4.0798,-4.0764,-3.9394,-3.865,-3.865,-3.8261,-3.8041,-3.8024,-3.8041,-3.8041,-3.8024,-3.7626,-3.7711,-3.8352,-3.7373,-3.6905,-3.7097,-3.6477,-3.579,-3.5073,-3.4681,-3.4384,-3.4084,-3.3694,-3.326,-3.2647,-3.2557,-3.2587,-3.2602,-3.2886,-3.3036,-3.3051,-3.332,-3.3499,-3.3499,-3.3499,-3.3084,-3.2155,-3.1396,-3.0643,-3.0084,-2.9324,-2.8983,-2.9359,-2.9381,-2.9183,-2.8853,-2.909,-2.943,-2.9918,-3.0336,-3.0853,-3.1662,-3.2096,-3.2488,-3.2944,-3.3275,-3.3484,-3.3499,-3.3499,-3.3499,-3.3529,-3.377,-3.4024,-3.4099,-3.4292,-3.4547,-3.4562,-3.4592,-3.4592,-3.4577,-3.4592,-3.4592,-3.4592,-3.4592,-3.4352,-4.3305,-4.3305,-4.3305,-4.3305,-4.326,-4.2806,-4.2246,-4.1662,-4.1609,-4.095,-3.9933,-3.9723,-3.9523,-3.9388,-3.9388,-3.9388,-3.9481,-4.008,-4.0485,-4.0844,-4.23,-4.3125,-4.3366,-4.4196,-4.4598,-4.4598,-4.4598,-4.4598,-4.4598,-4.4598,-4.4598,-4.4598,-4.4598,-4.4598,-4.4598,-4.4598,-4.4598,-4.453,-4.342,-4.2726,-4.2523,-4.183,-4.1441,-4.1407,-4.0713,-4.0367,-4.0367,-4.0197,-4.002,-3.9808,-3.9262,-3.8843,-3.8635,-3.7933,-3.7249,-3.6676,-3.6446,-3.6117,-3.5524,-3.5011,-3.4743,-3.4696,-3.4247,-3.3948,-3.3948,-3.3948,-3.3799,-3.3574,-3.3619,-3.3724,-3.3739,-3.3903,-3.3948,-3.3948,-3.3948,-3.3397,-3.188,-3.1348,-3.0835,-3.0011,-2.9633,-2.947,-2.9516,-2.9516,-2.9256,-2.8721,-2.8486,-2.8792,-2.9444,-3.0166,-3.0952,-3.1938,-3.2425,-3.2945,-3.3631,-3.3918,-3.4008,-3.3948,-3.3993,-3.4083,-3.4128,-3.4427,-3.4651,-3.4756,-3.51,-3.534,-3.5459,-3.5444,-3.5415,-3.5355,-3.534,-3.5415,-3.537,-3.5385,-3.5205,-4.3305,-4.3305,-4.3305,-4.3305,-4.329,-4.3215,-4.2851,-4.2366,-4.2306,-4.1916,-4.113,-4.0576,-3.9993,-3.9433,-3.9403,-3.9388,-3.9409,-3.9481,-3.9955,-4.0724,-4.1674,-4.2552,-4.3306,-4.415,-4.4598,-4.4598,-4.4598,-4.4598,-4.4598,-4.4598,-4.4598,-4.4598,-4.4598,-4.4598,-4.4598,-4.4598,-4.4598,-4.4598,-4.4479,-4.4012,-4.3318,-4.2574,-4.2202,-4.2168,-4.1491,-4.1102,-4.1085,-4.0485,-3.9756,-3.9069,-3.8951,-3.858,-3.7921,-3.7144,-3.6676,-3.6584,-3.5975,-3.5554,-3.5504,-3.5444,-3.537,-3.5415,-3.5295,-3.5235,-3.525,-3.528,-3.4771,-3.3948,-3.4068,-3.4399,-3.4444,-3.4891,-3.5175,-3.513,-3.5111,-3.4889,-3.3666,-3.2933,-3.2085,-3.1156,-3.0174,-2.977,-2.972,-2.9707,-2.9681,-2.9491,-2.9428,-2.9504,-2.9694,-2.9985,-3.0655,-3.2177,-3.3427,-3.4112,-3.4396,-3.4921,-3.507,-3.519,-3.5265,-3.516,-3.513,-3.519,-3.54,-3.522,-3.5385,-3.5489,-3.5489,-3.5489,-3.5489,-3.5489,-3.5489,-3.5489,-3.5489,-3.5489,-3.534,-4.3305,-4.3305,-4.3305,-4.3305,-4.3305,-4.3305,-4.314,-4.2955,-4.294,-4.2566,-4.2021,-4.1722,-4.0995,-3.9978,-3.9568,-3.9388,-3.9388,-3.9388,-3.9574,-3.9975,-4.0826,-4.1691,-4.2552,-4.3426,-4.4064,-4.457,-4.4598,-4.4598,-4.4598,-4.4598,-4.4598,-4.4598,-4.4598,-4.4598,-4.4598,-4.4598,-4.4598,-4.4598,-4.4598,-4.4462,-4.4062,-4.3352,-4.2946,-4.2807,-4.1753,-4.1324,-4.1707,-4.1067,-4.0331,-3.9644,-3.9161,-3.8351,-3.7145,-3.6752,-3.6384,-3.6006,-3.5668,-3.5489,-3.5489,-3.5489,-3.5489,-3.5489,-3.5489,-3.5489,-3.5489,-3.5489,-3.525,-3.4861,-3.4936,-3.5085,-3.51,-3.534,-3.5489,-3.5424,-3.4986,-3.4245,-3.3276,-3.2343,-3.1402,-3.0533,-3.0037,-2.9779,-2.9779,-2.9779,-2.9779,-2.9779,-2.9779,-2.9779,-2.983,-3.0241,-3.0908,-3.1656,-3.2688,-3.3849,-3.4732,-3.528,-3.5442,-3.5457,-3.5489,-3.5489,-3.5504,-3.5489,-3.5489,-3.5489,-3.5489,-3.5489,-3.5489,-3.5489,-3.5489,-3.5489,-3.5489,-3.5489,-3.5489,-3.5489,-3.5489,-4.3305,-4.3305,-4.3305,-4.3305,-4.3305,-4.3305,-4.3305,-4.3305,-4.3305,-4.306,-4.268,-4.2485,-4.1886,-4.0905,-4.0068,-3.9604,-3.9439,-3.9388,-3.9388,-3.9517,-4.0309,-4.1046,-4.1707,-4.2816,-4.3621,-4.4196,-4.4468,-4.4598,-4.4598,-4.4598,-4.4598,-4.4598,-4.4598,-4.4598,-4.457,-4.4384,-4.4224,-4.4224,-4.4253,-4.4224,-4.4169,-4.39,-4.3741,-4.3574,-4.2181,-4.1725,-4.252,-4.1582,-4.0709,-4.0058,-3.9295,-3.8188,-3.6676,-3.6413,-3.6054,-3.5587,-3.5489,-3.5489,-3.5489,-3.5489,-3.5489,-3.5489,-3.5489,-3.5489,-3.5489,-3.5489,-3.5489,-3.5459,-3.5489,-3.5474,-3.5489,-3.5489,-3.5392,-3.51,-3.4394,-3.3553,-3.2343,-3.1573,-3.0871,-2.996,-2.9818,-2.9779,-2.9779,-2.9779,-2.9779,-2.9779,-2.9779,-2.9779,-2.9856,-3.0343,-3.0833,-3.1143,-3.1815,-3.2806,-3.4356,-3.4543,-3.4725,-3.5052,-3.5019,-3.5085,-3.5392,-3.5504,-3.5489,-3.5489,-3.5489,-3.5489,-3.5489,-3.5489,-3.5489,-3.5489,-3.5489,-3.5489,-3.5489,-3.5489,-3.5489,-4.3305,-4.3305,-4.3305,-4.3305,-4.3305,-4.3305,-4.3305,-4.3305,-4.3305,-4.326,-4.3125,-4.2641,-4.2366,-4.2111,-4.0861,-4.0008,-3.9463,-3.9403,-3.9388,-3.9481,-4.0239,-4.069,-4.0878,-4.2442,-4.3336,-4.3532,-4.4253,-4.4598,-4.4598,-4.4598,-4.4598,-4.4598,-4.4598,-4.457,-4.444,-4.3785,-4.3366,-4.3366,-4.3443,-4.3413,-4.3486,-4.4145,-4.4468,-4.4271,-4.2974,-4.246,-4.3009,-4.1808,-4.0662,-3.9929,-3.9292,-3.8198,-3.6688,-3.5947,-3.5599,-3.5504,-3.5489,-3.5489,-3.5489,-3.5489,-3.5489,-3.5489,-3.5489,-3.5489,-3.5489,-3.5489,-3.5472,-3.5472,-3.5344,-3.5392,-3.5279,-3.5246,-3.5019,-3.4279,-3.4027,-3.3052,-3.1486,-3.1217,-3.0771,-3.0037,-2.9779,-2.9779,-2.9779,-2.9779,-2.9779,-2.9779,-2.9779,-2.9779,-2.9779,-2.9895,-3.0279,-3.0857,-3.1241,-3.1596,-3.25,-3.3185,-3.3463,-3.3959,-3.4461,-3.4495,-3.5052,-3.5489,-3.5489,-3.5489,-3.5489,-3.5489,-3.5489,-3.5489,-3.5489,-3.5489,-3.5489,-3.5489,-3.5489,-3.5489,-3.5489,-4.3305,-4.3305,-4.3305,-4.3305,-4.3305,-4.3305,-4.3305,-4.3305,-4.3305,-4.3305,-4.3275,-4.3075,-4.2521,-4.1752,-4.125,-4.0681,-4.0038,-3.9619,-3.9388,-3.946,-3.9753,-4.015,-4.0826,-4.1933,-4.2785,-4.3366,-4.4196,-4.4598,-4.4598,-4.4598,-4.4598,-4.4598,-4.4598,-4.4372,-4.3814,-4.3456,-4.3047,-4.2583,-4.297,-4.3306,-4.3336,-4.415,-4.4355,-4.3739,-4.2664,-4.2208,-4.25,-4.1405,-4.0482,-3.9799,-3.9533,-3.8705,-3.7229,-3.6492,-3.5938,-3.5549,-3.5489,-3.5489,-3.5489,-3.5489,-3.5489,-3.5489,-3.5489,-3.5489,-3.5489,-3.5472,-3.5246,-3.4725,-3.4528,-3.4327,-3.3891,-3.4158,-3.4394,-3.3959,-3.2925,-3.2033,-3.1291,-3.0696,-3.0139,-2.9869,-2.9779,-2.9779,-2.9779,-2.9779,-2.9779,-2.9779,-2.9779,-2.9779,-2.9779,-2.9779,-2.996,-3.0165,-3.0305,-3.0419,-3.0671,-3.201,-3.289,-3.3602,-3.4129,-3.4576,-3.5085,-3.5424,-3.5489,-3.5489,-3.5489,-3.5489,-3.5489,-3.5489,-3.5489,-3.5489,-3.5489,-3.5489,-3.5489,-3.5489,-3.5489,-4.3305,-4.3305,-4.3305,-4.3305,-4.3305,-4.3305,-4.3305,-4.3275,-4.312,-4.3015,-4.2985,-4.2806,-4.2192,-4.1482,-4.116,-4.0846,-4.0352,-3.9723,-3.9388,-3.9388,-3.9388,-3.9849,-4.0724,-4.1576,-4.2458,-4.3336,-4.4196,-4.4485,-4.4196,-4.4196,-4.415,-4.4167,-4.3931,-4.3651,-4.3246,-4.2769,-4.2125,-4.1804,-4.2157,-4.2458,-4.2583,-4.332,-4.335,-4.252,-4.1869,-4.1739,-4.1965,-4.1147,-4.0523,-4.0088,-3.9825,-3.9023,-3.7571,-3.6821,-3.6297,-3.5878,-3.5624,-3.5489,-3.5489,-3.5489,-3.5489,-3.5489,-3.5489,-3.5489,-3.5504,-3.5198,-3.4677,-3.4129,-3.3656,-3.3241,-3.2855,-3.2912,-3.3101,-3.2947,-3.196,-3.1068,-3.0758,-3.0216,-2.9856,-2.9779,-2.9779,-2.9779,-2.9779,-2.9779,-2.9779,-2.9779,-2.9779,-2.9779,-2.9779,-2.9779,-2.9779,-2.9779,-2.9856,-2.9895,-3.0216,-3.123,-3.2285,-3.3052,-3.3622,-3.4245,-3.5085,-3.5344,-3.5489,-3.5489,-3.5489,-3.5489,-3.5489,-3.5489,-3.5489,-3.5489,-3.5489,-3.5489,-3.5489,-3.5489,-3.5489,-4.326,-4.323,-4.326,-4.3155,-4.311,-4.3095,-4.3215,-4.305,-4.2635,-4.2396,-4.2321,-4.1782,-4.1474,-4.122,-4.0741,-4.0412,-4.0202,-3.9642,-3.9388,-3.9388,-3.9481,-3.992,-4.0709,-4.1691,-4.2537,-4.3306,-4.4093,-4.4035,-4.3336,-4.3306,-4.3306,-4.3139,-4.2583,-4.2536,-4.3185,-4.1707,-4.0826,-4.0758,-4.0878,-4.0878,-4.086,-4.1772,-4.1836,-4.0979,-4.0826,-4.1113,-4.1788,-4.1046,-4.0557,-4.0464,-3.9988,-3.8971,-3.7661,-3.6971,-3.6537,-3.6372,-3.5878,-3.5564,-3.5489,-3.5489,-3.5489,-3.5489,-3.5489,-3.5489,-3.5392,-3.4691,-3.4061,-3.3774,-3.3101,-3.2522,-3.2272,-3.1742,-3.1402,-3.1241,-3.118,-3.0733,-3.0113,-2.983,-2.9779,-2.9779,-2.9779,-2.9779,-2.9779,-2.9779,-2.9779,-2.9779,-2.9779,-2.9779,-2.9779,-2.9779,-2.9779,-2.9779,-2.9779,-2.9779,-3.0101,-3.0595,-3.1536,-3.2415,-3.2912,-3.3567,-3.4872,-3.5489,-3.5489,-3.5489,-3.5489,-3.5489,-3.5489,-3.5489,-3.5489,-3.5489,-3.5489,-3.5489,-3.5489,-3.5489,-3.5489,-4.2671,-4.2611,-4.2177,-4.1983,-4.1998,-4.1983,-4.1983,-4.1983,-4.1796,-4.1698,-4.1677,-4.1512,-4.1145,-4.0741,-4.0472,-4.0157,-3.9723,-3.9463,-3.9388,-3.9481,-3.999,-4.0397,-4.0912,-4.2189,-4.3047,-4.3169,-4.2939,-4.2707,-4.2489,-4.2426,-4.241,-4.2316,-4.2125,-4.1804,-4.1576,-4.0946,-4.0466,-3.992,-4.0397,-4.0724,-4.0792,-4.1543,-4.156,-4.0826,-4.0724,-4.0603,-4.0235,-3.9935,-3.9809,-3.9829,-3.9597,-3.9048,-3.8252,-3.7913,-3.7389,-3.6582,-3.6312,-3.5953,-3.5564,-3.5489,-3.5489,-3.5489,-3.5489,-3.5489,-3.5392,-3.4543,-3.3739,-3.3101,-3.2177,-3.1439,-3.0771,-3.0457,-3.052,-3.1119,-3.062,-3.0165,-2.9908,-2.9779,-2.9779,-2.9779,-2.9779,-2.9779,-2.9779,-2.9779,-2.9779,-2.9779,-2.9779,-2.9779,-2.9779,-2.9779,-2.9779,-2.9779,-2.9779,-2.9779,-3.0037,-3.0419,-3.1156,-3.2105,-3.27,-3.3533,-3.4806,-3.5489,-3.5489,-3.5489,-3.5489,-3.5489,-3.5489,-3.5489,-3.5489,-3.5489,-3.5489,-3.5489,-3.5489,-3.5489,-3.5489,-4.2036,-4.1976,-4.1587,-4.1422,-4.1422,-4.1422,-4.1422,-4.1339,-4.1115,-4.1025,-4.098,-4.0741,-4.0427,-4.0098,-4.0038,-3.9828,-3.9403,-3.9388,-3.9388,-3.9553,-4.0309,-4.086,-4.1213,-4.2237,-4.2816,-4.2707,-4.2269,-4.1836,-4.1543,-4.1543,-4.1511,-4.1511,-4.1229,-4.0961,-4.0656,-4.0378,-3.99,-3.9538,-3.992,-4.022,-4.0309,-4.0774,-4.0774,-4.0274,-4.0205,-3.992,-3.9424,-3.9388,-3.9388,-3.9388,-3.9388,-3.92,-3.8796,-3.8512,-3.8003,-3.733,-3.6731,-3.6282,-3.5908,-3.5654,-3.5489,-3.5489,-3.5489,-3.5489,-3.5246,-3.4375,-3.3185,-3.2607,-3.1452,-3.0419,-2.996,-2.9779,-3.0101,-3.0558,-3.0177,-2.9818,-2.9779,-2.9779,-2.9779,-2.9779,-2.9779,-2.9779,-2.9779,-2.9779,-2.9779,-2.9779,-2.9779,-2.9779,-2.9779,-2.9779,-2.9779,-2.9779,-2.9779,-2.9792,-2.983,-3.0292,-3.0846,-3.1756,-3.2642,-3.3754,-3.5034,-3.5392,-3.5489,-3.5489,-3.5489,-3.5489,-3.5489,-3.5489,-3.5489,-3.5489,-3.5489,-3.5489,-3.5489,-3.5489,-3.5489,-4.1324,-4.1324,-4.1265,-4.1175,-4.1212,-4.1197,-4.1115,-4.1153,-4.0621,-4.0352,-4.0232,-3.9843,-3.9529,-3.9433,-3.9508,-3.9448,-3.9388,-3.9388,-3.9517,-3.9737,-4.0363,-4.108,-4.1836,-4.1933,-4.1933,-4.1885,-4.1772,-4.1313,-4.0656,-4.0622,-4.0622,-4.0569,-3.999,-3.9829,-4.0239,-3.9809,-3.9481,-3.946,-3.946,-3.9466,-3.9481,-3.9517,-3.9517,-3.9481,-3.9481,-3.9481,-3.9424,-3.9388,-3.9388,-3.9388,-3.9388,-3.9358,-3.9275,-3.8796,-3.8467,-3.8212,-3.721,-3.6686,-3.6387,-3.5953,-3.5594,-3.5519,-3.5489,-3.5489,-3.5279,-3.3856,-3.2749,-3.2522,-3.0983,-2.9869,-2.9818,-2.9779,-2.983,-2.983,-2.9818,-2.9779,-2.9779,-2.9779,-2.9779,-2.9779,-2.9779,-2.9779,-2.9779,-2.9779,-2.9779,-2.9779,-2.9779,-2.9779,-2.9779,-2.9779,-2.9779,-2.9779,-2.9779,-2.9779,-2.983,-2.9998,-3.0595,-3.1439,-3.2393,-3.3581,-3.4806,-3.5213,-3.5489,-3.5489,-3.5489,-3.5489,-3.5489,-3.5489,-3.5489,-3.5489,-3.5489,-3.5489,-3.5489,-3.5489,-3.5489,-4.0666,-4.0621,-4.0142,-3.9933,-3.9933,-3.9933,-3.9948,-3.9918,-3.9783,-3.9723,-3.9597,-3.9499,-3.9388,-3.9388,-3.9388,-3.9388,-3.9388,-3.9388,-3.9793,-4.0328,-4.0554,-4.118,-4.1691,-4.1346,-4.1046,-4.0995,-4.05,-3.9955,-3.9758,-3.9793,-3.9809,-3.9737,-3.9589,-3.9481,-3.9646,-3.9517,-3.9424,-3.9388,-3.9388,-3.9388,-3.9388,-3.9388,-3.9388,-3.9388,-3.9388,-3.9388,-3.9388,-3.9388,-3.9388,-3.9388,-3.9388,-3.9388,-3.9373,-3.92,-3.8901,-3.8437,-3.8078,-3.7434,-3.6686,-3.6327,-3.6013,-3.5549,-3.5519,-3.5489,-3.5424,-3.3719,-3.2735,-3.2285,-3.0921,-2.9779,-2.9779,-2.9779,-2.9779,-2.9779,-2.9779,-2.9779,-2.9779,-2.9779,-2.9779,-2.9779,-2.9779,-2.9779,-2.9779,-2.9779,-2.9779,-2.9779,-2.9779,-2.9779,-2.9779,-2.9779,-2.9779,-2.9779,-2.9779,-2.9779,-2.9818,-2.996,-3.0381,-3.1193,-3.2105,-3.3101,-3.4225,-3.5034,-3.5311,-3.5489,-3.5489,-3.5489,-3.5489,-3.5489,-3.5489,-3.5489,-3.5489,-3.5489,-3.5489,-3.5489,-3.5489,-3.9978,-3.9963,-3.9538,-3.9388,-3.9388,-3.9388,-3.9388,-3.9388,-3.9388,-3.9388,-3.9388,-3.9388,-3.9388,-3.9388,-3.9388,-3.9388,-3.9388,-3.9388,-3.9666,-4.0025,-4.0115,-4.0603,-4.1046,-4.0569,-4.015,-4.013,-3.9646,-3.9445,-3.9424,-3.9388,-3.9388,-3.9424,-3.9388,-3.9388,-3.9424,-3.9388,-3.9388,-3.9388,-3.9388,-3.9388,-3.9388,-3.9388,-3.9388,-3.9388,-3.9388,-3.9388,-3.9388,-3.9388,-3.9388,-3.9388,-3.9388,-3.9388,-3.9388,-3.9388,-3.9194,-3.8811,-3.8571,-3.8003,-3.7389,-3.6836,-3.636,-3.5938,-3.5714,-3.5519,-3.5133,-3.3754,-3.2593,-3.2415,-3.0846,-2.996,-2.9779,-2.9779,-2.9779,-2.9779,-2.9779,-2.9779,-2.9779,-2.9779,-2.9779,-2.9779,-2.9779,-2.9779,-2.9779,-2.9779,-2.9779,-2.9779,-2.9779,-2.9779,-2.9779,-2.9779,-2.9779,-2.9779,-2.9779,-2.9779,-2.9779,-2.9895,-3.0177,-3.0945,-3.1997,-3.2961,-3.4177,-3.5067,-3.5279,-3.5489,-3.5489,-3.5489,-3.5489,-3.5489,-3.5489,-3.5489,-3.5489,-3.5489,-3.5489,-3.5489,-3.5489,-3.9388,-3.9388,-3.9388,-3.9388,-3.9388,-3.9388,-3.9388,-3.9388,-3.9388,-3.9388,-3.9388,-3.9388,-3.9388,-3.9388,-3.9388,-3.9388,-3.9388,-3.9388,-3.9424,-3.9517,-3.9553,-3.9935,-4.0397,-3.9884,-3.9574,-3.9517,-3.9424,-3.9388,-3.9388,-3.9388,-3.9388,-3.9388,-3.9388,-3.9388,-3.9388,-3.9388,-3.9388,-3.9388,-3.9388,-3.9388,-3.9388,-3.9388,-3.9388,-3.9388,-3.9388,-3.9388,-3.9388,-3.9388,-3.9388,-3.9388,-3.9388,-3.9388,-3.9388,-3.9388,-3.9373,-3.929,-3.8871,-3.8497,-3.8227,-3.733,-3.6626,-3.6402,-3.5908,-3.5451,-3.4997,-3.3581,-3.2522,-3.2272,-3.0822,-2.996,-2.9779,-2.9779,-2.9779,-2.9779,-2.9779,-2.9779,-2.9779,-2.9779,-2.9779,-2.9779,-2.9779,-2.9779,-2.9779,-2.9779,-2.9779,-2.9779,-2.9779,-2.9779,-2.9779,-2.9779,-2.9779,-2.9779,-2.9779,-2.9779,-2.9779,-2.9779,-3.0177,-3.0746,-3.1901,-3.3031,-3.4591,-3.5359,-3.5424,-3.5489,-3.5489,-3.5489,-3.5489,-3.5489,-3.5489,-3.5489,-3.5489,-3.5489,-3.5489,-3.5489,-3.5489,-3.9388,-3.9388,-3.9388,-3.9388,-3.9388,-3.9388,-3.9388,-3.9388,-3.9388,-3.9388,-3.9388,-3.9388,-3.9388,-3.9388,-3.9388,-3.9388,-3.9388,-3.9388,-3.9388,-3.9388,-3.9388,-3.9445,-3.9666,-3.9445,-3.9424,-3.9388,-3.9388,-3.9388,-3.9388,-3.9388,-3.9388,-3.9388,-3.9388,-3.9388,-3.9388,-3.9388,-3.9388,-3.9388,-3.9388,-3.9388,-3.9388,-3.9388,-3.9388,-3.9388,-3.9388,-3.9388,-3.9388,-3.9388,-3.9388,-3.9388,-3.9388,-3.9388,-3.9388,-3.9388,-3.9388,-3.9358,-3.929,-3.8945,-3.8467,-3.8063,-3.7509,-3.6626,-3.6309,-3.5715,-3.4356,-3.3359,-3.2307,-3.1573,-3.0495,-2.9818,-2.9779,-2.9779,-2.9779,-2.9779,-2.9779,-2.9779,-2.9779,-2.9779,-2.9779,-2.9779,-2.9779,-2.9779,-2.9779,-2.9779,-2.9779,-2.9779,-2.9779,-2.9779,-2.9779,-2.9779,-2.9779,-2.9779,-2.9779,-2.9779,-2.9779,-2.9895,-3.0279,-3.0809,-3.1901,-3.2996,-3.4509,-3.5489,-3.5489,-3.5489,-3.5489,-3.5489,-3.5489,-3.5489,-3.5489,-3.5489,-3.5489,-3.5489,-3.5489,-3.5489,-3.5489,-3.9388,-3.9388,-3.9388,-3.9388,-3.9388,-3.9388,-3.9388,-3.9388,-3.9388,-3.9388,-3.9388,-3.9388,-3.9388,-3.9388,-3.9388,-3.9388,-3.9388,-3.9388,-3.9388,-3.9388,-3.9388,-3.9388,-3.9388,-3.9388,-3.9388,-3.9388,-3.9388,-3.9388,-3.9388,-3.9388,-3.9388,-3.9388,-3.9388,-3.9388,-3.9388,-3.9388,-3.9388,-3.9388,-3.9388,-3.9388,-3.9388,-3.9388,-3.9388,-3.9388,-3.9388,-3.9388,-3.9388,-3.9388,-3.9388,-3.9388,-3.9388,-3.9388,-3.9388,-3.9388,-3.9388,-3.9388,-3.9388,-3.929,-3.8931,-3.8527,-3.7958,-3.7015,-3.6686,-3.587,-3.4665,-3.3463,-3.25,-3.1719,-3.0746,-2.9779,-2.9779,-2.9779,-2.9779,-2.9779,-2.9779,-2.9779,-2.9779,-2.9779,-2.9779,-2.9779,-2.9779,-2.9779,-2.9779,-2.9779,-2.9779,-2.9779,-2.9779,-2.9779,-2.9779,-2.9779,-2.9779,-2.9779,-2.9779,-2.9779,-2.9779,-2.9998,-3.0381,-3.1057,-3.1974,-3.2996,-3.4211,-3.4953,-3.5489,-3.5489,-3.5489,-3.5489,-3.5489,-3.5489,-3.5489,-3.5489,-3.5489,-3.5489,-3.5489,-3.5489,-3.5489,-3.9388,-3.9388,-3.9388,-3.9388,-3.9388,-3.9388,-3.9388,-3.9388,-3.9388,-3.9388,-3.9388,-3.9388,-3.9388,-3.9388,-3.9388,-3.9388,-3.9388,-3.9388,-3.9388,-3.9388,-3.9388,-3.9388,-3.9388,-3.9388,-3.9388,-3.9388,-3.9388,-3.9388,-3.9388,-3.9388,-3.9388,-3.9388,-3.9388,-3.9388,-3.9388,-3.9388,-3.9388,-3.9388,-3.9388,-3.9388,-3.9388,-3.9388,-3.9388,-3.9388,-3.9388,-3.9388,-3.9388,-3.9388,-3.9388,-3.9388,-3.9388,-3.9388,-3.9388,-3.9388,-3.9388,-3.9388,-3.9388,-3.9343,-3.926,-3.8871,-3.8317,-3.7614,-3.7,-3.6224,-3.5207,-3.3736,-3.2607,-3.1792,-3.0846,-2.9779,-2.9779,-2.9779,-2.9779,-2.9779,-2.9779,-2.9779,-2.9779,-2.9779,-2.9779,-2.9779,-2.9779,-2.9779,-2.9779,-2.9779,-2.9779,-2.9779,-2.9779,-2.9779,-2.9779,-2.9779,-2.9779,-2.9779,-2.9779,-2.9779,-2.9779,-3.0381,-3.0733,-3.1513,-3.2357,-3.3255,-3.4177,-3.4872,-3.5504,-3.5489,-3.5489,-3.5489,-3.5489,-3.5489,-3.5489,-3.5489,-3.5489,-3.5489,-3.5489,-3.5489,-3.5489,-3.9388,-3.9388,-3.9388,-3.9388,-3.9388,-3.9388,-3.9388,-3.9388,-3.9388,-3.9388,-3.9388,-3.9388,-3.9388,-3.9388,-3.9388,-3.9388,-3.9388,-3.9388,-3.9388,-3.9388,-3.9388,-3.9388,-3.9388,-3.9388,-3.9388,-3.9388,-3.9388,-3.9388,-3.9388,-3.9388,-3.9388,-3.9388,-3.9388,-3.9388,-3.9388,-3.9388,-3.9388,-3.9388,-3.9388,-3.9388,-3.9388,-3.9388,-3.9388,-3.9388,-3.9388,-3.9388,-3.9388,-3.9388,-3.9388,-3.9388,-3.9388,-3.9388,-3.9388,-3.9388,-3.9388,-3.9388,-3.9388,-3.9388,-3.9328,-3.9269,-3.8871,-3.8287,-3.7569,-3.6522,-3.5223,-3.3621,-3.2349,-3.1365,-3.0558,-2.9779,-2.9779,-2.9779,-2.9779,-2.9779,-2.9779,-2.9779,-2.9779,-2.9779,-2.9779,-2.9779,-2.9779,-2.9779,-2.9779,-2.9779,-2.9779,-2.9779,-2.9779,-2.9779,-2.9779,-2.9779,-2.9779,-2.9779,-2.9779,-2.9779,-2.9779,-3.0582,-3.1241,-3.2105,-3.2961,-3.3788,-3.461,-3.5133,-3.5504,-3.5504,-3.5489,-3.5489,-3.5489,-3.5489,-3.5489,-3.5489,-3.5489,-3.5489,-3.5489,-3.5489,-3.5489,-3.9388,-3.9388,-3.9388,-3.9388,-3.9388,-3.9388,-3.9388,-3.9388,-3.9388,-3.9388,-3.9388,-3.9388,-3.9388,-3.9388,-3.9388,-3.9388,-3.9388,-3.9388,-3.9388,-3.9388,-3.9388,-3.9388,-3.9388,-3.9388,-3.9388,-3.9388,-3.9388,-3.9388,-3.9388,-3.9388,-3.9388,-3.9388,-3.9388,-3.9388,-3.9388,-3.9388,-3.9388,-3.9388,-3.9388,-3.9388,-3.9388,-3.9388,-3.9388,-3.9388,-3.9388,-3.9388,-3.9388,-3.9388,-3.9388,-3.9388,-3.9388,-3.9388,-3.9388,-3.9388,-3.9388,-3.9388,-3.9388,-3.9388,-3.9388,-3.9373,-3.908,-3.8422,-3.7778,-3.695,-3.557,-3.3944,-3.2119,-3.0833,-3.0241,-2.9779,-2.9779,-2.9818,-2.9779,-2.9779,-2.9818,-2.9818,-2.9818,-2.9818,-2.9818,-2.9818,-2.9856,-2.9856,-2.9779,-2.9779,-2.9779,-2.9779,-2.9779,-2.9779,-2.9779,-2.9921,-2.9998,-3.0139,-3.0254,-3.057,-3.0633,-3.1193,-3.1852,-3.2629,-3.3498,-3.4327,-3.4758,-3.5213,-3.5424,-3.5489,-3.5489,-3.5489,-3.5489,-3.5489,-3.5489,-3.5489,-3.5489,-3.5489,-3.5489,-3.5489,-3.5489,-3.9388,-3.9388,-3.9388,-3.9388,-3.9388,-3.9388,-3.9388,-3.9388,-3.9388,-3.9388,-3.9388,-3.9388,-3.9388,-3.9388,-3.9388,-3.9388,-3.9388,-3.9388,-3.9388,-3.9388,-3.9388,-3.9388,-3.9388,-3.9388,-3.9388,-3.9388,-3.9388,-3.9388,-3.9388,-3.9388,-3.9388,-3.9388,-3.9388,-3.9388,-3.9388,-3.9388,-3.9388,-3.9388,-3.9388,-3.9388,-3.9388,-3.9388,-3.9388,-3.9388,-3.9388,-3.9388,-3.9388,-3.9388,-3.9388,-3.9388,-3.9388,-3.9388,-3.9388,-3.9388,-3.9388,-3.9388,-3.9388,-3.9388,-3.9388,-3.9388,-3.92,-3.8721,-3.7868,-3.7191,-3.6289,-3.4464,-3.2321,-3.0746,-3.0177,-3.0343,-3.0533,-3.0254,-3.0279,-3.0419,-3.0355,-3.0101,-3.0177,-3.0177,-3.0037,-3.0037,-2.996,-2.9921,-2.9934,-2.9779,-2.9779,-2.9779,-2.9779,-2.9779,-2.9856,-3.0279,-3.0419,-3.0646,-3.0884,-3.1415,-3.1696,-3.2046,-3.2558,-3.3087,-3.3925,-3.4739,-3.492,-3.51,-3.5279,-3.5489,-3.5489,-3.5489,-3.5489,-3.5489,-3.5489,-3.5489,-3.5489,-3.5489,-3.5489,-3.5489,-3.5489,-3.9388,-3.9388,-3.9388,-3.9388,-3.9388,-3.9388,-3.9388,-3.9388,-3.9388,-3.9388,-3.9388,-3.9388,-3.9388,-3.9388,-3.9388,-3.9388,-3.9388,-3.9388,-3.9388,-3.9388,-3.9388,-3.9388,-3.9388,-3.9388,-3.9388,-3.9388,-3.9388,-3.9388,-3.9388,-3.9388,-3.9388,-3.9388,-3.9388,-3.9388,-3.9388,-3.9388,-3.9388,-3.9388,-3.9388,-3.9388,-3.9388,-3.9388,-3.9388,-3.9388,-3.9388,-3.9388,-3.9388,-3.9388,-3.9388,-3.9388,-3.9388,-3.9388,-3.9388,-3.9388,-3.9388,-3.9388,-3.9388,-3.9388,-3.9388,-3.9388,-3.9394,-3.896,-3.8108,-3.7524,-3.6339,-3.5025,-3.322,-3.2429,-3.1536,-3.1328,-3.1609,-3.1426,-3.1573,-3.1536,-3.1365,-3.1119,-3.1057,-3.102,-3.0846,-3.0558,-3.0633,-3.0317,-3.0101,-2.9921,-2.9779,-2.9779,-2.9779,-2.9779,-2.996,-3.0381,-3.1378,-3.1733,-3.1696,-3.2155,-3.2763,-3.3115,-3.3325,-3.3739,-3.4361,-3.51,-3.5166,-3.5246,-3.5344,-3.5489,-3.5489,-3.5489,-3.5489,-3.5489,-3.5489,-3.5489,-3.5489,-3.5489,-3.5489,-3.5489,-3.5489,-3.9388,-3.9388,-3.9388,-3.9388,-3.9388,-3.9388,-3.9388,-3.9388,-3.9388,-3.9388,-3.9388,-3.9388,-3.9388,-3.9388,-3.9388,-3.9388,-3.9388,-3.9388,-3.9388,-3.9388,-3.9388,-3.9388,-3.9388,-3.9388,-3.9388,-3.9388,-3.9388,-3.9388,-3.9388,-3.9388,-3.9388,-3.9388,-3.9388,-3.9388,-3.9388,-3.9388,-3.9388,-3.9388,-3.9388,-3.9388,-3.9388,-3.9388,-3.9388,-3.9388,-3.9388,-3.9388,-3.9388,-3.9388,-3.9388,-3.9388,-3.9388,-3.9388,-3.9388,-3.9388,-3.9388,-3.9388,-3.9388,-3.9388,-3.9388,-3.9388,-3.9388,-3.9074,-3.8127,-3.6852,-3.5746,-3.4719,-3.3636,-3.2664,-3.2249,-3.2285,-3.2522,-3.22,-3.2272,-3.2307,-3.2307,-3.2164,-3.1997,-3.1997,-3.1852,-3.1536,-3.1254,-3.0983,-3.0671,-3.0355,-3.0113,-2.9779,-2.9856,-2.9895,-3.0165,-3.0582,-3.1792,-3.3185,-3.301,-3.289,-3.3616,-3.4158,-3.4225,-3.4509,-3.4758,-3.5311,-3.5392,-3.5457,-3.5489,-3.5489,-3.5489,-3.5489,-3.5489,-3.5489,-3.5489,-3.5489,-3.5489,-3.5489,-3.5489,-3.5489,-3.5489,-3.9388,-3.9388,-3.9388,-3.9388,-3.9388,-3.9388,-3.9388,-3.9388,-3.9388,-3.9388,-3.9388,-3.9388,-3.9388,-3.9388,-3.9388,-3.9388,-3.9388,-3.9388,-3.9388,-3.9388,-3.9388,-3.9388,-3.9388,-3.9388,-3.9388,-3.9388,-3.9388,-3.9388,-3.9388,-3.9388,-3.9388,-3.9388,-3.9388,-3.9388,-3.9388,-3.9388,-3.9388,-3.9388,-3.9388,-3.9388,-3.9388,-3.9388,-3.9388,-3.9388,-3.9388,-3.9388,-3.9388,-3.9388,-3.9388,-3.9388,-3.9388,-3.9388,-3.9388,-3.9388,-3.9388,-3.9388,-3.9388,-3.9388,-3.9388,-3.9388,-3.9388,-3.8985,-3.8147,-3.6658,-3.5033,-3.4361,-3.4211,-3.3616,-3.3101,-3.3136,-3.3206,-3.3206,-3.3255,-3.3276,-3.3192,-3.3052,-3.2947,-3.2947,-3.27,-3.2236,-3.2033,-3.201,-3.1586,-3.0996,-3.0495,-2.9921,-2.9856,-2.9998,-3.0595,-3.118,-3.2536,-3.4109,-3.4192,-3.3973,-3.4375,-3.492,-3.5067,-3.5133,-3.5392,-3.5489,-3.5489,-3.5489,-3.5489,-3.5489,-3.5489,-3.5489,-3.5489,-3.5489,-3.5489,-3.5489,-3.5489,-3.5489,-3.5489,-3.5489,-3.5489,-3.9388,-3.9388,-3.9388,-3.9388,-3.9388,-3.9388,-3.9388,-3.9388,-3.9388,-3.9388,-3.9388,-3.9388,-3.9388,-3.9388,-3.9388,-3.9388,-3.9388,-3.9388,-3.9388,-3.9388,-3.9388,-3.9388,-3.9388,-3.9388,-3.9388,-3.9388,-3.9388,-3.9388,-3.9388,-3.9388,-3.9388,-3.9388,-3.9388,-3.9388,-3.9388,-3.9388,-3.9388,-3.9388,-3.9388,-3.9388,-3.9388,-3.9388,-3.9388,-3.9388,-3.9388,-3.9388,-3.9388,-3.9388,-3.9388,-3.9388,-3.9388,-3.9388,-3.9388,-3.9388,-3.9388,-3.9388,-3.9388,-3.9388,-3.9388,-3.9388,-3.9343,-3.8985,-3.8133,-3.6798,-3.5344,-3.5279,-3.5246,-3.4953,-3.4259,-3.4341,-3.4509,-3.4624,-3.4341,-3.4341,-3.4211,-3.3993,-3.3925,-3.3925,-3.3636,-3.3017,-3.2806,-3.2784,-3.2536,-3.1938,-3.102,-3.0457,-3.0305,-3.0444,-3.1756,-3.2571,-3.3719,-3.4839,-3.5133,-3.5166,-3.5198,-3.5392,-3.5311,-3.5311,-3.5424,-3.5489,-3.5489,-3.5489,-3.5489,-3.5489,-3.5489,-3.5489,-3.5489,-3.5489,-3.5489,-3.5489,-3.5489,-3.5489,-3.5489,-3.5489,-3.5489,-3.9388,-3.9388,-3.9388,-3.9388,-3.9388,-3.9388,-3.9388,-3.9388,-3.9388,-3.9388,-3.9388,-3.9388,-3.9388,-3.9388,-3.9388,-3.9388,-3.9388,-3.9388,-3.9388,-3.9388,-3.9388,-3.9388,-3.9388,-3.9388,-3.9388,-3.9388,-3.9388,-3.9388,-3.9388,-3.9388,-3.9388,-3.9388,-3.9388,-3.9388,-3.9388,-3.9388,-3.9388,-3.9388,-3.9388,-3.9388,-3.9388,-3.9388,-3.9388,-3.9388,-3.9388,-3.9388,-3.9388,-3.9388,-3.9388,-3.9388,-3.9388,-3.9388,-3.9388,-3.9388,-3.9388,-3.9388,-3.9388,-3.9388,-3.9388,-3.9313,-3.908,-3.8197,-3.7599,-3.6881,-3.5729,-3.5519,-3.5504,-3.5311,-3.5166,-3.5133,-3.5198,-3.5133,-3.5067,-3.5279,-3.5198,-3.4905,-3.4791,-3.4725,-3.4643,-3.4075,-3.3774,-3.3622,-3.3276,-3.2876,-3.1852,-3.097,-3.0895,-3.1106,-3.2415,-3.3533,-3.4509,-3.5133,-3.5424,-3.5489,-3.5489,-3.5489,-3.5489,-3.5489,-3.5489,-3.5489,-3.5489,-3.5489,-3.5489,-3.5489,-3.5489,-3.5489,-3.5489,-3.5489,-3.5489,-3.5489,-3.5489,-3.5489,-3.5489,-3.5489,-3.5489,-3.9388,-3.9388,-3.9388,-3.9388,-3.9388,-3.9388,-3.9388,-3.9388,-3.9388,-3.9388,-3.9388,-3.9388,-3.9388,-3.9388,-3.9388,-3.9388,-3.9388,-3.9388,-3.9388,-3.9388,-3.9388,-3.9388,-3.9388,-3.9388,-3.9388,-3.9388,-3.9388,-3.9388,-3.9388,-3.9388,-3.9388,-3.9388,-3.9388,-3.9388,-3.9388,-3.9388,-3.9388,-3.9388,-3.9388,-3.9388,-3.9388,-3.9388,-3.9388,-3.9388,-3.9388,-3.9388,-3.9388,-3.9388,-3.9388,-3.9388,-3.9388,-3.9388,-3.9388,-3.9388,-3.9388,-3.9388,-3.9388,-3.9388,-3.9388,-3.9284,-3.8886,-3.8123,-3.7584,-3.6881,-3.6118,-3.5639,-3.5504,-3.5489,-3.5457,-3.5489,-3.5489,-3.5392,-3.5344,-3.5424,-3.5424,-3.5231,-3.5246,-3.5198,-3.5279,-3.5133,-3.4824,-3.4495,-3.4177,-3.3754,-3.282,-3.2141,-3.2285,-3.2429,-3.3031,-3.3993,-3.4773,-3.5246,-3.5457,-3.5489,-3.5489,-3.5489,-3.5489,-3.5489,-3.5489,-3.5489,-3.5489,-3.5489,-3.5489,-3.5489,-3.5489,-3.5489,-3.5489,-3.5489,-3.5489,-3.5489,-3.5489,-3.5489,-3.5489,-3.5489,-3.5489,-3.9388,-3.9388,-3.9388,-3.9388,-3.9388,-3.9388,-3.9388,-3.9388,-3.9388,-3.9388,-3.9388,-3.9388,-3.9388,-3.9388,-3.9388,-3.9388,-3.9388,-3.9388,-3.9388,-3.9388,-3.9388,-3.9388,-3.9388,-3.9388,-3.9388,-3.9388,-3.9388,-3.9388,-3.9388,-3.9388,-3.9388,-3.9388,-3.9388,-3.9388,-3.9388,-3.9388,-3.9388,-3.9388,-3.9388,-3.9388,-3.9388,-3.9388,-3.9388,-3.9388,-3.9388,-3.9388,-3.9388,-3.9388,-3.9388,-3.9388,-3.9388,-3.9388,-3.9388,-3.9388,-3.9388,-3.9388,-3.9388,-3.9388,-3.9388,-3.9388,-3.899,-3.8302,-3.7734,-3.7045,-3.6447,-3.5923,-3.5489,-3.5489,-3.5489,-3.5489,-3.5489,-3.5489,-3.5489,-3.5489,-3.5489,-3.5489,-3.5489,-3.5489,-3.5489,-3.5489,-3.5489,-3.5377,-3.5067,-3.4624,-3.3719,-3.3359,-3.3636,-3.3822,-3.391,-3.4428,-3.5133,-3.5311,-3.5489,-3.5489,-3.5489,-3.5489,-3.5489,-3.5489,-3.5489,-3.5489,-3.5489,-3.5489,-3.5489,-3.5489,-3.5489,-3.5489,-3.5489,-3.5489,-3.5489,-3.5489,-3.5489,-3.5489,-3.5489,-3.5489,-3.5504,-3.9388,-3.9388,-3.9388,-3.9388,-3.9388,-3.9388,-3.9388,-3.9388,-3.9388,-3.9388,-3.9388,-3.9388,-3.9388,-3.9388,-3.9388,-3.9388,-3.9388,-3.9388,-3.9388,-3.9388,-3.9388,-3.9388,-3.9388,-3.9388,-3.9388,-3.9388,-3.9388,-3.9388,-3.9388,-3.9388,-3.9388,-3.9388,-3.9388,-3.9388,-3.9388,-3.9388,-3.9388,-3.9388,-3.9388,-3.9388,-3.9388,-3.9388,-3.9388,-3.9388,-3.9388,-3.9388,-3.9388,-3.9388,-3.9388,-3.9388,-3.9388,-3.9388,-3.9388,-3.9388,-3.9388,-3.9388,-3.9388,-3.9388,-3.9388,-3.9343,-3.9095,-3.8482,-3.7853,-3.721,-3.6537,-3.5893,-3.5609,-3.5489,-3.5489,-3.5489,-3.5489,-3.5489,-3.5489,-3.5489,-3.5489,-3.5489,-3.5489,-3.5489,-3.5489,-3.5489,-3.5489,-3.5489,-3.5311,-3.518,-3.4476,-3.4158,-3.4327,-3.4143,-3.4129,-3.4758,-3.5392,-3.5424,-3.5489,-3.5489,-3.5489,-3.5489,-3.5489,-3.5489,-3.5489,-3.5489,-3.5489,-3.5489,-3.5489,-3.5489,-3.5489,-3.5489,-3.5552,-3.5599,-3.5504,-3.5489,-3.5961,-3.5961,-3.5851,-3.5709,-3.5504,-3.9388,-3.9388,-3.9388,-3.9388,-3.9388,-3.9388,-3.9388,-3.9388,-3.9388,-3.9388,-3.9388,-3.9388,-3.9388,-3.9388,-3.9388,-3.9388,-3.9388,-3.9388,-3.9388,-3.9388,-3.9388,-3.9388,-3.9388,-3.9388,-3.9388,-3.9388,-3.9388,-3.9388,-3.9388,-3.9388,-3.9388,-3.9388,-3.9388,-3.9388,-3.9388,-3.9388,-3.9388,-3.9388,-3.9388,-3.9388,-3.9388,-3.9388,-3.9388,-3.9388,-3.9388,-3.9388,-3.9388,-3.9388,-3.9388,-3.9388,-3.9388,-3.9388,-3.9388,-3.9388,-3.9388,-3.9388,-3.9388,-3.9388,-3.9388,-3.9388,-3.9185,-3.8856,-3.8123,-3.7479,-3.6851,-3.6282,-3.5818,-3.5609,-3.5519,-3.5489,-3.5489,-3.5489,-3.5489,-3.5489,-3.5489,-3.5489,-3.5489,-3.5489,-3.5489,-3.5489,-3.5489,-3.5489,-3.5489,-3.5457,-3.5198,-3.5067,-3.4953,-3.4658,-3.4428,-3.4986,-3.5489,-3.5489,-3.5489,-3.5489,-3.5489,-3.5489,-3.5489,-3.5489,-3.5489,-3.5489,-3.5489,-3.5489,-3.5489,-3.5489,-3.5489,-3.5537,-3.5662,-3.5724,-3.6133,-3.6683,-3.7263,-3.7012,-3.6385,-3.6194,-3.6112,-3.9388,-3.9388,-3.9388,-3.9388,-3.9388,-3.9388,-3.9388,-3.9388,-3.9388,-3.9388,-3.9388,-3.9388,-3.9388,-3.9388,-3.9388,-3.9388,-3.9388,-3.9388,-3.9388,-3.9388,-3.9388,-3.9388,-3.9388,-3.9388,-3.9388,-3.9388,-3.9388,-3.9388,-3.9388,-3.9388,-3.9388,-3.9388,-3.9388,-3.9388,-3.9388,-3.9388,-3.9388,-3.9388,-3.9388,-3.9388,-3.9388,-3.9388,-3.9388,-3.9388,-3.9388,-3.9388,-3.9388,-3.9388,-3.9388,-3.9388,-3.9388,-3.9388,-3.9388,-3.9388,-3.9388,-3.9388,-3.9388,-3.9388,-3.9388,-3.9388,-3.9373,-3.917,-3.8766,-3.8138,-3.7389,-3.6656,-3.6088,-3.5684,-3.5489,-3.5489,-3.5489,-3.5489,-3.5489,-3.5489,-3.5489,-3.5489,-3.5489,-3.5489,-3.5489,-3.5489,-3.5489,-3.5489,-3.5489,-3.5489,-3.5489,-3.5424,-3.5246,-3.5246,-3.5052,-3.5085,-3.5489,-3.5489,-3.5489,-3.5489,-3.5489,-3.5489,-3.5489,-3.5489,-3.5489,-3.5489,-3.5489,-3.5489,-3.5489,-3.5489,-3.5489,-3.5552,-3.5614,-3.6338,-3.7278,-3.781,-3.8169,-3.8403,-3.7904,-3.7477,-3.7393,-3.9388,-3.9388,-3.9388,-3.9388,-3.9388,-3.9388,-3.9388,-3.9388,-3.9388,-3.9388,-3.9388,-3.9388,-3.9388,-3.9388,-3.9388,-3.9388,-3.9388,-3.9388,-3.9388,-3.9388,-3.9388,-3.9388,-3.9388,-3.9388,-3.9388,-3.9388,-3.9388,-3.9388,-3.9388,-3.9388,-3.9388,-3.9388,-3.9388,-3.9388,-3.9388,-3.9388,-3.9388,-3.9388,-3.9388,-3.9388,-3.9388,-3.9388,-3.9388,-3.9388,-3.9388,-3.9388,-3.9388,-3.9388,-3.9388,-3.9388,-3.9388,-3.9388,-3.9388,-3.9388,-3.9388,-3.9388,-3.9388,-3.9388,-3.9388,-3.9388,-3.9388,-3.9373,-3.914,-3.8467,-3.7659,-3.6866,-3.6252,-3.5789,-3.5519,-3.5489,-3.5489,-3.5489,-3.5489,-3.5489,-3.5489,-3.5489,-3.5489,-3.5489,-3.5489,-3.5489,-3.5489,-3.5489,-3.5489,-3.5489,-3.5489,-3.5489,-3.5489,-3.5489,-3.5489,-3.5489,-3.5489,-3.5489,-3.5489,-3.5489,-3.5489,-3.5489,-3.5489,-3.5489,-3.5489,-3.5489,-3.5489,-3.5489,-3.5489,-3.5554,-3.5604,-3.5572,-3.5504,-3.6653,-3.8386,-3.8419,-3.8699,-3.9182,-3.9432,-3.9015,-3.8889,-3.9388,-3.9388,-3.9388,-3.9388,-3.9388,-3.9388,-3.9388,-3.9388,-3.9388,-3.9388,-3.9388,-3.9388,-3.9388,-3.9388,-3.9388,-3.9388,-3.9388,-3.9388,-3.9388,-3.9388,-3.9388,-3.9388,-3.9388,-3.9388,-3.9388,-3.9388,-3.9388,-3.9388,-3.9388,-3.9388,-3.9388,-3.9388,-3.9388,-3.9388,-3.9388,-3.9388,-3.9388,-3.9388,-3.9388,-3.9388,-3.9388,-3.9388,-3.9388,-3.9388,-3.9388,-3.9388,-3.9388,-3.9388,-3.9388,-3.9388,-3.9388,-3.9388,-3.9388,-3.9388,-3.9388,-3.9388,-3.9388,-3.9388,-3.9388,-3.9388,-3.9388,-3.9313,-3.9155,-3.8407,-3.7793,-3.7075,-3.6357,-3.5759,-3.5609,-3.5489,-3.5489,-3.5489,-3.5489,-3.5489,-3.5489,-3.5489,-3.5489,-3.5489,-3.5489,-3.5489,-3.5489,-3.5489,-3.5489,-3.5489,-3.5489,-3.5489,-3.5489,-3.5489,-3.5489,-3.5489,-3.5489,-3.5489,-3.5489,-3.5489,-3.5489,-3.5489,-3.5489,-3.5489,-3.5489,-3.5489,-3.5489,-3.5489,-3.5489,-3.5636,-3.5799,-3.5953,-3.6297,-3.8058,-3.9542,-3.9596,-4.0208,-4.1357,-4.152,-4.0677,-4.0712,-3.9194,-3.9179,-3.9284,-3.9298,-3.9388,-3.9388,-3.9388,-3.9388,-3.9388,-3.9388,-3.9388,-3.9388,-3.9388,-3.9388,-3.9388,-3.9388,-3.9388,-3.9388,-3.9388,-3.9388,-3.9388,-3.9388,-3.9388,-3.9388,-3.9388,-3.9388,-3.9388,-3.9388,-3.9388,-3.9388,-3.9388,-3.9388,-3.9388,-3.9388,-3.9388,-3.9388,-3.9388,-3.9388,-3.9388,-3.9388,-3.9388,-3.9388,-3.9388,-3.9388,-3.9388,-3.9388,-3.9388,-3.9388,-3.9388,-3.9388,-3.9388,-3.9388,-3.9388,-3.9388,-3.9388,-3.9388,-3.9388,-3.9388,-3.9388,-3.9388,-3.932,-3.911,-3.8751,-3.8063,-3.7464,-3.7075,-3.6387,-3.5759,-3.5519,-3.5489,-3.5489,-3.5489,-3.5489,-3.5489,-3.5489,-3.5489,-3.5489,-3.5489,-3.5489,-3.5489,-3.5489,-3.5489,-3.5489,-3.5489,-3.5489,-3.5489,-3.5489,-3.5489,-3.5489,-3.5489,-3.5489,-3.5489,-3.5489,-3.5489,-3.5489,-3.5489,-3.5489,-3.5489,-3.5489,-3.5489,-3.5489,-3.5489,-3.5537,-3.5799,-3.6164,-3.6909,-3.7669,-3.9257,-4.0616,-4.1471,-4.2319,-4.3838,-4.37,-4.2443,-4.2351,-3.7898,-3.7943,-3.8422,-3.8916,-3.9358,-3.9388,-3.9358,-3.9388,-3.9388,-3.9358,-3.9388,-3.9373,-3.9388,-3.9388,-3.9388,-3.9388,-3.9388,-3.9388,-3.9388,-3.9388,-3.9388,-3.9388,-3.9388,-3.9388,-3.9388,-3.9388,-3.9388,-3.9388,-3.9388,-3.9388,-3.9388,-3.9388,-3.9388,-3.9388,-3.9388,-3.9388,-3.9388,-3.9388,-3.9388,-3.9388,-3.9388,-3.9388,-3.9388,-3.9388,-3.9388,-3.9388,-3.9388,-3.9388,-3.9388,-3.9388,-3.9388,-3.9388,-3.9388,-3.9388,-3.9388,-3.9388,-3.9388,-3.9388,-3.9388,-3.9343,-3.9215,-3.8811,-3.8347,-3.7659,-3.715,-3.6866,-3.6432,-3.5818,-3.5489,-3.5489,-3.5489,-3.5489,-3.5489,-3.5489,-3.5489,-3.5489,-3.5489,-3.5489,-3.5489,-3.5489,-3.5489,-3.5489,-3.5489,-3.5489,-3.5489,-3.5489,-3.5489,-3.5489,-3.5489,-3.5489,-3.5489,-3.5489,-3.5489,-3.5489,-3.5489,-3.5489,-3.5489,-3.5489,-3.5489,-3.5489,-3.5489,-3.5668,-3.5799,-3.6196,-3.6646,-3.7586,-3.8663,-3.994,-4.1239,-4.2505,-4.3342,-4.4367,-4.4598,-4.3655,-4.3858,-3.7404,-3.7464,-3.7793,-3.8167,-3.8482,-3.8527,-3.8527,-3.8571,-3.8826,-3.896,-3.9035,-3.9224,-3.9388,-3.9388,-3.9388,-3.9388,-3.9388,-3.9388,-3.9388,-3.9388,-3.9388,-3.9388,-3.9388,-3.9388,-3.9388,-3.9388,-3.9388,-3.9388,-3.9388,-3.9388,-3.9388,-3.9388,-3.9388,-3.9388,-3.9388,-3.9388,-3.9388,-3.9388,-3.9388,-3.9388,-3.9388,-3.9388,-3.9388,-3.9388,-3.9388,-3.9388,-3.9388,-3.9388,-3.9388,-3.9388,-3.9388,-3.9388,-3.9388,-3.9388,-3.9388,-3.9388,-3.9388,-3.9388,-3.9388,-3.9269,-3.905,-3.8571,-3.7988,-3.7345,-3.6731,-3.6417,-3.6043,-3.5519,-3.5504,-3.5489,-3.5489,-3.5489,-3.5489,-3.5489,-3.5489,-3.5489,-3.5489,-3.5489,-3.5489,-3.5489,-3.5489,-3.5489,-3.5489,-3.5489,-3.5489,-3.5489,-3.5489,-3.5489,-3.5489,-3.5489,-3.5489,-3.5489,-3.5489,-3.5489,-3.5489,-3.5489,-3.5489,-3.5489,-3.5489,-3.5522,-3.5587,-3.5863,-3.6165,-3.6646,-3.7421,-3.856,-3.9687,-4.0826,-4.2126,-4.3451,-4.4035,-4.4553,-4.4598,-4.4598,-4.4525,-3.718,-3.7285,-3.7285,-3.736,-3.7404,-3.7419,-3.7464,-3.7539,-3.8018,-3.8272,-3.8362,-3.896,-3.9239,-3.9373,-3.9388,-3.9388,-3.9388,-3.9388,-3.9388,-3.9388,-3.9388,-3.9388,-3.9388,-3.9388,-3.9388,-3.9388,-3.9388,-3.9388,-3.9388,-3.9388,-3.9388,-3.9388,-3.9388,-3.9388,-3.9388,-3.9388,-3.9388,-3.9388,-3.9388,-3.9388,-3.9388,-3.9388,-3.9388,-3.9388,-3.9388,-3.9388,-3.9388,-3.9388,-3.9388,-3.9388,-3.9388,-3.9388,-3.9388,-3.9388,-3.9388,-3.9388,-3.9388,-3.9388,-3.9358,-3.923,-3.8811,-3.8287,-3.7659,-3.703,-3.6402,-3.5983,-3.5609,-3.5519,-3.5504,-3.5489,-3.5489,-3.5489,-3.5489,-3.5489,-3.5489,-3.5489,-3.5489,-3.5489,-3.5489,-3.5489,-3.5489,-3.5489,-3.5489,-3.5489,-3.5489,-3.5489,-3.5489,-3.5489,-3.5489,-3.5489,-3.5489,-3.5489,-3.5489,-3.5489,-3.5489,-3.5489,-3.5489,-3.5489,-3.5489,-3.5554,-3.5701,-3.6086,-3.6584,-3.7247,-3.8101,-3.9177,-4.0414,-4.1587,-4.2947,-4.4125,-4.439,-4.4598,-4.4598,-4.4598,-4.4598,-3.6193,-3.6671,-3.6656,-3.6941,-3.733,-3.7375,-3.7404,-3.7385,-3.7509,-3.7599,-3.7778,-3.8287,-3.8841,-3.9373,-3.9388,-3.9388,-3.9388,-3.9388,-3.9388,-3.9388,-3.9388,-3.9388,-3.9388,-3.9388,-3.9388,-3.9388,-3.9388,-3.9388,-3.9388,-3.9388,-3.9388,-3.9388,-3.9388,-3.9388,-3.9388,-3.9388,-3.9388,-3.9388,-3.9388,-3.9388,-3.9388,-3.9388,-3.9388,-3.9388,-3.9388,-3.9388,-3.9388,-3.9388,-3.9388,-3.9388,-3.9388,-3.9388,-3.9388,-3.9388,-3.9388,-3.9388,-3.9388,-3.9298,-3.9209,-3.8931,-3.8452,-3.7674,-3.7045,-3.6507,-3.6028,-3.5729,-3.5504,-3.5504,-3.5489,-3.5489,-3.5489,-3.5489,-3.5489,-3.5489,-3.5489,-3.5489,-3.5489,-3.5489,-3.5489,-3.5489,-3.5489,-3.5489,-3.5489,-3.5489,-3.5489,-3.5489,-3.5489,-3.5489,-3.5489,-3.5489,-3.5489,-3.5489,-3.5489,-3.5489,-3.5489,-3.5489,-3.5489,-3.5489,-3.5554,-3.5718,-3.5975,-3.6353,-3.6918,-3.7758,-3.8621,-3.9638,-4.0906,-4.2126,-4.3074,-4.4062,-4.4384,-4.4598,-4.4598,-4.4598,-4.4598]},{"header":{"parameterUnit":"m.s-1","parameterCategory":1,"la1":31.0,"la2":29.5877,"lo1":-88.7671,"lo2":-86.6584,"dy":0.0162,"dx":0.0185,"nx":115,"ny":88,"refTime":"2023-06-26T18:00:00:Z","depth":0,"parameterNumber":3,"parameterNumberName":"V-component_of_WINDS"},"data":[0.0,0.0,0.0,0.0,0.0,0.0,0.0,0.0,0.0,0.0,0.0,0.0,0.0,0.0,0.0,0.0,0.0,0.0,0.0,0.0,0.0,0.0,0.0,0.0,0.0,0.0,0.0,0.0,0.0,0.0,0.0,0.0,0.0,0.0,0.0,0.0,0.0,0.0,0.0,0.0,0.0,0.0,0.0,0.0,0.0,0.0,0.0,0.0,0.0,0.0,0.0,0.0,0.0,0.0,0.0,0.0,0.0,0.0,0.0,0.0,0.0,0.0,0.0,0.0,0.0,0.0,0.0,0.0,0.0,0.0,0.0,0.0,0.0,0.0,0.0,0.0,0.0,0.0,0.0,0.0,0.0,0.0,0.0,0.0,0.0,0.0,0.0,0.0,0.0,0.0,0.0,0.0,0.0,0.0,0.0,0.0,0.0,0.0,0.0,0.0,0.0,0.0,0.0,0.0,0.0,0.0,0.0,0.0,0.0,0.0,0.0,0.0,0.0,0.0,0.0,0.0,0.0,0.0,0.0,0.0,0.0,0.0,0.0,0.0,0.0,0.0,0.0,0.0,0.0,0.0,0.0,0.0,0.0,0.0,0.0,0.0,0.0,0.0,0.0,0.0,0.0,0.0,0.0,0.0,0.0,0.0,0.0,0.0,0.0,0.0,0.0,0.0,0.0,0.0,0.0,0.0,0.0,0.0,0.0,0.0,0.0,0.0,0.0,0.0,0.0,0.0,0.0,0.0,0.0,0.0,0.0,0.0,0.0,0.0,0.0,0.0,0.0,0.0,0.0,0.0,0.0,0.0,0.0,0.0,0.0,0.0,0.0,0.0,0.0,0.0,0.0,0.0,0.0,0.0,0.0,0.0,0.0,0.0,0.0,0.0,0.0,0.0,0.0,0.0,0.0,0.0,0.0,0.0,0.0,0.0,0.0,0.0,0.0,0.0,0.0,0.0,0.0,0.0,0.0,0.0,0.0,0.0,0.0,0.0,0.0,0.0,0.0,0.0,0.0,0.0,0.0,0.0,0.0,0.0,0.0,0.0,0.0,0.0,0.0,0.0,0.0,0.0,0.0,0.0,0.0,0.0,0.0,0.0,0.0,0.0,0.0,0.0,0.0,0.0,0.0,0.0,0.0,0.0,0.0,0.0,0.0,0.0,0.0,0.0,0.0,0.0,0.0,0.0,0.0,0.0,0.0,0.0,0.0,0.0,0.0,0.0,0.0,0.0,0.0,0.0,0.0,0.0,0.0,0.0,0.0,0.0,0.0,0.0,0.0,0.0,0.0,0.0,0.0,0.0,0.0,0.0,0.0,0.0,0.0,0.0,0.0,0.0,0.0,0.0,0.0,0.0,0.0,0.0,0.0,0.0,0.0,0.0,0.0,0.0,0.0,0.0,0.0,0.0,0.0,0.0,0.0,0.0,0.0,0.0,0.0,0.0,0.0,0.0,0.0,0.0,0.0,0.0,0.0,0.0,0.0,0.0,0.0,0.0,0.0,0.0,0.0,0.0,0.0,0.0,0.0,0.0,0.0,0.0,0.0,0.0,0.0,0.0,0.0,0.0,0.0,0.0,0.0,0.0,0.0,0.0,0.0,0.0,0.0,0.0,0.0,0.0,0.0,0.0,0.0,0.0,0.0,0.0,0.0,0.0,0.0,0.0,0.0,0.0,0.0,0.0,0.0,0.0,0.0,0.0,0.0,0.0,0.0,0.0,0.0,0.0,0.0,0.0,0.0,0.0,0.0,0.0,0.0,0.0,0.0,0.0,0.0,0.0,0.0,0.0,0.0,0.0,0.0,0.0,0.0,0.0,0.0,0.0,0.0,0.0,0.0,0.0,0.0,0.0,0.0,0.0,0.0,0.0,0.0,0.0,0.0,0.0,0.0,0.0,0.0,0.0,0.0,0.0,0.0,0.0,0.0,0.0,0.0,0.0,0.0,0.0,0.0,0.0,0.0,0.0,0.0,0.0,0.0,0.0,0.0,0.0,0.0,0.0,0.0,0.0,0.0,0.0,0.0,0.0,0.0,0.0,0.0,0.0,0.0,0.0,0.0,0.0,0.0,0.0,0.0,0.0,0.0,0.0,0.0,0.0,0.0,0.0,0.0,0.0,0.0,0.0,0.0,0.0,0.0,0.0,0.0,0.0,0.0,0.0,0.0,0.0,0.0,0.0,0.0,0.0,0.0,0.0,0.0,0.0,0.0,0.0,0.0,0.0,0.0,0.0,0.0,0.0,0.0,0.0,0.0,0.0,0.0,0.0,0.0,0.0,0.0,0.0,0.0,0.0,0.0,0.0,0.0,0.0,0.0,0.0,0.0,0.0,0.0,0.0,0.0,0.0,0.0,0.0,0.0,0.0,0.0,0.0,0.0,0.0,0.0,0.0,0.0,0.0,0.0,0.0,0.0,0.0,0.0,0.0,0.0,0.0,0.0,0.0,0.0,0.0,0.0,0.0,0.0,0.0,0.0,0.0,0.0,0.0,0.0,0.0,0.0,0.0,0.0,0.0,0.0,0.0,0.0,0.0,0.0,0.0,0.0,0.0,0.0,0.0,0.0,0.0,0.0,0.0,0.0,0.0,0.0,0.0,0.0,0.0,0.0,0.0,0.0,0.0,0.0,0.0,0.0,0.0,0.0,0.0,0.0,0.0,0.0,0.0,0.0,0.0,0.0,0.0,0.0,0.0,0.0,0.0,0.0,0.0,0.0,0.0,0.0,0.0,0.0,0.0,0.0,0.0,0.0,0.0,0.0,0.0,0.0,0.0,0.0,0.0,0.0,0.0,0.0,0.0,0.0,0.0,0.0,0.0,0.0,0.0,0.0,0.0,0.0,0.0,0.0,0.0,0.0,0.0,0.0,0.0,0.0,0.0,0.0,0.0,0.0,0.0,0.0,0.0,0.0,0.0,0.0,0.0,0.0,0.0,0.0,0.0,0.0,0.0,0.0,0.0,0.0,0.0,0.0,0.0,0.0,0.0,0.0,0.0,0.0,0.0,0.0,0.0,0.0,0.0,0.0,0.0,0.0,0.0,0.0,0.0,0.0,0.0,0.0,0.0,0.0,0.0,0.0,0.0,0.0,0.0,0.0,0.0,0.0,0.0,0.0,0.0,0.0,0.0,0.0,0.0,0.0,0.0,0.0,0.0,0.0,0.0,0.0,0.0,0.0,0.0,0.0,0.0,0.0,0.0,0.0,0.0,0.0,0.0,0.0,0.0,0.0,0.0,0.0,0.0,0.0,0.0,0.0,0.0,0.0,0.0,0.0,0.0,0.0,0.0,0.0,0.0,0.0,0.0,0.0,0.0,0.0,0.0,0.0,0.0,0.0,0.0,0.0,0.0,0.0,0.0,0.0,0.0,0.0,0.0,0.0,0.0,0.0,0.0,0.0,0.0,0.0,0.0,0.0,0.0,0.0,0.0,0.0,0.0,0.0,0.0,0.0,0.0,0.0,0.0,0.0,0.0,0.0,0.0,0.0,0.0,0.0,0.0,0.0,0.0,0.0,0.0,0.0,0.0,0.0,0.0,0.0,0.0,0.0,0.0,0.0,0.0,0.0,0.0,0.0,0.0,0.0,0.0,0.0,0.0,0.0,0.0,0.0,0.0,0.0,0.0,0.0,0.0,0.0,0.0,0.0,0.0,0.0,0.0,0.0,0.0,0.0,0.0,0.0,0.0,0.0,0.0,0.0,0.0,0.0,0.0,0.0,0.0,0.0,0.0,0.0,0.0,0.0,0.0,0.0,0.0,0.0,0.0,0.0,0.0,0.0,0.0,0.0,0.0,0.0,0.0,0.0,0.0,0.0,0.0,0.0,0.0,0.0,0.0,0.0,0.0,0.0,0.0,0.0,0.0,0.0,0.0,0.0,0.0,0.0,0.0,0.0,0.0,0.0,0.0,0.0,0.0,0.0,0.0,0.0,0.0,0.0,0.0,0.0,0.0,0.0,0.0,0.0,0.0,0.0,0.0,0.0,0.0,0.0,0.0,0.0,0.0,0.0,0.0,0.0,0.0,0.0,0.0,0.0,0.0,0.0,0.0,0.0,0.0,0.0,0.0,0.0,0.0,0.0,0.0,0.0,0.0,0.0,0.0,0.0,0.0,0.0,0.0,0.0,0.0,0.0,0.0,0.0,0.0,0.0,0.0,0.0,0.0,0.0,0.0,0.0,0.0,0.0,0.0,0.0,0.0,0.0,0.0,0.0,0.0,0.0,0.0,0.0,0.0,0.0,0.0,0.0,0.0,0.0,0.0,0.0,0.0,0.0,0.0,-1.7156,0.0,0.0,0.0,0.0,0.0,0.0,0.0,0.0,0.0,0.0,0.0,0.0,0.0,0.0,0.0,0.0,0.0,0.0,0.0,0.0,0.0,0.0,0.0,0.0,0.0,0.0,0.0,0.0,0.0,0.0,0.0,0.0,0.0,0.0,0.0,0.0,0.0,0.0,0.0,0.0,0.0,0.0,0.0,0.0,0.0,0.0,0.0,0.0,0.0,0.0,0.0,0.0,0.0,0.0,0.0,0.0,0.0,0.0,0.0,0.0,0.0,0.0,0.0,0.0,0.0,0.0,0.0,0.0,0.0,0.0,0.0,0.0,0.0,0.0,0.0,0.0,0.0,0.0,0.0,0.0,0.0,0.0,0.0,0.0,0.0,0.0,0.0,0.0,0.0,0.0,0.0,0.0,0.0,0.0,0.0,0.0,0.0,0.0,0.0,0.0,0.0,0.0,0.0,0.0,0.0,0.0,0.0,0.0,0.0,0.0,-1.6513,-1.6525,-1.7591,-1.8049,-1.7726,0.0,0.0,0.0,0.0,0.0,0.0,0.0,0.0,0.0,0.0,0.0,0.0,0.0,0.0,0.0,0.0,0.0,0.0,0.0,0.0,0.0,0.0,0.0,0.0,0.0,0.0,0.0,0.0,0.0,0.0,0.0,0.0,0.0,0.0,0.0,0.0,0.0,0.0,0.0,0.0,0.0,0.0,0.0,0.0,0.0,0.0,0.0,0.0,0.0,0.0,0.0,0.0,0.0,0.0,0.0,0.0,0.0,0.0,0.0,0.0,0.0,0.0,0.0,0.0,0.0,0.0,0.0,0.0,0.0,0.0,0.0,0.0,0.0,0.0,0.0,0.0,0.0,0.0,0.0,0.0,0.0,0.0,0.0,0.0,0.0,0.0,0.0,0.0,0.0,0.0,0.0,0.0,0.0,0.0,0.0,0.0,0.0,0.0,0.0,0.0,0.0,0.0,0.0,0.0,0.0,0.0,0.0,0.0,0.0,0.0,0.0,0.0,-1.7401,-1.7881,-1.8093,0.0,0.0,0.0,0.0,0.0,0.0,0.0,0.0,0.0,0.0,0.0,0.0,0.0,0.0,0.0,0.0,0.0,0.0,0.0,0.0,0.0,0.0,0.0,0.0,0.0,0.0,0.0,0.0,0.0,0.0,0.0,0.0,0.0,0.0,0.0,0.0,0.0,0.0,0.0,0.0,0.0,0.0,0.0,0.0,0.0,0.0,0.0,0.0,0.0,0.0,0.0,0.0,0.0,0.0,0.0,0.0,0.0,0.0,0.0,0.0,0.0,0.0,0.0,0.0,0.0,0.0,0.0,0.0,0.0,0.0,0.0,0.0,0.0,0.0,0.0,0.0,0.0,0.0,0.0,0.0,0.0,0.0,0.0,0.0,0.0,0.0,0.0,0.0,0.0,0.0,0.0,0.0,0.0,0.0,0.0,0.0,0.0,0.0,0.0,0.0,0.0,0.0,0.0,0.0,0.0,0.0,0.0,0.0,0.0,0.0,-1.6773,-1.7287,-1.6849,0.0,-1.7706,0.0,0.0,0.0,0.0,0.0,0.0,0.0,0.0,0.0,0.0,0.0,0.0,0.0,0.0,0.0,0.0,0.0,0.0,0.0,0.0,0.0,0.0,0.0,0.0,0.0,0.0,0.0,0.0,0.0,0.0,0.0,0.0,0.0,0.0,0.0,0.0,0.0,0.0,0.0,0.0,0.0,0.0,0.0,0.0,0.0,0.0,0.0,0.0,0.0,0.0,0.0,0.0,0.0,0.0,0.0,0.0,0.0,0.0,0.0,0.0,0.0,0.0,0.0,0.0,0.0,0.0,0.0,0.0,0.0,0.0,0.0,0.0,0.0,0.0,0.0,0.0,0.0,0.0,0.0,0.0,0.0,0.0,0.0,0.0,0.0,0.0,0.0,0.0,0.0,0.0,0.0,0.0,0.0,0.0,0.0,0.0,0.0,0.0,0.0,0.0,0.0,0.0,0.0,0.0,0.0,0.0,0.0,0.0,0.0,0.0,-1.6377,-1.7205,-1.684,-1.6766,0.0,0.0,0.0,0.0,0.0,0.0,0.0,0.0,0.0,0.0,0.0,0.0,0.0,0.0,0.0,0.0,0.0,0.0,0.0,0.0,0.0,0.0,0.0,0.0,0.0,0.0,0.0,0.0,0.0,0.0,0.0,0.0,0.0,0.0,0.0,0.0,0.0,0.0,0.0,0.0,0.0,0.0,0.0,0.0,0.0,0.0,0.0,0.0,0.0,0.0,0.0,0.0,0.0,0.0,0.0,0.0,0.0,0.0,0.0,0.0,0.0,0.0,0.0,0.0,0.0,0.0,0.0,0.0,0.0,0.0,0.0,0.0,0.0,0.0,0.0,0.0,0.0,0.0,0.0,0.0,0.0,0.0,0.0,0.0,0.0,0.0,0.0,0.0,0.0,0.0,0.0,0.0,0.0,0.0,0.0,0.0,0.0,0.0,0.0,0.0,0.0,0.0,0.0,0.0,0.0,0.0,0.0,0.0,0.0,0.0,-1.6315,-1.6197,-1.6543,-1.6651,-1.6678,-1.6546,0.0,0.0,0.0,0.0,0.0,0.0,0.0,0.0,0.0,0.0,0.0,0.0,0.0,0.0,0.0,0.0,0.0,0.0,0.0,0.0,0.0,0.0,0.0,0.0,0.0,0.0,0.0,0.0,0.0,0.0,0.0,0.0,0.0,0.0,0.0,0.0,0.0,0.0,0.0,0.0,0.0,0.0,0.0,0.0,0.0,0.0,0.0,0.0,0.0,0.0,0.0,0.0,0.0,0.0,0.0,0.0,0.0,0.0,0.0,0.0,0.0,0.0,0.0,0.0,0.0,0.0,0.0,0.0,0.0,0.0,0.0,0.0,0.0,0.0,0.0,0.0,0.0,0.0,0.0,0.0,0.0,0.0,0.0,0.0,0.0,0.0,0.0,0.0,0.0,0.0,0.0,0.0,0.0,0.0,0.0,0.0,0.0,0.0,0.0,0.0,0.0,0.0,0.0,0.0,0.0,0.0,0.0,0.0,-1.5784,-1.6563,-1.6409,-1.5284,-1.6056,-1.6564,0.0,0.0,0.0,0.0,0.0,0.0,0.0,0.0,0.0,0.0,0.0,0.0,0.0,0.0,0.0,0.0,0.0,0.0,0.0,0.0,0.0,0.0,0.0,0.0,0.0,0.0,0.0,0.0,0.0,0.0,0.0,0.0,0.0,0.0,0.0,0.0,0.0,0.0,0.0,0.0,0.0,0.0,0.0,0.0,0.0,0.0,0.0,0.0,0.0,0.0,0.0,0.0,0.0,0.0,0.0,0.0,0.0,0.0,0.0,0.0,0.0,0.0,0.0,0.0,0.0,0.0,0.0,0.0,0.0,0.0,0.0,0.0,0.0,0.0,0.0,0.0,0.0,0.0,0.0,0.0,0.0,0.0,0.0,0.0,0.0,0.0,0.0,0.0,0.0,0.0,0.0,0.0,0.0,0.0,0.0,0.0,0.0,0.0,0.0,0.0,0.0,0.0,0.0,0.0,0.0,0.0,0.0,0.0,0.0,-1.6563,-1.6669,-1.6143,-1.4991,-1.5477,-1.5835,0.0,0.0,0.0,0.0,0.0,0.0,0.0,0.0,0.0,0.0,0.0,0.0,0.0,0.0,0.0,0.0,0.0,0.0,0.0,0.0,0.0,0.0,0.0,0.0,0.0,0.0,0.0,0.0,0.0,0.0,0.0,0.0,0.0,0.0,0.0,0.0,0.0,0.0,0.0,0.0,0.0,0.0,0.0,0.0,0.0,0.0,0.0,0.0,0.0,0.0,0.0,0.0,0.0,0.0,0.0,0.0,0.0,0.0,0.0,0.0,0.0,0.0,0.0,0.0,0.0,0.0,0.0,0.0,0.0,0.0,0.0,0.0,0.0,0.0,0.0,0.0,0.0,0.0,0.0,0.0,0.0,0.0,0.0,0.0,0.0,0.0,0.0,0.0,0.0,0.0,0.0,0.0,0.0,0.0,0.0,0.0,0.0,0.0,0.0,0.0,0.0,0.0,0.0,0.0,0.0,0.0,0.0,0.0,0.0,-1.6897,0.0,-1.5638,-1.5038,-1.5273,-1.542,0.0,0.0,0.0,0.0,0.0,0.0,0.0,0.0,0.0,0.0,0.0,0.0,0.0,0.0,0.0,0.0,0.0,0.0,0.0,0.0,0.0,0.0,0.0,0.0,0.0,0.0,0.0,0.0,0.0,0.0,0.0,0.0,0.0,0.0,0.0,0.0,0.0,0.0,0.0,0.0,0.0,0.0,0.0,0.0,0.0,0.0,0.0,0.0,0.0,0.0,0.0,0.0,0.0,0.0,0.0,0.0,0.0,0.0,0.0,0.0,0.0,0.0,0.0,0.0,0.0,0.0,0.0,0.0,0.0,0.0,0.0,0.0,0.0,0.0,0.0,0.0,0.0,0.0,0.0,0.0,0.0,0.0,0.0,0.0,0.0,0.0,0.0,0.0,0.0,0.0,0.0,0.0,0.0,0.0,0.0,0.0,0.0,0.0,0.0,0.0,0.0,0.0,0.0,0.0,0.0,0.0,0.0,0.0,-1.7448,-1.6543,-1.5423,-1.5038,-1.5362,-1.541,-1.542,0.0,0.0,0.0,0.0,0.0,0.0,0.0,0.0,0.0,0.0,0.0,0.0,0.0,0.0,0.0,0.0,0.0,0.0,0.0,0.0,0.0,0.0,0.0,0.0,0.0,0.0,0.0,0.0,0.0,0.0,0.0,0.0,0.0,0.0,0.0,0.0,0.0,0.0,0.0,0.0,0.0,0.0,0.0,0.0,0.0,0.0,0.0,0.0,0.0,0.0,0.0,0.0,0.0,0.0,0.0,0.0,0.0,0.0,0.0,0.0,0.0,0.0,0.0,0.0,0.0,0.0,0.0,0.0,0.0,0.0,0.0,0.0,0.0,0.0,0.0,0.0,0.0,0.0,0.0,0.0,0.0,0.0,0.0,0.0,0.0,0.0,0.0,0.0,0.0,0.0,0.0,0.0,0.0,0.0,0.0,0.0,0.0,0.0,0.0,0.0,0.0,0.0,0.0,0.0,0.0,0.0,0.0,0.0,0.0,-1.7246,-1.5922,-1.5273,-1.541,-1.542,-1.542,0.0,0.0,0.0,0.0,0.0,0.0,0.0,0.0,0.0,0.0,0.0,0.0,0.0,0.0,0.0,0.0,0.0,0.0,0.0,0.0,0.0,0.0,0.0,0.0,0.0,0.0,0.0,0.0,0.0,0.0,0.0,0.0,0.0,0.0,0.0,0.0,0.0,0.0,0.0,0.0,0.0,0.0,0.0,0.0,0.0,0.0,0.0,0.0,0.0,0.0,0.0,0.0,0.0,0.0,0.0,0.0,0.0,0.0,0.0,0.0,0.0,0.0,0.0,0.0,0.0,0.0,0.0,0.0,0.0,0.0,0.0,0.0,0.0,0.0,0.0,0.0,0.0,0.0,0.0,0.0,0.0,0.0,0.0,0.0,0.0,0.0,0.0,0.0,0.0,0.0,0.0,0.0,0.0,0.0,0.0,0.0,0.0,0.0,0.0,0.0,0.0,0.0,0.0,0.0,0.0,0.0,0.0,0.0,0.0,-1.7759,-1.6391,-1.5654,-1.5644,-1.582,-1.582,-1.5664,0.0,0.0,0.0,0.0,0.0,0.0,0.0,0.0,0.0,0.0,0.0,0.0,0.0,0.0,0.0,0.0,0.0,0.0,0.0,0.0,0.0,0.0,0.0,0.0,0.0,0.0,0.0,0.0,0.0,0.0,0.0,0.0,0.0,0.0,0.0,0.0,0.0,0.0,0.0,0.0,0.0,0.0,0.0,0.0,0.0,0.0,0.0,0.0,0.0,0.0,0.0,0.0,0.0,0.0,0.0,0.0,0.0,0.0,0.0,0.0,0.0,0.0,0.0,0.0,0.0,0.0,0.0,0.0,0.0,0.0,0.0,0.0,0.0,0.0,0.0,0.0,0.0,0.0,0.0,0.0,0.0,0.0,0.0,0.0,0.0,0.0,0.0,0.0,0.0,0.0,0.0,0.0,0.0,0.0,0.0,0.0,0.0,0.0,0.0,0.0,0.0,0.0,0.0,0.0,0.0,0.0,0.0,0.0,-1.7965,-1.6809,-1.6193,-1.6124,-1.6504,-1.6533,0.0,0.0,0.0,0.0,0.0,0.0,0.0,0.0,0.0,0.0,0.0,0.0,0.0,0.0,0.0,0.0,0.0,0.0,0.0,0.0,0.0,0.0,0.0,0.0,0.0,0.0,0.0,0.0,0.0,0.0,0.0,0.0,0.0,0.0,0.0,0.0,0.0,0.0,0.0,0.0,0.0,0.0,0.0,0.0,0.0,0.0,0.0,0.0,0.0,0.0,0.0,0.0,0.0,0.0,0.0,0.0,0.0,0.0,0.0,0.0,0.0,0.0,0.0,0.0,0.0,0.0,0.0,0.0,0.0,0.0,0.0,0.0,0.0,0.0,0.0,0.0,0.0,0.0,0.0,0.0,0.0,0.0,0.0,0.0,0.0,0.0,0.0,0.0,0.0,0.0,0.0,0.0,0.0,0.0,0.0,0.0,0.0,0.0,0.0,0.0,0.0,0.0,0.0,0.0,0.0,0.0,0.0,0.0,0.0,-1.7096,-1.7324,-1.7197,-1.6592,-1.6638,-1.6648,0.0,0.0,0.0,0.0,0.0,0.0,0.0,0.0,0.0,0.0,0.0,0.0,0.0,0.0,0.0,0.0,0.0,0.0,0.0,0.0,0.0,0.0,0.0,0.0,0.0,0.0,0.0,0.0,0.0,0.0,0.0,0.0,0.0,0.0,0.0,0.0,0.0,0.0,0.0,0.0,0.0,0.0,0.0,0.0,0.0,0.0,0.0,0.0,0.0,0.0,0.0,0.0,0.0,0.0,0.0,0.0,0.0,0.0,0.0,0.0,0.0,0.0,0.0,0.0,0.0,0.0,0.0,0.0,0.0,0.0,0.0,0.0,0.0,0.0,0.0,0.0,0.0,0.0,0.0,0.0,0.0,0.0,0.0,0.0,0.0,0.0,0.0,0.0,0.0,0.0,0.0,0.0,0.0,0.0,0.0,0.0,0.0,0.0,0.0,0.0,0.0,0.0,0.0,0.0,0.0,0.0,0.0,0.0,-1.8301,-1.7034,-1.7798,-1.8091,-1.7812,-1.7594,-1.7418,0.0,0.0,0.0,0.0,0.0,0.0,0.0,0.0,0.0,0.0,0.0,0.0,0.0,0.0,0.0,0.0,0.0,0.0,0.0,0.0,0.0,0.0,0.0,0.0,0.0,0.0,0.0,0.0,0.0,0.0,0.0,0.0,0.0,0.0,0.0,0.0,0.0,0.0,0.0,0.0,0.0,0.0,0.0,0.0,0.0,0.0,0.0,0.0,0.0,0.0,0.0,0.0,0.0,0.0,0.0,0.0,0.0,0.0,0.0,0.0,0.0,0.0,0.0,0.0,0.0,0.0,0.0,0.0,0.0,0.0,0.0,0.0,0.0,0.0,0.0,0.0,0.0,0.0,0.0,0.0,0.0,0.0,0.0,0.0,0.0,0.0,0.0,0.0,0.0,0.0,0.0,0.0,0.0,0.0,0.0,0.0,0.0,0.0,0.0,0.0,0.0,0.0,0.0,0.0,0.0,0.0,0.0,0.0,-1.8977,-1.7553,-1.833,-1.8883,-1.917,-1.8854,-1.8471,0.0,0.0,0.0,0.0,0.0,0.0,0.0,0.0,0.0,0.0,0.0,0.0,0.0,0.0,0.0,0.0,0.0,0.0,0.0,0.0,0.0,0.0,0.0,0.0,0.0,0.0,0.0,0.0,0.0,0.0,0.0,0.0,0.0,0.0,0.0,0.0,0.0,0.0,0.0,0.0,0.0,0.0,0.0,0.0,0.0,0.0,0.0,0.0,0.0,0.0,0.0,0.0,0.0,0.0,0.0,0.0,0.0,0.0,0.0,0.0,0.0,0.0,0.0,0.0,0.0,0.0,0.0,0.0,0.0,0.0,0.0,0.0,0.0,0.0,0.0,0.0,0.0,0.0,0.0,0.0,0.0,0.0,0.0,0.0,0.0,0.0,0.0,0.0,0.0,0.0,0.0,0.0,0.0,0.0,0.0,0.0,0.0,0.0,0.0,0.0,0.0,0.0,0.0,0.0,0.0,0.0,0.0,0.0,-1.8647,-1.8359,-1.9163,-1.9258,-1.854,-1.8915,-1.8945,0.0,0.0,0.0,0.0,0.0,0.0,0.0,0.0,0.0,0.0,0.0,0.0,0.0,0.0,0.0,0.0,0.0,0.0,0.0,0.0,0.0,0.0,0.0,0.0,0.0,0.0,0.0,0.0,0.0,0.0,0.0,0.0,0.0,0.0,0.0,0.0,0.0,0.0,0.0,0.0,0.0,0.0,0.0,0.0,0.0,0.0,0.0,0.0,-2.0792,0.0,0.0,0.0,0.0,0.0,0.0,0.0,0.0,0.0,0.0,0.0,0.0,0.0,0.0,0.0,0.0,0.0,0.0,0.0,0.0,0.0,0.0,0.0,0.0,0.0,0.0,0.0,0.0,0.0,0.0,0.0,0.0,0.0,0.0,0.0,0.0,0.0,0.0,0.0,0.0,0.0,0.0,0.0,0.0,0.0,0.0,0.0,0.0,0.0,0.0,0.0,0.0,0.0,0.0,0.0,0.0,0.0,0.0,0.0,-1.9039,-1.8971,-1.9543,-1.9744,-1.9418,-1.9735,-1.9358,0.0,0.0,0.0,0.0,0.0,0.0,0.0,0.0,0.0,0.0,0.0,0.0,0.0,0.0,0.0,0.0,0.0,0.0,0.0,0.0,0.0,0.0,0.0,0.0,0.0,0.0,0.0,0.0,0.0,0.0,0.0,0.0,0.0,0.0,0.0,0.0,0.0,0.0,0.0,0.0,0.0,0.0,0.0,0.0,0.0,0.0,0.0,0.0,0.0,0.0,0.0,0.0,0.0,0.0,0.0,0.0,0.0,0.0,0.0,0.0,0.0,0.0,0.0,0.0,0.0,0.0,0.0,0.0,0.0,0.0,0.0,0.0,0.0,0.0,0.0,0.0,0.0,0.0,0.0,0.0,0.0,0.0,0.0,0.0,0.0,0.0,0.0,0.0,0.0,0.0,0.0,0.0,0.0,0.0,0.0,0.0,0.0,0.0,0.0,0.0,0.0,0.0,0.0,0.0,0.0,0.0,0.0,-1.9571,-1.9701,-1.95,-1.9834,-2.0157,-2.0343,-2.0459,-1.9592,-1.7812,0.0,0.0,0.0,0.0,0.0,0.0,0.0,0.0,0.0,0.0,0.0,0.0,0.0,0.0,0.0,0.0,0.0,0.0,0.0,0.0,0.0,0.0,0.0,0.0,0.0,0.0,0.0,0.0,0.0,0.0,0.0,0.0,0.0,0.0,0.0,0.0,0.0,0.0,-2.0488,-2.0556,0.0,0.0,0.0,0.0,0.0,0.0,0.0,0.0,-2.0742,0.0,0.0,0.0,0.0,0.0,0.0,0.0,0.0,0.0,0.0,0.0,0.0,0.0,0.0,0.0,0.0,0.0,0.0,0.0,0.0,0.0,0.0,0.0,0.0,0.0,0.0,0.0,0.0,0.0,0.0,0.0,0.0,0.0,0.0,0.0,0.0,0.0,0.0,0.0,0.0,0.0,0.0,0.0,0.0,0.0,0.0,0.0,0.0,0.0,0.0,0.0,0.0,0.0,0.0,0.0,0.0,-1.9737,-1.9821,-2.0058,-2.0399,-2.0458,-2.009,-1.9313,-1.9736,-1.9288,-1.7849,0.0,0.0,0.0,0.0,0.0,0.0,0.0,0.0,0.0,0.0,0.0,0.0,0.0,0.0,0.0,0.0,0.0,0.0,0.0,0.0,0.0,0.0,0.0,0.0,0.0,0.0,0.0,0.0,0.0,0.0,0.0,0.0,0.0,0.0,0.0,0.0,0.0,0.0,0.0,-2.1624,-2.1383,0.0,0.0,0.0,0.0,0.0,0.0,0.0,0.0,-2.0855,0.0,0.0,0.0,0.0,0.0,0.0,0.0,0.0,0.0,0.0,0.0,0.0,0.0,0.0,0.0,0.0,0.0,0.0,0.0,0.0,0.0,0.0,0.0,0.0,0.0,0.0,0.0,0.0,0.0,0.0,0.0,0.0,0.0,0.0,0.0,0.0,0.0,0.0,0.0,0.0,0.0,0.0,0.0,0.0,0.0,0.0,0.0,0.0,0.0,0.0,0.0,0.0,0.0,0.0,0.0,-2.0459,-2.0329,-2.0372,-2.0576,-2.0615,-2.0362,-1.9835,-1.987,-1.9483,0.0,0.0,0.0,0.0,0.0,0.0,0.0,0.0,0.0,0.0,0.0,0.0,0.0,0.0,0.0,0.0,0.0,0.0,0.0,0.0,0.0,0.0,0.0,0.0,0.0,0.0,0.0,0.0,0.0,0.0,0.0,0.0,0.0,0.0,0.0,0.0,0.0,0.0,0.0,0.0,-2.1663,-2.1594,-2.187,0.0,0.0,0.0,0.0,0.0,0.0,-2.0867,-2.0779,0.0,0.0,0.0,0.0,0.0,0.0,0.0,0.0,0.0,0.0,0.0,0.0,0.0,0.0,0.0,0.0,0.0,0.0,0.0,0.0,0.0,0.0,0.0,0.0,0.0,0.0,0.0,0.0,0.0,0.0,0.0,0.0,0.0,0.0,0.0,0.0,0.0,0.0,0.0,0.0,0.0,0.0,0.0,0.0,0.0,0.0,0.0,0.0,0.0,0.0,0.0,0.0,0.0,0.0,0.0,-2.1173,-2.0853,-2.07,-2.0595,-2.0615,-2.0615,-2.0595,-2.0068,-1.959,0.0,0.0,0.0,0.0,0.0,0.0,0.0,0.0,0.0,0.0,0.0,0.0,0.0,0.0,0.0,0.0,0.0,0.0,0.0,0.0,0.0,0.0,0.0,0.0,0.0,0.0,0.0,0.0,0.0,0.0,0.0,0.0,0.0,0.0,0.0,0.0,0.0,0.0,0.0,0.0,0.0,-2.1782,-2.2096,-2.1769,0.0,0.0,0.0,0.0,-2.0855,-2.0955,0.0,0.0,0.0,0.0,0.0,0.0,0.0,0.0,0.0,0.0,0.0,0.0,0.0,0.0,0.0,0.0,0.0,0.0,0.0,0.0,0.0,0.0,0.0,0.0,0.0,0.0,0.0,0.0,0.0,0.0,0.0,0.0,0.0,0.0,0.0,0.0,0.0,0.0,0.0,0.0,0.0,0.0,0.0,0.0,0.0,0.0,0.0,0.0,0.0,0.0,0.0,0.0,0.0,0.0,0.0,0.0,-2.1775,-2.1352,-2.093,-2.0624,-2.0615,-2.0615,-2.0595,-1.9785,-1.916,0.0,0.0,0.0,0.0,0.0,0.0,0.0,0.0,0.0,0.0,0.0,0.0,0.0,0.0,0.0,0.0,0.0,0.0,0.0,0.0,0.0,0.0,0.0,0.0,0.0,0.0,0.0,0.0,0.0,0.0,0.0,0.0,0.0,0.0,0.0,0.0,0.0,0.0,0.0,0.0,0.0,-2.2058,-2.1644,-2.1531,-2.1292,0.0,0.0,-2.1408,-2.1393,-2.1794,0.0,0.0,0.0,0.0,0.0,0.0,0.0,0.0,0.0,0.0,0.0,0.0,0.0,0.0,0.0,0.0,0.0,0.0,0.0,0.0,0.0,0.0,0.0,0.0,0.0,0.0,0.0,0.0,0.0,0.0,0.0,0.0,0.0,0.0,0.0,0.0,0.0,0.0,0.0,0.0,0.0,0.0,0.0,0.0,0.0,0.0,0.0,0.0,0.0,0.0,0.0,0.0,0.0,0.0,0.0,-2.1834,-2.1851,-2.124,-2.0783,-2.0595,-2.0615,-2.0615,-2.0605,-1.9736,-1.9082,0.0,0.0,0.0,0.0,0.0,0.0,0.0,0.0,0.0,0.0,0.0,0.0,0.0,0.0,0.0,0.0,0.0,0.0,0.0,0.0,0.0,0.0,0.0,0.0,0.0,0.0,0.0,0.0,0.0,0.0,0.0,0.0,0.0,0.0,0.0,0.0,0.0,0.0,0.0,0.0,0.0,0.0,-2.1983,-2.1681,0.0,0.0,0.0,-2.1393,-2.1106,0.0,0.0,0.0,0.0,0.0,0.0,0.0,0.0,0.0,0.0,0.0,0.0,0.0,0.0,0.0,0.0,0.0,0.0,0.0,0.0,0.0,0.0,0.0,0.0,0.0,0.0,0.0,0.0,0.0,0.0,0.0,0.0,0.0,0.0,0.0,0.0,0.0,0.0,0.0,0.0,0.0,0.0,0.0,0.0,0.0,0.0,0.0,0.0,0.0,0.0,0.0,0.0,0.0,0.0,0.0,0.0,0.0,-2.1897,-2.1029,-2.0615,-2.0615,-2.0615,-2.0615,-2.0595,-1.9834,0.0,0.0,0.0,0.0,0.0,0.0,0.0,0.0,0.0,0.0,0.0,0.0,0.0,0.0,0.0,0.0,0.0,0.0,0.0,0.0,0.0,0.0,0.0,0.0,0.0,0.0,0.0,-2.6303,0.0,0.0,0.0,0.0,0.0,0.0,0.0,0.0,0.0,0.0,0.0,0.0,0.0,0.0,-2.2543,-2.2723,-2.2259,-2.1945,0.0,0.0,-2.1807,-2.1571,-2.2309,-2.256,0.0,0.0,0.0,0.0,0.0,0.0,0.0,0.0,0.0,0.0,0.0,0.0,0.0,0.0,0.0,0.0,0.0,0.0,0.0,0.0,0.0,0.0,0.0,0.0,0.0,0.0,0.0,0.0,0.0,0.0,0.0,0.0,0.0,0.0,0.0,0.0,0.0,0.0,0.0,0.0,0.0,0.0,0.0,0.0,0.0,0.0,0.0,0.0,0.0,0.0,0.0,0.0,0.0,0.0,0.0,-2.1874,-2.1039,-2.0615,-2.0615,-2.0615,-2.0615,-2.0605,-2.0117,-1.9297,0.0,0.0,0.0,0.0,0.0,0.0,0.0,0.0,0.0,0.0,0.0,0.0,0.0,0.0,0.0,0.0,0.0,0.0,0.0,0.0,0.0,0.0,0.0,0.0,0.0,0.0,0.0,0.0,0.0,0.0,0.0,0.0,0.0,0.0,0.0,0.0,0.0,0.0,0.0,0.0,0.0,-2.3246,-2.3816,-2.3358,-2.3183,0.0,-2.3376,-2.317,-2.369,-2.4243,-2.4236,-2.3108,0.0,0.0,0.0,0.0,0.0,0.0,0.0,0.0,0.0,0.0,0.0,0.0,0.0,0.0,0.0,0.0,0.0,0.0,0.0,0.0,0.0,0.0,0.0,0.0,0.0,0.0,0.0,0.0,0.0,0.0,0.0,0.0,0.0,0.0,0.0,0.0,0.0,0.0,0.0,0.0,0.0,0.0,0.0,0.0,0.0,0.0,0.0,0.0,0.0,0.0,0.0,0.0,0.0,-2.1909,-2.1886,-2.1039,-2.0615,-2.0615,-2.0615,-2.0615,-2.0605,-2.0146,-1.9316,0.0,0.0,0.0,0.0,0.0,0.0,0.0,0.0,0.0,0.0,0.0,0.0,0.0,0.0,0.0,0.0,0.0,0.0,0.0,0.0,0.0,0.0,0.0,0.0,0.0,0.0,0.0,0.0,-2.9067,-2.8936,-2.8278,0.0,0.0,0.0,0.0,0.0,0.0,0.0,0.0,0.0,0.0,-2.3753,-2.3966,-2.3803,0.0,0.0,-2.3803,-2.3615,-2.3459,-2.391,-2.3929,-2.2769,-2.2594,0.0,0.0,0.0,0.0,0.0,0.0,0.0,0.0,0.0,0.0,0.0,0.0,0.0,0.0,0.0,0.0,0.0,0.0,0.0,0.0,0.0,0.0,0.0,0.0,0.0,0.0,0.0,0.0,0.0,0.0,0.0,0.0,0.0,0.0,0.0,0.0,0.0,0.0,0.0,0.0,0.0,0.0,0.0,0.0,0.0,0.0,0.0,0.0,0.0,0.0,0.0,0.0,-2.1705,-2.1297,-2.0829,-2.0615,-2.0615,-2.0615,-2.0615,-2.0605,-2.0273,-1.957,0.0,0.0,0.0,0.0,0.0,0.0,0.0,0.0,0.0,0.0,0.0,0.0,0.0,0.0,0.0,0.0,0.0,0.0,0.0,0.0,0.0,0.0,0.0,0.0,0.0,0.0,0.0,0.0,-2.9187,-2.9116,-2.8652,0.0,0.0,0.0,0.0,0.0,0.0,0.0,0.0,0.0,0.0,-2.4469,-2.4481,-2.4356,-2.4243,-2.4255,-2.4104,-2.3916,-2.3634,-2.3948,-2.3966,-2.3188,0.0,0.0,0.0,0.0,0.0,0.0,0.0,0.0,0.0,0.0,0.0,0.0,0.0,0.0,0.0,0.0,0.0,0.0,0.0,0.0,0.0,0.0,0.0,0.0,0.0,0.0,0.0,-2.5546,0.0,0.0,-2.5525,0.0,0.0,0.0,0.0,0.0,0.0,0.0,0.0,0.0,0.0,0.0,0.0,0.0,0.0,0.0,0.0,0.0,0.0,0.0,0.0,0.0,0.0,-2.123,-1.9978,-2.0389,-2.0615,-2.0615,-2.0615,-2.0615,-2.0605,-2.0595,-2.0175,-1.9304,0.0,0.0,0.0,0.0,0.0,0.0,0.0,0.0,0.0,0.0,0.0,0.0,0.0,0.0,0.0,0.0,0.0,0.0,0.0,0.0,0.0,0.0,0.0,0.0,0.0,0.0,-2.7779,-2.8218,-2.8622,0.0,0.0,0.0,0.0,0.0,0.0,0.0,0.0,0.0,0.0,-2.5679,-2.5548,-2.5523,-2.5109,-2.475,-2.4763,-2.4324,-2.4192,-2.465,-2.4738,-2.4775,0.0,0.0,0.0,0.0,0.0,0.0,0.0,0.0,0.0,0.0,0.0,0.0,0.0,0.0,0.0,0.0,0.0,0.0,0.0,0.0,0.0,0.0,0.0,0.0,0.0,0.0,0.0,-2.5415,-2.54,0.0,0.0,0.0,0.0,0.0,0.0,0.0,0.0,0.0,0.0,0.0,-2.3577,-2.329,0.0,0.0,0.0,0.0,0.0,0.0,0.0,0.0,0.0,0.0,0.0,0.0,-2.0368,-1.9941,-2.0369,-2.0615,-2.0615,-2.0615,-2.0615,-2.0615,-2.0615,-2.0204,-1.9353,0.0,0.0,0.0,0.0,0.0,0.0,0.0,0.0,0.0,0.0,0.0,0.0,0.0,0.0,0.0,0.0,0.0,0.0,0.0,0.0,0.0,0.0,0.0,0.0,0.0,-2.8502,0.0,0.0,0.0,0.0,0.0,0.0,0.0,0.0,0.0,0.0,0.0,-2.5287,-2.5827,-2.5115,-2.4669,-2.5021,-2.4933,-2.4946,0.0,0.0,0.0,0.0,0.0,0.0,0.0,0.0,0.0,0.0,0.0,0.0,0.0,0.0,-2.3351,-2.2234,-2.2184,-2.2309,-2.2309,0.0,0.0,0.0,0.0,0.0,0.0,0.0,0.0,0.0,0.0,0.0,0.0,0.0,0.0,-2.5779,0.0,-2.5793,0.0,0.0,0.0,0.0,0.0,0.0,0.0,0.0,-2.5211,-2.4764,-2.4089,-2.3712,-2.321,0.0,-2.2192,-2.2173,0.0,0.0,0.0,0.0,0.0,0.0,0.0,0.0,-1.9692,-1.9287,-2.016,-2.0615,-2.0615,-2.0615,-2.0615,-2.0615,-2.0615,-2.0341,-1.9783,-2.0145,-2.0237,0.0,0.0,0.0,0.0,0.0,0.0,0.0,0.0,0.0,0.0,0.0,0.0,0.0,0.0,0.0,0.0,0.0,0.0,0.0,0.0,0.0,0.0,0.0,-2.824,0.0,0.0,0.0,0.0,0.0,0.0,0.0,0.0,0.0,-2.6877,-2.5803,-2.512,-2.5456,-2.4951,-2.4556,-2.4544,0.0,0.0,0.0,0.0,0.0,0.0,0.0,-2.3941,-2.371,-2.3847,-2.4086,-2.4494,-2.4675,-2.48,-2.48,0.0,0.0,-2.3384,-2.3283,-2.3409,-2.3396,-2.3246,-2.3095,-2.3095,-2.2832,-2.2569,0.0,0.0,0.0,0.0,0.0,0.0,0.0,0.0,-2.6973,-2.6672,0.0,-2.6726,0.0,0.0,0.0,0.0,-2.717,-2.6286,0.0,0.0,-2.6209,-2.6104,-2.5507,-2.5035,-2.459,-2.4014,-2.2574,-2.1923,-2.1849,-2.1861,0.0,0.0,0.0,0.0,0.0,0.0,-1.926,-1.8179,-1.9754,-2.0615,-2.0615,-2.0615,-2.0615,-2.0615,-2.0615,-2.0595,-2.0615,-2.0937,-2.1172,-2.1214,-2.2038,0.0,0.0,0.0,0.0,0.0,0.0,0.0,0.0,0.0,0.0,0.0,0.0,0.0,0.0,0.0,0.0,0.0,0.0,0.0,0.0,-2.7266,0.0,0.0,0.0,0.0,0.0,0.0,0.0,0.0,0.0,0.0,-2.6207,-2.5362,-2.4763,-2.4795,0.0,0.0,0.0,0.0,-2.4387,-2.3371,-2.317,-2.3195,-2.3233,-2.369,-2.4205,-2.4687,0.0,0.0,-2.5586,-2.5197,-2.4876,-2.4895,-2.531,-2.546,-2.4958,-2.4424,-2.4142,-2.4117,-2.374,-2.3271,-2.3233,-2.3371,-2.3271,-2.6421,0.0,0.0,0.0,0.0,-2.7079,-2.6966,-2.6796,-2.6796,-2.6702,-2.6569,-2.6729,0.0,0.0,0.0,0.0,0.0,0.0,-2.5829,-2.5643,-2.5102,-2.4587,-2.4058,-2.3264,-2.244,-2.1597,-2.1209,-2.0986,-2.0971,-2.0961,-2.0544,-1.9715,0.0,0.0,0.0,0.0,-1.8661,-1.8991,-2.0048,-2.0615,-2.0615,-2.0615,-2.0615,-2.0615,-2.0615,-2.0615,-2.0605,-2.0709,-2.0888,-2.1209,-2.213,0.0,0.0,0.0,0.0,0.0,0.0,0.0,0.0,0.0,0.0,0.0,0.0,0.0,0.0,0.0,0.0,0.0,0.0,0.0,-2.651,-2.6857,-2.6844,0.0,0.0,0.0,0.0,0.0,0.0,0.0,0.0,0.0,-2.6052,-2.4975,-2.423,0.0,0.0,-2.3697,-2.3396,-2.3866,-2.4255,-2.4299,-2.4299,0.0,-2.4833,-2.472,-2.46,-2.4763,-2.5247,-2.5586,-2.5586,-2.5812,-2.6021,-2.5975,-2.6147,-2.6197,-2.6072,-2.5908,-2.577,-2.5783,-2.5644,-2.5544,-2.5485,-2.5209,-2.4883,-2.7272,-2.6723,-2.6392,-2.6618,-2.7224,-2.6968,-2.6799,-2.662,-2.662,-2.6491,-2.6284,-2.653,-2.6619,-2.6553,-2.6553,0.0,0.0,0.0,-2.5864,-2.5937,-2.4957,-2.4448,-2.4237,-2.2945,-2.2069,-2.1668,-2.1273,-2.1124,-2.1124,-2.0918,-2.0353,-1.9381,0.0,0.0,-1.7984,-1.8335,-1.8769,-1.9307,-2.0175,-2.0615,-2.0615,-2.0742,-2.083,-2.083,-2.0996,-2.1094,-2.1124,-2.0918,-2.0937,-2.1176,-2.1765,-2.2225,0.0,0.0,0.0,0.0,0.0,0.0,0.0,0.0,0.0,0.0,0.0,-2.6512,-2.6777,0.0,0.0,0.0,-2.626,-2.5934,-2.5661,-2.6012,0.0,0.0,0.0,0.0,0.0,0.0,0.0,-2.6805,-2.6636,-2.6415,-2.6012,-2.4987,-2.4406,-2.4607,-2.433,-2.401,-2.3797,0.0,-2.4682,-2.4763,-2.48,-2.4933,-2.5234,-2.5209,-2.5197,-2.5435,-2.5711,-2.5959,-2.5984,-2.6285,-2.6487,-2.6487,-2.6487,-2.6487,-2.6487,-2.6487,-2.6487,-2.6487,-2.6487,-2.6487,-2.6487,-2.6223,-2.5937,-2.8373,-2.8296,-2.7403,-2.7282,-2.7596,-2.7046,-2.6768,-2.6612,-2.6625,-2.6323,-2.5837,-2.6386,-2.6424,-2.607,-2.6088,0.0,-2.6791,-2.6108,-2.6101,-2.6578,-2.568,-2.5337,-2.5444,-2.3738,-2.3003,-2.3161,-2.2298,-2.1936,-2.1897,-2.1475,-2.1045,-2.0586,-1.9813,-1.9563,-1.981,-1.9493,-1.9326,-1.9394,-2.0204,-2.0644,-2.0713,-2.1074,-2.1239,-2.1259,-2.168,-2.1885,-2.1875,-2.1494,-2.1249,-2.126,-2.1314,-2.1764,-2.2677,0.0,0.0,0.0,0.0,0.0,0.0,0.0,0.0,0.0,0.0,0.0,0.0,0.0,0.0,0.0,-2.6214,0.0,-2.4903,-2.5071,0.0,0.0,0.0,-2.6455,-2.6948,-2.7058,-2.7102,-2.7193,0.0,0.0,-2.6042,-2.5422,-2.5136,-2.5598,-2.5586,-2.536,-2.4883,-2.5222,-2.5423,-2.4938,-2.4913,-2.4938,-2.5121,-2.541,-2.5812,-2.6311,-2.6487,-2.6461,-2.6449,-2.6474,-2.6487,-2.6487,-2.6487,-2.6487,-2.6487,-2.6487,-2.6487,-2.6487,-2.6487,-2.6487,-2.6487,-2.6461,-2.6436,-3.0608,-3.0585,-2.9934,-2.9048,-2.7982,-2.783,-2.7748,-2.7708,-2.7708,-2.7632,-2.7519,-2.7645,-2.7664,-2.7576,-2.7576,-2.764,-2.7779,-2.7566,-2.7582,-2.7708,-2.7442,-2.6587,-2.5133,-2.4659,-2.3676,-2.2257,-2.1999,-2.1936,-2.1885,-2.1787,-2.1338,-2.0625,-2.04,-1.9995,-1.9475,-1.9347,-1.9609,-2.0292,-2.0498,-2.0938,-2.1543,-2.168,-2.1728,-2.1728,-2.1836,-2.1936,-2.1926,-2.1797,-2.1728,-2.177,-2.2431,-2.2941,-2.315,-2.3837,0.0,0.0,0.0,0.0,0.0,0.0,0.0,0.0,0.0,-2.5054,-2.5024,0.0,-2.4561,0.0,-2.5282,-2.5582,-2.5443,-2.5962,0.0,0.0,-2.6108,-2.6895,-2.712,-2.7503,-2.7613,-2.7219,-2.7382,-2.7037,-2.5864,-2.6026,-2.6232,-2.6287,-2.5523,-2.4958,-2.4813,-2.5272,-2.5548,-2.5473,-2.5762,-2.6097,-2.6084,-2.6197,-2.6323,-2.6474,-2.6487,-2.6487,-2.6487,-2.6487,-2.6487,-2.6487,-2.6487,-2.6487,-2.6487,-2.6487,-2.6487,-2.6487,-2.6487,-2.6487,-2.6487,-2.6487,-2.6487,-3.1386,-3.1361,-3.1072,-3.0419,-2.9528,-2.9063,-2.8863,-2.8863,-2.885,-2.8712,-2.8411,-2.821,-2.8109,-2.8109,-2.8109,-2.8109,-2.8109,-2.8109,-2.8109,-2.8073,-2.7631,-2.6657,-2.5267,-2.4853,-2.3853,-2.2441,-2.2451,-2.2441,-2.2441,-2.2441,-2.2187,-2.1719,-2.1709,-2.1289,-2.0449,-1.9687,-1.9568,-2.0028,-2.041,-2.1026,-2.1855,-2.206,-2.1992,-2.1621,-2.1787,-2.1699,-2.1349,-2.1113,-2.1006,-2.1045,-2.1939,-2.2665,-2.3114,-2.4025,-2.4492,0.0,0.0,0.0,0.0,0.0,0.0,0.0,0.0,0.0,0.0,0.0,-2.4356,-2.4368,-2.5121,-2.5511,-2.5272,-2.5613,-2.5652,-2.5204,-2.5884,-2.6519,-2.686,-2.716,-2.7341,-2.7431,-2.737,-2.728,-2.7105,-2.6823,-2.6721,-2.6968,-2.6181,-2.5548,-2.5561,-2.5845,-2.6021,-2.6,-2.6285,-2.6487,-2.6487,-2.6487,-2.6487,-2.6487,-2.6487,-2.6487,-2.6487,-2.6487,-2.6487,-2.6487,-2.6487,-2.6487,-2.6487,-2.6487,-2.6487,-2.6487,-2.6487,-2.6487,-2.6487,-2.6487,-2.6487,-3.1712,-3.1712,-3.1625,-3.1612,-3.1524,-3.062,-3.0131,-2.9993,-3.0005,-2.9716,-2.9214,-2.8737,-2.8536,-2.8524,-2.8524,-2.8524,-2.8524,-2.8536,-2.8449,-2.8251,-2.74,-2.6535,-2.5624,-2.4825,-2.4058,-2.3301,-2.3257,-2.3257,-2.3266,-2.3257,-2.3208,-2.3101,-2.3101,-2.2725,-2.1855,-2.0322,-1.9512,-1.95,-2.0341,-2.1153,-2.1906,-2.2139,-2.1914,-2.1211,-2.1523,-2.1398,-2.0635,-2.0205,-1.999,-2.0038,-2.0832,-2.1754,-2.2833,-2.371,-2.4403,0.0,-2.4573,0.0,0.0,0.0,0.0,0.0,0.0,0.0,0.0,-2.5154,-2.4813,-2.4908,-2.5335,-2.5435,-2.5059,-2.5034,-2.5209,-2.5649,-2.5699,-2.598,-2.6535,-2.6748,-2.7095,-2.7802,-2.7351,-2.7537,-2.8465,-2.7504,-2.6939,-2.7484,-2.6934,-2.6488,-2.662,-2.6539,-2.6449,-2.6487,-2.6487,-2.6487,-2.6487,-2.6487,-2.6487,-2.6487,-2.6487,-2.6487,-2.6487,-2.6487,-2.6487,-2.6487,-2.6487,-2.6487,-2.6487,-2.6487,-2.6487,-2.6487,-2.6487,-2.6487,-2.6487,-2.6487,-2.6487,-3.342,-3.3382,-3.2943,-3.2797,-3.2784,-3.2541,-3.1926,-3.1085,-3.1085,-3.1022,-3.0922,-3.0809,-3.0771,-3.0771,-3.0771,-3.0783,-3.0771,-3.0771,-3.0264,-2.9318,-2.9112,-2.7977,-2.6059,-2.5849,-2.52,-2.417,-2.417,-2.417,-2.418,-2.418,-2.3828,-2.3218,-2.3164,-2.2777,-2.1904,0.0,0.0,0.0,-2.1191,-2.1719,-2.1855,-2.13,-2.0859,-2.0732,-2.0811,0.0,-2.0615,-2.0527,-2.0478,-2.0478,-2.0671,0.0,0.0,0.0,0.0,0.0,0.0,0.0,0.0,0.0,0.0,0.0,-2.4732,-2.4759,-2.4988,-2.4872,-2.4963,-2.541,-2.5536,-2.5749,-2.6147,-2.6185,-2.6223,-2.6311,-2.6336,-2.6621,-2.7384,-2.8084,-2.8588,-2.8734,-2.9223,-2.9129,-2.8117,-2.765,-2.755,-2.7703,-2.7007,-2.6816,-2.743,-2.6905,-2.6521,-2.6487,-2.6487,-2.6487,-2.6487,-2.6487,-2.6487,-2.6487,-2.6487,-2.6487,-2.6487,-2.6512,-2.6499,-2.6512,-2.6487,-2.6524,-2.6512,-2.6487,-2.6562,-2.6499,-2.6512,-2.6487,-2.6487,-2.6499,-2.6487,-3.4311,-3.4286,-3.401,-3.3897,0.0,-3.3608,-3.3156,-3.2604,-3.234,-3.2064,-3.1775,-3.1512,-3.1386,-3.1386,-3.1386,-3.1386,-3.1386,-3.0787,-3.0181,-2.9581,-2.8951,-2.7754,-2.6114,-2.6114,-2.5538,-2.4414,-2.4424,-2.4424,-2.4424,-2.4424,-2.4209,-2.3834,-2.3789,-2.3574,-2.3144,-2.2877,-2.2285,-2.1271,-2.166,-2.208,-2.2471,-2.207,-2.1641,-2.128,-2.1251,0.0,0.0,0.0,0.0,0.0,0.0,0.0,0.0,-2.4413,0.0,-2.5594,-2.6685,-2.7042,-2.649,-2.6461,-2.6327,-2.6063,-2.5787,-2.5511,-2.5222,-2.546,-2.5737,-2.6034,-2.6059,-2.6172,-2.6461,-2.6487,-2.6487,-2.6487,-2.6487,-2.6816,-2.7584,-2.8084,-2.8376,-2.8395,-2.8734,-2.878,-2.8395,-2.7934,-2.8117,-2.878,-2.8266,-2.7881,-2.8117,-2.7297,-2.6487,-2.6487,-2.6487,-2.6487,-2.6487,-2.6487,-2.6499,-2.6487,-2.6487,-2.6487,-2.6487,-2.6713,-2.6901,-2.6914,-2.7115,-2.7268,-2.7316,-2.7304,-2.7268,-2.7268,-2.7268,-2.7268,-2.7278,-2.6889,-2.6487,-3.4818,-3.4818,-3.4718,-3.468,-3.4688,-3.4236,-3.3997,-3.3859,-3.3319,0.0,0.0,-3.1888,-3.1687,-3.1687,-3.1687,-3.1687,-3.1646,-3.0681,-2.9981,-2.95,-2.8492,-2.7301,-2.6047,-2.6001,-2.5508,-2.4648,-2.4648,-2.4648,-2.4648,-2.4648,-2.4658,-2.4602,-2.4648,-2.4609,-2.4541,-2.4531,-2.3809,-2.2402,-2.2109,-2.2334,-2.2955,-2.276,-2.2353,-2.166,-2.1691,-2.1349,-2.0635,-2.0615,-2.0615,-2.0615,-2.1692,-2.2426,-2.2631,-2.4896,-2.6115,-2.5831,-2.7005,-2.7695,-2.7582,-2.757,-2.7532,-2.7431,-2.7052,-2.6499,-2.5812,-2.6223,-2.6487,-2.6487,-2.6587,-2.6637,-2.665,-2.6738,-2.6776,-2.6788,-2.6788,-2.7052,-2.7696,-2.8106,-2.8379,-2.8272,-2.8741,-2.8934,-2.9535,-2.9053,-2.8966,-3.0168,-2.9876,-2.9338,-2.9118,-2.7881,-2.6726,-2.6555,-2.66,-2.6663,-2.6663,-2.6801,-2.6776,-2.6876,-2.6839,-2.6788,-2.6864,-2.7153,-2.7394,-2.7467,-2.7821,-2.8009,-2.8084,-2.8034,-2.8109,-2.8109,-2.8109,-2.8109,-2.8034,-2.7406,-2.6864,-3.5395,-3.5345,-3.4868,-3.468,-3.4713,-3.4638,-3.4292,-3.3859,-3.3319,-3.3086,-3.2955,-3.2923,-3.2885,-3.2885,-3.2885,-3.2872,-3.2842,-3.2702,-3.1472,-2.9466,-2.924,-2.7918,-2.5826,-2.574,-2.5643,-2.5557,-2.5499,-2.5508,-2.5499,-2.5489,-2.5499,-2.5499,-2.5508,-2.5352,-2.5057,-2.5028,-2.4668,-2.4053,-2.2978,-2.249,-2.2588,-2.1504,-2.0879,-2.0801,-2.083,-2.0742,-2.0615,-2.0635,-2.0615,-2.0615,-2.0781,-2.1224,-2.2056,-2.418,-2.5678,-2.6415,-2.8282,-2.9214,-2.87,-2.8699,-2.8449,-2.8047,-2.7921,-2.7444,-2.6487,-2.6449,-2.6487,-2.6512,-2.6939,-2.7203,-2.7193,-2.757,-2.7808,-2.7833,-2.7858,-2.7931,-2.8155,-2.939,-3.0266,-3.0286,-3.1739,-3.2232,-3.1593,-3.1447,-3.14,-3.1696,-3.1251,-3.0712,-3.04,-2.8879,-2.7361,-2.6755,-2.6901,-2.7165,-2.7205,-2.7582,-2.7733,-2.7871,-2.7808,-2.7745,-2.7733,-2.7871,-2.7971,-2.7996,-2.8134,-2.8185,-2.8185,-2.8109,-2.821,-2.8247,-2.8247,-2.8222,-2.8247,-2.8021,-2.7883,-3.5981,-3.5956,-3.5717,-3.5617,-3.5592,-3.5303,-3.4818,-3.4336,-3.4085,-3.3621,-3.3136,-3.3124,-3.3124,-3.3124,-3.3124,-3.3124,-3.3068,-3.237,-3.1456,-3.0316,-2.905,-2.7814,-2.6754,-2.6024,-2.5684,-2.5684,-2.5684,-2.5684,-2.5684,-2.5684,-2.5684,-2.5684,-2.5684,-2.5586,-2.5439,-2.543,-2.5332,-2.506,-2.4036,-2.3555,-2.3535,-2.2744,-2.2314,-2.2314,-2.209,-2.1963,-2.1953,-2.1963,-2.1963,-2.1953,-2.2552,-2.3053,-2.3502,-2.5031,-2.6324,-2.7325,-2.8307,-2.9047,-2.9364,-2.9101,-2.8787,-2.8537,-2.8273,-2.7908,-2.7394,-2.7379,-2.7344,-2.7356,-2.7595,-2.772,-2.7733,-2.7959,-2.8109,-2.8109,-2.8109,-2.8507,-2.9465,-3.0187,-3.0979,-3.1495,-3.2283,-3.2616,-3.2251,-3.2205,-3.2411,-3.2757,-3.2521,-3.2187,-3.1734,-3.0403,-2.9087,-2.8321,-2.8333,-2.8241,-2.7889,-2.7921,-2.8097,-2.8109,-2.8109,-2.8109,-2.8134,-2.8273,-2.8487,-2.8549,-2.8775,-2.8988,-2.9001,-2.9026,-2.9026,-2.9013,-2.9026,-2.9026,-2.9026,-2.9026,-2.8825,-3.6417,-3.6417,-3.6417,-3.6417,-3.638,-3.5918,-3.537,-3.4881,-3.4914,-3.4361,-3.3508,-3.3332,-3.3237,-3.3124,-3.3124,-3.3124,-3.2982,-3.2096,-3.1488,-3.0989,-2.9004,-2.7872,-2.7494,-2.6294,-2.5684,-2.5684,-2.5684,-2.5684,-2.5684,-2.5684,-2.5684,-2.5684,-2.5684,-2.5684,-2.5684,-2.5684,-2.5684,-2.5645,-2.5068,-2.4668,-2.4551,-2.415,-2.3926,-2.3906,-2.3506,-2.3247,-2.3247,-2.3149,-2.3222,-2.3507,-2.4296,-2.4925,-2.521,-2.6254,-2.725,-2.8016,-2.8347,-2.8858,-2.9677,-2.9377,-2.9088,-2.9114,-2.8737,-2.8486,-2.8486,-2.8486,-2.836,-2.8172,-2.821,-2.8298,-2.831,-2.8448,-2.8486,-2.8486,-2.8486,-2.916,-3.0586,-3.1076,-3.1584,-3.2395,-3.2767,-3.3019,-3.2925,-3.2925,-3.3287,-3.3852,-3.3948,-3.3637,-3.299,-3.2278,-3.1497,-3.0441,-2.9777,-2.9083,-2.8408,-2.8461,-2.8536,-2.8486,-2.8524,-2.8599,-2.8637,-2.8888,-2.9076,-2.9164,-2.9453,-2.9654,-2.9754,-2.9741,-2.9716,-2.9666,-2.9654,-2.9716,-2.9679,-2.9691,-2.9541,-3.6417,-3.6417,-3.6417,-3.6417,-3.6405,-3.6342,-3.5956,-3.547,-3.542,-3.5094,-3.4512,-3.4048,-3.3558,-3.3162,-3.3136,-3.3124,-3.3068,-3.2982,-3.2283,-3.1178,-2.9863,-2.8634,-2.7589,-2.6332,-2.5684,-2.5684,-2.5684,-2.5684,-2.5684,-2.5684,-2.5684,-2.5684,-2.5684,-2.5684,-2.5684,-2.5684,-2.5684,-2.5684,-2.5615,-2.541,-2.501,-2.458,-2.4365,-2.4346,-2.3955,-2.373,-2.3721,-2.3315,-2.3594,-2.4532,-2.4755,-2.5294,-2.6307,-2.736,-2.8016,-2.8136,-2.9067,-2.9702,-2.9792,-2.9741,-2.9679,-2.9716,-2.9616,-2.9566,-2.9578,-2.9603,-2.9176,-2.8486,-2.8586,-2.88,-2.8838,-2.9277,-2.9515,-2.9478,-2.9592,-3.0063,-3.1053,-3.1942,-3.2793,-3.3704,-3.4482,-3.5165,-3.4951,-3.4937,-3.5061,-3.5068,-3.507,-3.5006,-3.4845,-3.4569,-3.3897,-3.2318,-3.0563,-2.9199,-2.8925,-2.9302,-2.9428,-2.9528,-2.9591,-2.9503,-2.9478,-2.9528,-2.9704,-2.9553,-2.9691,-2.9779,-2.9779,-2.9779,-2.9779,-2.9779,-2.9779,-2.9779,-2.9779,-2.9779,-2.9654,-3.6417,-3.6417,-3.6417,-3.6417,-3.6417,-3.6417,-3.6279,-3.6044,-3.6031,-3.5717,-3.5182,-3.4931,-3.4399,-3.3545,-3.3275,-3.3124,-3.3124,-3.3124,-3.284,-3.2227,-3.1045,-2.9806,-2.8634,-2.74,-2.6476,-2.5732,-2.5684,-2.5684,-2.5684,-2.5684,-2.5684,-2.5684,-2.5684,-2.5684,-2.5684,-2.5684,-2.5684,-2.5684,-2.5684,-2.5606,-2.5439,-2.5029,-2.4795,-2.4839,-2.5088,-2.4892,-2.4323,-2.4675,-2.5019,-2.5195,-2.5797,-2.6543,-2.7424,-2.7884,-2.8426,-2.9028,-2.9534,-2.9779,-2.9779,-2.9779,-2.9779,-2.9779,-2.9779,-2.9779,-2.9779,-2.9779,-2.9578,-2.9252,-2.9315,-2.944,-2.9453,-2.9654,-2.9779,-2.9856,-3.0279,-3.097,-3.1924,-3.2841,-3.3822,-3.4739,-3.5246,-3.5489,-3.5489,-3.5489,-3.5489,-3.5489,-3.5489,-3.5489,-3.5472,-3.5019,-3.4327,-3.3504,-3.2053,-3.0679,-2.9796,-2.9603,-2.9805,-2.9818,-2.9779,-2.9779,-2.9792,-2.9779,-2.9779,-2.9779,-2.9779,-2.9779,-2.9779,-2.9779,-2.9779,-2.9779,-2.9779,-2.9779,-2.9779,-2.9779,-2.9779,-3.6417,-3.6417,-3.6417,-3.6417,-3.6417,-3.6417,-3.6417,-3.6417,-3.6417,-3.6132,-3.5734,-3.5571,-3.5069,-3.4324,-3.3621,-3.3232,-3.3093,-3.3124,-3.3124,-3.2939,-3.1777,-3.0721,-2.9818,-2.8272,-2.7125,-2.6294,-2.5868,-2.5684,-2.5684,-2.5684,-2.5684,-2.5684,-2.5684,-2.5684,-2.5732,-2.6014,-2.6245,-2.6245,-2.6197,-2.6245,-2.6147,-2.5602,-2.5254,-2.5348,-2.6039,-2.5883,-2.4673,-2.5669,-2.6248,-2.6139,-2.6755,-2.7618,-2.8719,-2.8642,-2.8937,-2.9663,-2.9779,-2.9779,-2.9779,-2.9779,-2.9779,-2.9779,-2.9779,-2.9779,-2.9779,-2.9779,-2.9779,-2.9754,-2.9779,-2.9767,-2.9779,-2.9779,-2.9895,-3.0177,-3.0833,-3.1633,-3.2841,-3.3636,-3.4361,-3.5311,-3.5457,-3.5489,-3.5489,-3.5489,-3.5489,-3.5489,-3.5489,-3.5489,-3.5424,-3.4905,-3.4394,-3.4061,-3.338,-3.2379,-3.0934,-3.0696,-3.052,-3.0203,-3.0241,-3.0165,-2.9895,-2.9792,-2.9779,-2.9779,-2.9779,-2.9779,-2.9779,-2.9779,-2.9779,-2.9779,-2.9779,-2.9779,-2.9779,-2.9779,-2.9779,-3.6417,-3.6417,-3.6417,-3.6417,-3.6417,-3.6417,-3.6417,-3.6417,-3.6417,-3.638,-3.6267,-3.578,-3.547,-3.5257,-3.4286,-3.3571,-3.3187,-3.3136,-3.3124,-3.2982,-3.1865,-3.1223,-3.0944,-2.8762,-2.7542,-2.7268,-2.6197,-2.5684,-2.5684,-2.5684,-2.5684,-2.5684,-2.5684,-2.5732,-2.5917,-2.6897,-2.7494,-2.7494,-2.741,-2.7458,-2.7305,-2.6264,-2.5674,-2.5818,-2.6464,-2.6403,-2.5461,-2.5935,-2.6786,-2.7764,-2.7448,-2.8201,-3.0109,-2.9963,-2.9739,-2.9792,-2.9779,-2.9779,-2.9779,-2.9779,-2.9779,-2.9779,-2.9779,-2.9779,-2.9779,-2.9779,-2.983,-2.983,-2.9921,-2.9895,-2.9998,-3.0037,-3.0241,-3.0932,-3.118,-3.2128,-3.3691,-3.3993,-3.4476,-3.5246,-3.5489,-3.5489,-3.5489,-3.5489,-3.5489,-3.5489,-3.5489,-3.5489,-3.5489,-3.5392,-3.4986,-3.4346,-3.3945,-3.3587,-3.2713,-3.2046,-3.1756,-3.1254,-3.0758,-3.072,-3.0203,-2.9779,-2.9779,-2.9779,-2.9779,-2.9779,-2.9779,-2.9779,-2.9779,-2.9779,-2.9779,-2.9779,-2.9779,-2.9779,-2.9779,-3.6417,-3.6417,-3.6417,-3.6417,-3.6417,-3.6417,-3.6417,-3.6417,-3.6417,-3.6417,-3.6392,-3.6144,-3.568,-3.4956,-3.4613,-3.4135,-3.3596,-3.3244,-3.3124,-3.3038,-3.2624,-3.2008,-3.1045,-2.9498,-2.8319,-2.7494,-2.6294,-2.5684,-2.5684,-2.5684,-2.5684,-2.5684,-2.5684,-2.6072,-2.6849,-2.7352,-2.7955,-2.8588,-2.8038,-2.7589,-2.7542,-2.6332,-2.6062,-2.6935,-2.7971,-2.8269,-2.7864,-2.8857,-2.9479,-2.9517,-2.932,-2.9767,-3.0895,-3.062,-3.0156,-2.9829,-2.9779,-2.9779,-2.9779,-2.9779,-2.9779,-2.9779,-2.9779,-2.9779,-2.9779,-2.983,-3.0037,-3.052,-3.0683,-3.0908,-3.1328,-3.1095,-3.0833,-3.1254,-3.2285,-3.3171,-3.3925,-3.4543,-3.5133,-3.5439,-3.5489,-3.5489,-3.5489,-3.5489,-3.5489,-3.5489,-3.5489,-3.5489,-3.5489,-3.5489,-3.5311,-3.5085,-3.4938,-3.4839,-3.4591,-3.322,-3.2321,-3.1609,-3.1068,-3.0658,-3.0165,-2.9856,-2.9779,-2.9779,-2.9779,-2.9779,-2.9779,-2.9779,-2.9779,-2.9779,-2.9779,-2.9779,-2.9779,-2.9779,-2.9779,-3.6417,-3.6417,-3.6417,-3.6417,-3.6417,-3.6417,-3.6417,-3.6392,-3.6182,-3.6094,-3.6069,-3.5918,-3.5403,-3.4731,-3.4537,-3.4274,-3.3859,-3.3332,-3.3124,-3.3124,-3.3124,-3.2413,-3.1178,-3.0,-2.8773,-2.7542,-2.6294,-2.5878,-2.6294,-2.6294,-2.6332,-2.6342,-2.6658,-2.7078,-2.7683,-2.8308,-2.9223,-2.9681,-2.9177,-2.8773,-2.8588,-2.7531,-2.7484,-2.868,-2.959,-2.9772,-2.9453,-3.0586,-3.1024,-3.0692,-3.049,-3.0694,-3.1248,-3.0896,-3.0457,-3.0105,-2.9892,-2.9779,-2.9779,-2.9779,-2.9779,-2.9779,-2.9779,-2.9779,-2.9792,-3.0062,-3.0545,-3.1068,-3.1523,-3.196,-3.2357,-3.2272,-3.2105,-3.2236,-3.3241,-3.4129,-3.4461,-3.5067,-3.5424,-3.5489,-3.5489,-3.5489,-3.5489,-3.5489,-3.5489,-3.5489,-3.5489,-3.5489,-3.5489,-3.5489,-3.5489,-3.5489,-3.5424,-3.5392,-3.5067,-3.4007,-3.2925,-3.2128,-3.1559,-3.097,-3.0165,-2.9921,-2.9779,-2.9779,-2.9779,-2.9779,-2.9779,-2.9779,-2.9779,-2.9779,-2.9779,-2.9779,-2.9779,-2.9779,-2.9779,-3.638,-3.6355,-3.638,-3.6292,-3.6254,-3.6241,-3.6342,-3.6204,-3.5696,-3.5495,-3.5433,-3.4981,-3.4801,-3.4587,-3.4186,-3.3909,-3.3734,-3.3338,-3.3124,-3.3124,-3.2982,-3.2326,-3.1166,-2.9806,-2.8691,-2.7589,-2.6428,-2.6524,-2.7542,-2.7589,-2.7589,-2.7814,-2.8588,-2.8623,-2.7778,-2.9818,-3.1045,-3.1134,-3.0944,-3.0944,-3.1,-2.9727,-2.9636,-3.081,-3.1045,-3.0631,-2.967,-3.0721,-3.1332,-3.126,-3.0823,-3.0792,-3.1322,-3.1022,-3.0658,-3.052,-3.0105,-2.9842,-2.9779,-2.9779,-2.9779,-2.9779,-2.9779,-2.9779,-2.9895,-3.0558,-3.1143,-3.1426,-3.2105,-3.2664,-3.2912,-3.3449,-3.3822,-3.3945,-3.4027,-3.4509,-3.518,-3.5472,-3.5489,-3.5489,-3.5489,-3.5489,-3.5489,-3.5489,-3.5489,-3.5489,-3.5489,-3.5489,-3.5489,-3.5489,-3.5489,-3.5489,-3.5489,-3.5489,-3.5166,-3.4658,-3.3671,-3.277,-3.2272,-3.1646,-3.0381,-2.9779,-2.9779,-2.9779,-2.9779,-2.9779,-2.9779,-2.9779,-2.9779,-2.9779,-2.9779,-2.9779,-2.9779,-2.9779,-2.9779,-3.5805,-3.5755,-3.5391,-3.5228,-3.524,-3.5228,-3.5228,-3.5228,-3.4994,-3.4989,-3.4893,-3.4756,-3.4525,-3.4186,-3.396,-3.3696,-3.3332,-3.3187,-3.3124,-3.2982,-3.2239,-3.1633,-3.0899,-2.9131,-2.7955,-2.7767,-2.8085,-2.8402,-2.8727,-2.8819,-2.8808,-2.8947,-2.9223,-2.9681,-3.0,-3.0855,-3.1545,-3.2326,-3.1633,-3.1178,-3.1089,-3.0045,-2.9988,-3.1045,-3.1178,-3.1368,-3.1933,-3.2339,-3.2525,-3.2469,-3.2352,-3.2189,-3.1955,-3.1813,-3.1373,-3.0696,-3.047,-3.0168,-2.9842,-2.9779,-2.9779,-2.9779,-2.9779,-2.9779,-2.9895,-3.0696,-3.1462,-3.2105,-3.3031,-3.3788,-3.4476,-3.4806,-3.4725,-3.4109,-3.461,-3.5085,-3.5407,-3.5489,-3.5489,-3.5489,-3.5489,-3.5489,-3.5489,-3.5489,-3.5489,-3.5489,-3.5489,-3.5489,-3.5489,-3.5489,-3.5489,-3.5489,-3.5489,-3.5489,-3.5246,-3.4839,-3.4075,-3.3101,-3.2486,-3.1683,-3.0457,-2.9779,-2.9779,-2.9779,-2.9779,-2.9779,-2.9779,-2.9779,-2.9779,-2.9779,-2.9779,-2.9779,-2.9779,-2.9779,-2.9779,-3.5194,-3.5144,-3.4818,-3.468,-3.468,-3.468,-3.468,-3.4688,-3.45,-3.4424,-3.4387,-3.4186,-3.3922,-3.3646,-3.3596,-3.342,-3.3136,-3.3124,-3.3124,-3.2896,-3.1777,-3.1,-3.0496,-2.9096,-2.8272,-2.8402,-2.905,-2.9636,-3.0045,-3.0045,-3.009,-3.009,-3.0508,-3.0866,-3.1267,-3.1689,-3.2382,-3.2884,-3.2326,-3.1921,-3.1777,-3.1146,-3.1146,-3.1821,-3.1909,-3.2326,-3.3081,-3.3124,-3.3124,-3.3124,-3.3124,-3.2893,-3.2554,-3.2315,-3.1888,-3.1323,-3.0821,-3.0444,-3.0131,-2.9917,-2.9779,-2.9779,-2.9779,-2.9779,-3.0037,-3.0884,-3.2046,-3.2607,-3.3802,-3.4839,-3.5311,-3.5489,-3.5166,-3.4691,-3.51,-3.5457,-3.5489,-3.5489,-3.5489,-3.5489,-3.5489,-3.5489,-3.5489,-3.5489,-3.5489,-3.5489,-3.5489,-3.5489,-3.5489,-3.5489,-3.5489,-3.5489,-3.5489,-3.5504,-3.5472,-3.5001,-3.4409,-3.3463,-3.2571,-3.1476,-3.0254,-2.9895,-2.9779,-2.9779,-2.9779,-2.9779,-2.9779,-2.9779,-2.9779,-2.9779,-2.9779,-2.9779,-2.9779,-2.9779,-2.9779,-3.4675,-3.4675,-3.4625,-3.455,-3.4505,-3.4492,-3.45,-3.4455,-3.4085,-3.3859,-3.3759,-3.3432,-3.3169,-3.3162,-3.3224,-3.3174,-3.3124,-3.3124,-3.2939,-3.2612,-3.1677,-3.0676,-2.9636,-2.9498,-2.9498,-2.9533,-2.9727,-3.0361,-3.1267,-3.1311,-3.1311,-3.1412,-3.2239,-3.2469,-3.1865,-3.2525,-3.2982,-3.3038,-3.3038,-3.297,-3.2982,-3.2939,-3.2939,-3.2982,-3.2982,-3.2982,-3.3081,-3.3124,-3.3124,-3.3124,-3.3124,-3.3099,-3.2955,-3.2554,-3.2277,-3.2064,-3.1223,-3.0783,-3.0532,-3.0168,-2.9867,-2.9804,-2.9779,-2.9779,-2.9998,-3.1365,-3.2464,-3.2664,-3.4259,-3.5439,-3.5457,-3.5489,-3.5472,-3.5472,-3.5457,-3.5489,-3.5489,-3.5489,-3.5489,-3.5489,-3.5489,-3.5489,-3.5489,-3.5489,-3.5489,-3.5489,-3.5489,-3.5489,-3.5489,-3.5489,-3.5489,-3.5489,-3.5489,-3.5489,-3.5472,-3.5279,-3.4658,-3.3788,-3.282,-3.1659,-3.0457,-3.0075,-2.9779,-2.9779,-2.9779,-2.9779,-2.9779,-2.9779,-2.9779,-2.9779,-2.9779,-2.9779,-2.9779,-2.9779,-2.9779,-3.4123,-3.4085,-3.3684,-3.3508,-3.3508,-3.3508,-3.352,-3.3495,-3.3382,-3.3332,-3.33,-3.3144,-3.3124,-3.3124,-3.3124,-3.3124,-3.3124,-3.3124,-3.2513,-3.1721,-3.14,-3.0541,-2.9806,-3.0316,-3.0721,-3.0822,-3.15,-3.2283,-3.2556,-3.2513,-3.2525,-3.2612,-3.2853,-3.2982,-3.2754,-3.2939,-3.3081,-3.3124,-3.3124,-3.3124,-3.3124,-3.3124,-3.3124,-3.3124,-3.3124,-3.3124,-3.3124,-3.3124,-3.3124,-3.3124,-3.3124,-3.3124,-3.3111,-3.2893,-3.2641,-3.2252,-3.1951,-3.1411,-3.0783,-3.0482,-3.0218,-2.9829,-2.9804,-2.9779,-2.9856,-3.1513,-3.2451,-3.2925,-3.4341,-3.5489,-3.5489,-3.5489,-3.5489,-3.5489,-3.5489,-3.5489,-3.5489,-3.5489,-3.5489,-3.5489,-3.5489,-3.5489,-3.5489,-3.5489,-3.5489,-3.5489,-3.5489,-3.5489,-3.5489,-3.5489,-3.5489,-3.5489,-3.5489,-3.5489,-3.5457,-3.5311,-3.4872,-3.4041,-3.3101,-3.2105,-3.102,-3.0254,-2.996,-2.9779,-2.9779,-2.9779,-2.9779,-2.9779,-2.9779,-2.9779,-2.9779,-2.9779,-2.9779,-2.9779,-2.9779,-3.3545,-3.3533,-3.325,-3.3124,-3.3124,-3.3124,-3.3124,-3.3124,-3.3124,-3.3124,-3.3124,-3.3124,-3.3124,-3.3124,-3.3124,-3.3124,-3.3124,-3.3124,-3.2698,-3.2196,-3.2052,-3.1368,-3.0721,-3.1412,-3.2008,-3.2064,-3.2754,-3.3025,-3.3081,-3.3124,-3.3124,-3.3081,-3.3124,-3.3124,-3.3081,-3.3124,-3.3124,-3.3124,-3.3124,-3.3124,-3.3124,-3.3124,-3.3124,-3.3124,-3.3124,-3.3124,-3.3124,-3.3124,-3.3124,-3.3124,-3.3124,-3.3124,-3.3124,-3.3124,-3.296,-3.2566,-3.2365,-3.1888,-3.1373,-3.0909,-3.0442,-3.0156,-2.9967,-2.9804,-3.0139,-3.1476,-3.2593,-3.277,-3.4409,-3.5311,-3.5489,-3.5489,-3.5489,-3.5489,-3.5489,-3.5489,-3.5489,-3.5489,-3.5489,-3.5489,-3.5489,-3.5489,-3.5489,-3.5489,-3.5489,-3.5489,-3.5489,-3.5489,-3.5489,-3.5489,-3.5489,-3.5489,-3.5489,-3.5489,-3.5489,-3.5392,-3.51,-3.4293,-3.3206,-3.2249,-3.1044,-3.0216,-2.9998,-2.9779,-2.9779,-2.9779,-2.9779,-2.9779,-2.9779,-2.9779,-2.9779,-2.9779,-2.9779,-2.9779,-2.9779,-3.3124,-3.3124,-3.3124,-3.3124,-3.3124,-3.3124,-3.3124,-3.3124,-3.3124,-3.3124,-3.3124,-3.3124,-3.3124,-3.3124,-3.3124,-3.3124,-3.3124,-3.3124,-3.3081,-3.2939,-3.2896,-3.2339,-3.1633,-3.237,-3.284,-3.2939,-3.3081,-3.3124,-3.3124,-3.3124,-3.3124,-3.3124,-3.3124,-3.3124,-3.3124,-3.3124,-3.3124,-3.3124,-3.3124,-3.3124,-3.3124,-3.3124,-3.3124,-3.3124,-3.3124,-3.3124,-3.3124,-3.3124,-3.3124,-3.3124,-3.3124,-3.3124,-3.3124,-3.3124,-3.3111,-3.2968,-3.2616,-3.2303,-3.2077,-3.1323,-3.0733,-3.0545,-3.0131,-2.9945,-3.0356,-3.1659,-3.2664,-3.2912,-3.4457,-3.5311,-3.5489,-3.5489,-3.5489,-3.5489,-3.5489,-3.5489,-3.5489,-3.5489,-3.5489,-3.5489,-3.5489,-3.5489,-3.5489,-3.5489,-3.5489,-3.5489,-3.5489,-3.5489,-3.5489,-3.5489,-3.5489,-3.5489,-3.5489,-3.5489,-3.5489,-3.5489,-3.51,-3.4524,-3.3325,-3.2177,-3.0671,-2.9934,-2.9856,-2.9779,-2.9779,-2.9779,-2.9779,-2.9779,-2.9779,-2.9779,-2.9779,-2.9779,-2.9779,-2.9779,-2.9779,-3.3124,-3.3124,-3.3124,-3.3124,-3.3124,-3.3124,-3.3124,-3.3124,-3.3124,-3.3124,-3.3124,-3.3124,-3.3124,-3.3124,-3.3124,-3.3124,-3.3124,-3.3124,-3.3124,-3.3124,-3.3124,-3.3025,-3.2698,-3.3025,-3.3081,-3.3124,-3.3124,-3.3124,-3.3124,-3.3124,-3.3124,-3.3124,-3.3124,-3.3124,-3.3124,-3.3124,-3.3124,-3.3124,-3.3124,-3.3124,-3.3124,-3.3124,-3.3124,-3.3124,-3.3124,-3.3124,-3.3124,-3.3124,-3.3124,-3.3124,-3.3124,-3.3124,-3.3124,-3.3124,-3.3124,-3.3099,-3.2968,-3.2679,-3.2277,-3.1938,-3.1474,-3.0733,-3.0534,-3.0571,-3.0934,-3.1865,-3.2876,-3.3636,-3.4773,-3.5457,-3.5489,-3.5489,-3.5489,-3.5489,-3.5489,-3.5489,-3.5489,-3.5489,-3.5489,-3.5489,-3.5489,-3.5489,-3.5489,-3.5489,-3.5489,-3.5489,-3.5489,-3.5489,-3.5489,-3.5489,-3.5489,-3.5489,-3.5489,-3.5489,-3.5489,-3.5392,-3.4986,-3.4442,-3.3325,-3.2213,-3.0733,-2.9779,-2.9779,-2.9779,-2.9779,-2.9779,-2.9779,-2.9779,-2.9779,-2.9779,-2.9779,-2.9779,-2.9779,-2.9779,-2.9779,-3.3124,-3.3124,-3.3124,-3.3124,-3.3124,-3.3124,-3.3124,-3.3124,-3.3124,-3.3124,-3.3124,-3.3124,-3.3124,-3.3124,-3.3124,-3.3124,-3.3124,-3.3124,-3.3124,-3.3124,-3.3124,-3.3124,-3.3124,-3.3124,-3.3124,-3.3124,-3.3124,-3.3124,-3.3124,-3.3124,-3.3124,-3.3124,-3.3124,-3.3124,-3.3124,-3.3124,-3.3124,-3.3124,-3.3124,-3.3124,-3.3124,-3.3124,-3.3124,-3.3124,-3.3124,-3.3124,-3.3124,-3.3124,-3.3124,-3.3124,-3.3124,-3.3124,-3.3124,-3.3124,-3.3124,-3.3124,-3.3124,-3.2968,-3.2667,-3.2328,-3.1851,-3.106,-3.0783,-3.0569,-3.094,-3.1756,-3.2713,-3.3498,-3.4524,-3.5489,-3.5489,-3.5489,-3.5489,-3.5489,-3.5489,-3.5489,-3.5489,-3.5489,-3.5489,-3.5489,-3.5489,-3.5489,-3.5489,-3.5489,-3.5489,-3.5489,-3.5489,-3.5489,-3.5489,-3.5489,-3.5489,-3.5489,-3.5489,-3.5489,-3.5489,-3.5279,-3.4872,-3.4192,-3.3255,-3.2213,-3.1007,-3.0317,-2.9779,-2.9779,-2.9779,-2.9779,-2.9779,-2.9779,-2.9779,-2.9779,-2.9779,-2.9779,-2.9779,-2.9779,-2.9779,-3.3124,-3.3124,-3.3124,-3.3124,-3.3124,-3.3124,-3.3124,-3.3124,-3.3124,-3.3124,-3.3124,-3.3124,-3.3124,-3.3124,-3.3124,-3.3124,-3.3124,-3.3124,-3.3124,-3.3124,-3.3124,-3.3124,-3.3124,-3.3124,-3.3124,-3.3124,-3.3124,-3.3124,-3.3124,-3.3124,-3.3124,-3.3124,-3.3124,-3.3124,-3.3124,-3.3124,-3.3124,-3.3124,-3.3124,-3.3124,-3.3124,-3.3124,-3.3124,-3.3124,-3.3124,-3.3124,-3.3124,-3.3124,-3.3124,-3.3124,-3.3124,-3.3124,-3.3124,-3.3124,-3.3124,-3.3124,-3.3124,-3.3086,-3.2943,-3.2616,-3.2152,-3.1562,-3.1047,-3.0666,-3.074,-3.1666,-3.2607,-3.3429,-3.4409,-3.5489,-3.5489,-3.5489,-3.5489,-3.5489,-3.5489,-3.5489,-3.5489,-3.5489,-3.5489,-3.5489,-3.5489,-3.5489,-3.5489,-3.5489,-3.5489,-3.5489,-3.5489,-3.5489,-3.5489,-3.5489,-3.5489,-3.5489,-3.5489,-3.5489,-3.5489,-3.4872,-3.4509,-3.3719,-3.2855,-3.1974,-3.1044,-3.0381,-2.9792,-2.9779,-2.9779,-2.9779,-2.9779,-2.9779,-2.9779,-2.9779,-2.9779,-2.9779,-2.9779,-2.9779,-2.9779,-3.3124,-3.3124,-3.3124,-3.3124,-3.3124,-3.3124,-3.3124,-3.3124,-3.3124,-3.3124,-3.3124,-3.3124,-3.3124,-3.3124,-3.3124,-3.3124,-3.3124,-3.3124,-3.3124,-3.3124,-3.3124,-3.3124,-3.3124,-3.3124,-3.3124,-3.3124,-3.3124,-3.3124,-3.3124,-3.3124,-3.3124,-3.3124,-3.3124,-3.3124,-3.3124,-3.3124,-3.3124,-3.3124,-3.3124,-3.3124,-3.3124,-3.3124,-3.3124,-3.3124,-3.3124,-3.3124,-3.3124,-3.3124,-3.3124,-3.3124,-3.3124,-3.3124,-3.3124,-3.3124,-3.3124,-3.3124,-3.3124,-3.3124,-3.3074,-3.3023,-3.2616,-3.2127,-3.1524,-3.14,-3.1576,-3.2185,-3.2918,-3.3856,-3.4691,-3.5489,-3.5489,-3.5489,-3.5489,-3.5489,-3.5489,-3.5489,-3.5489,-3.5489,-3.5489,-3.5489,-3.5489,-3.5489,-3.5489,-3.5489,-3.5489,-3.5489,-3.5489,-3.5489,-3.5489,-3.5489,-3.5489,-3.5489,-3.5489,-3.5489,-3.5489,-3.4643,-3.3945,-3.3101,-3.2249,-3.1439,-3.062,-3.0139,-2.9792,-2.9792,-2.9779,-2.9779,-2.9779,-2.9779,-2.9779,-2.9779,-2.9779,-2.9779,-2.9779,-2.9779,-2.9779,-3.3124,-3.3124,-3.3124,-3.3124,-3.3124,-3.3124,-3.3124,-3.3124,-3.3124,-3.3124,-3.3124,-3.3124,-3.3124,-3.3124,-3.3124,-3.3124,-3.3124,-3.3124,-3.3124,-3.3124,-3.3124,-3.3124,-3.3124,-3.3124,-3.3124,-3.3124,-3.3124,-3.3124,-3.3124,-3.3124,-3.3124,-3.3124,-3.3124,-3.3124,-3.3124,-3.3124,-3.3124,-3.3124,-3.3124,-3.3124,-3.3124,-3.3124,-3.3124,-3.3124,-3.3124,-3.3124,-3.3124,-3.3124,-3.3124,-3.3124,-3.3124,-3.3124,-3.3124,-3.3124,-3.3124,-3.3124,-3.3124,-3.3124,-3.3124,-3.3111,-3.2792,-3.224,-3.17,-3.135,-3.1539,-3.2072,-3.3115,-3.4394,-3.5019,-3.5489,-3.5489,-3.5457,-3.5489,-3.5489,-3.5457,-3.5457,-3.5457,-3.5457,-3.5457,-3.5457,-3.5424,-3.5424,-3.5489,-3.5489,-3.5489,-3.5489,-3.5489,-3.5489,-3.5489,-3.5344,-3.5279,-3.5133,-3.5034,-3.4706,-3.4624,-3.4041,-3.3345,-3.2558,-3.1719,-3.0908,-3.0482,-3.0075,-2.9856,-2.9779,-2.9779,-2.9779,-2.9779,-2.9779,-2.9779,-2.9779,-2.9779,-2.9779,-2.9779,-2.9779,-2.9779,-3.3124,-3.3124,-3.3124,-3.3124,-3.3124,-3.3124,-3.3124,-3.3124,-3.3124,-3.3124,-3.3124,-3.3124,-3.3124,-3.3124,-3.3124,-3.3124,-3.3124,-3.3124,-3.3124,-3.3124,-3.3124,-3.3124,-3.3124,-3.3124,-3.3124,-3.3124,-3.3124,-3.3124,-3.3124,-3.3124,-3.3124,-3.3124,-3.3124,-3.3124,-3.3124,-3.3124,-3.3124,-3.3124,-3.3124,-3.3124,-3.3124,-3.3124,-3.3124,-3.3124,-3.3124,-3.3124,-3.3124,-3.3124,-3.3124,-3.3124,-3.3124,-3.3124,-3.3124,-3.3124,-3.3124,-3.3124,-3.3124,-3.3124,-3.3124,-3.3124,-3.2893,-3.2491,-3.1775,-3.1276,-3.1131,-3.1858,-3.289,-3.4524,-3.51,-3.4905,-3.4739,-3.5034,-3.4986,-3.4839,-3.492,-3.5166,-3.51,-3.51,-3.5246,-3.5246,-3.5311,-3.5344,-3.5359,-3.5489,-3.5489,-3.5489,-3.5489,-3.5489,-3.5424,-3.4986,-3.4839,-3.4639,-3.4375,-3.3837,-3.3547,-3.3185,-3.2629,-3.2092,-3.1291,-3.0533,-3.0355,-3.0177,-2.9998,-2.9779,-2.9779,-2.9779,-2.9779,-2.9779,-2.9779,-2.9779,-2.9779,-2.9779,-2.9779,-2.9779,-2.9779,-3.3124,-3.3124,-3.3124,-3.3124,-3.3124,-3.3124,-3.3124,-3.3124,-3.3124,-3.3124,-3.3124,-3.3124,-3.3124,-3.3124,-3.3124,-3.3124,-3.3124,-3.3124,-3.3124,-3.3124,-3.3124,-3.3124,-3.3124,-3.3124,-3.3124,-3.3124,-3.3124,-3.3124,-3.3124,-3.3124,-3.3124,-3.3124,-3.3124,-3.3124,-3.3124,-3.3124,-3.3124,-3.3124,-3.3124,-3.3124,-3.3124,-3.3124,-3.3124,-3.3124,-3.3124,-3.3124,-3.3124,-3.3124,-3.3124,-3.3124,-3.3124,-3.3124,-3.3124,-3.3124,-3.3124,-3.3124,-3.3124,-3.3124,-3.3124,-3.3124,-3.3056,-3.2692,-3.1976,-3.1486,-3.1312,-3.1329,-3.201,-3.2784,-3.3671,-3.3891,-3.3602,-3.3774,-3.3636,-3.3671,-3.3856,-3.4109,-3.4192,-3.4225,-3.4409,-3.4691,-3.4624,-3.4953,-3.5166,-3.5344,-3.5489,-3.5489,-3.5489,-3.5489,-3.5311,-3.4872,-3.3871,-3.3512,-3.3547,-3.308,-3.2478,-3.2119,-3.1901,-3.1462,-3.0871,-3.0177,-3.0101,-3.0037,-2.9921,-2.9779,-2.9779,-2.9779,-2.9779,-2.9779,-2.9779,-2.9779,-2.9779,-2.9779,-2.9779,-2.9779,-2.9779,-3.3124,-3.3124,-3.3124,-3.3124,-3.3124,-3.3124,-3.3124,-3.3124,-3.3124,-3.3124,-3.3124,-3.3124,-3.3124,-3.3124,-3.3124,-3.3124,-3.3124,-3.3124,-3.3124,-3.3124,-3.3124,-3.3124,-3.3124,-3.3124,-3.3124,-3.3124,-3.3124,-3.3124,-3.3124,-3.3124,-3.3124,-3.3124,-3.3124,-3.3124,-3.3124,-3.3124,-3.3124,-3.3124,-3.3124,-3.3124,-3.3124,-3.3124,-3.3124,-3.3124,-3.3124,-3.3124,-3.3124,-3.3124,-3.3124,-3.3124,-3.3124,-3.3124,-3.3124,-3.3124,-3.3124,-3.3124,-3.3124,-3.3124,-3.3124,-3.3124,-3.3124,-3.286,-3.2135,-3.1405,-3.128,-3.1261,-3.1573,-3.2522,-3.2961,-3.2925,-3.2664,-3.2982,-3.2912,-3.2876,-3.2876,-3.3017,-3.3206,-3.3206,-3.3345,-3.3671,-3.3959,-3.4259,-3.4591,-3.492,-3.518,-3.5489,-3.5424,-3.5392,-3.5085,-3.4643,-3.3429,-3.2046,-3.2227,-3.2321,-3.1623,-3.1095,-3.102,-3.0733,-3.0482,-2.996,-2.9895,-2.9818,-2.9779,-2.9779,-2.9779,-2.9779,-2.9779,-2.9779,-2.9779,-2.9779,-2.9779,-2.9779,-2.9779,-2.9779,-2.9779,-3.3124,-3.3124,-3.3124,-3.3124,-3.3124,-3.3124,-3.3124,-3.3124,-3.3124,-3.3124,-3.3124,-3.3124,-3.3124,-3.3124,-3.3124,-3.3124,-3.3124,-3.3124,-3.3124,-3.3124,-3.3124,-3.3124,-3.3124,-3.3124,-3.3124,-3.3124,-3.3124,-3.3124,-3.3124,-3.3124,-3.3124,-3.3124,-3.3124,-3.3124,-3.3124,-3.3124,-3.3124,-3.3124,-3.3124,-3.3124,-3.3124,-3.3124,-3.3124,-3.3124,-3.3124,-3.3124,-3.3124,-3.3124,-3.3124,-3.3124,-3.3124,-3.3124,-3.3124,-3.3124,-3.3124,-3.3124,-3.3124,-3.3124,-3.3124,-3.3124,-3.3124,-3.2784,-3.2081,-3.124,-3.079,-3.0871,-3.1007,-3.1623,-3.2105,-3.2069,-3.1997,-3.1997,-3.1974,-3.1924,-3.1983,-3.2128,-3.2236,-3.2236,-3.2486,-3.2947,-3.3171,-3.322,-3.365,-3.4274,-3.4773,-3.5344,-3.5424,-3.5279,-3.4658,-3.4027,-3.2678,-3.1119,-3.1057,-3.1267,-3.0884,-3.0355,-3.0216,-3.0139,-2.9895,-2.9779,-2.9779,-2.9779,-2.9779,-2.9779,-2.9779,-2.9779,-2.9779,-2.9779,-2.9779,-2.9779,-2.9779,-2.9779,-2.9779,-2.9779,-2.9779,-3.3124,-3.3124,-3.3124,-3.3124,-3.3124,-3.3124,-3.3124,-3.3124,-3.3124,-3.3124,-3.3124,-3.3124,-3.3124,-3.3124,-3.3124,-3.3124,-3.3124,-3.3124,-3.3124,-3.3124,-3.3124,-3.3124,-3.3124,-3.3124,-3.3124,-3.3124,-3.3124,-3.3124,-3.3124,-3.3124,-3.3124,-3.3124,-3.3124,-3.3124,-3.3124,-3.3124,-3.3124,-3.3124,-3.3124,-3.3124,-3.3124,-3.3124,-3.3124,-3.3124,-3.3124,-3.3124,-3.3124,-3.3124,-3.3124,-3.3124,-3.3124,-3.3124,-3.3124,-3.3124,-3.3124,-3.3124,-3.3124,-3.3124,-3.3124,-3.3124,-3.3086,-3.2784,-3.2068,-3.1014,-3.0253,-2.9998,-3.0037,-3.0317,-3.0983,-3.0921,-3.0733,-3.0633,-3.0921,-3.0921,-3.1007,-3.1217,-3.1291,-3.1291,-3.1573,-3.2164,-3.2379,-3.2429,-3.2678,-3.329,-3.4225,-3.4806,-3.4938,-3.4791,-3.3463,-3.2642,-3.1513,-3.0419,-3.0139,-3.0101,-3.0062,-2.9895,-2.996,-2.996,-2.9856,-2.9779,-2.9779,-2.9779,-2.9779,-2.9779,-2.9779,-2.9779,-2.9779,-2.9779,-2.9779,-2.9779,-2.9779,-2.9779,-2.9779,-2.9779,-2.9779,-3.3124,-3.3124,-3.3124,-3.3124,-3.3124,-3.3124,-3.3124,-3.3124,-3.3124,-3.3124,-3.3124,-3.3124,-3.3124,-3.3124,-3.3124,-3.3124,-3.3124,-3.3124,-3.3124,-3.3124,-3.3124,-3.3124,-3.3124,-3.3124,-3.3124,-3.3124,-3.3124,-3.3124,-3.3124,-3.3124,-3.3124,-3.3124,-3.3124,-3.3124,-3.3124,-3.3124,-3.3124,-3.3124,-3.3124,-3.3124,-3.3124,-3.3124,-3.3124,-3.3124,-3.3124,-3.3124,-3.3124,-3.3124,-3.3124,-3.3124,-3.3124,-3.3124,-3.3124,-3.3124,-3.3124,-3.3124,-3.3124,-3.3124,-3.3124,-3.3061,-3.2792,-3.2051,-3.1549,-3.0947,-2.998,-2.9804,-2.9792,-2.996,-3.0101,-3.0139,-3.0062,-3.0139,-3.0216,-2.9998,-3.0062,-3.0343,-3.0444,-3.052,-3.0582,-3.1156,-3.1426,-3.1559,-3.1924,-3.2307,-3.3345,-3.4245,-3.4312,-3.4095,-3.277,-3.1683,-3.0733,-3.0139,-2.9856,-2.9779,-2.9779,-2.9779,-2.9779,-2.9779,-2.9779,-2.9779,-2.9779,-2.9779,-2.9779,-2.9779,-2.9779,-2.9779,-2.9779,-2.9779,-2.9779,-2.9779,-2.9779,-2.9779,-2.9779,-2.9779,-2.9779,-3.3124,-3.3124,-3.3124,-3.3124,-3.3124,-3.3124,-3.3124,-3.3124,-3.3124,-3.3124,-3.3124,-3.3124,-3.3124,-3.3124,-3.3124,-3.3124,-3.3124,-3.3124,-3.3124,-3.3124,-3.3124,-3.3124,-3.3124,-3.3124,-3.3124,-3.3124,-3.3124,-3.3124,-3.3124,-3.3124,-3.3124,-3.3124,-3.3124,-3.3124,-3.3124,-3.3124,-3.3124,-3.3124,-3.3124,-3.3124,-3.3124,-3.3124,-3.3124,-3.3124,-3.3124,-3.3124,-3.3124,-3.3124,-3.3124,-3.3124,-3.3124,-3.3124,-3.3124,-3.3124,-3.3124,-3.3124,-3.3124,-3.3124,-3.3124,-3.3036,-3.2629,-3.1989,-3.1537,-3.0947,-3.0306,-2.9905,-2.9792,-2.9779,-2.9818,-2.9779,-2.9779,-2.9895,-2.9921,-2.9856,-2.9856,-3.0024,-3.0037,-3.0062,-2.9998,-3.0139,-3.0406,-3.072,-3.1044,-3.1476,-3.2393,-3.3066,-3.2925,-3.2784,-3.2177,-3.1217,-3.0495,-3.0037,-2.9818,-2.9779,-2.9779,-2.9779,-2.9779,-2.9779,-2.9779,-2.9779,-2.9779,-2.9779,-2.9779,-2.9779,-2.9779,-2.9779,-2.9779,-2.9779,-2.9779,-2.9779,-2.9779,-2.9779,-2.9779,-2.9779,-2.9779,-3.3124,-3.3124,-3.3124,-3.3124,-3.3124,-3.3124,-3.3124,-3.3124,-3.3124,-3.3124,-3.3124,-3.3124,-3.3124,-3.3124,-3.3124,-3.3124,-3.3124,-3.3124,-3.3124,-3.3124,-3.3124,-3.3124,-3.3124,-3.3124,-3.3124,-3.3124,-3.3124,-3.3124,-3.3124,-3.3124,-3.3124,-3.3124,-3.3124,-3.3124,-3.3124,-3.3124,-3.3124,-3.3124,-3.3124,-3.3124,-3.3124,-3.3124,-3.3124,-3.3124,-3.3124,-3.3124,-3.3124,-3.3124,-3.3124,-3.3124,-3.3124,-3.3124,-3.3124,-3.3124,-3.3124,-3.3124,-3.3124,-3.3124,-3.3124,-3.3124,-3.2717,-3.2139,-3.1662,-3.1085,-3.0583,-3.0143,-2.9779,-2.9779,-2.9779,-2.9779,-2.9779,-2.9779,-2.9779,-2.9779,-2.9779,-2.9779,-2.9779,-2.9779,-2.9779,-2.9779,-2.9779,-2.9882,-3.0216,-3.0633,-3.1513,-3.1865,-3.1573,-3.1402,-3.1278,-3.0796,-3.0139,-2.996,-2.9779,-2.9779,-2.9779,-2.9779,-2.9779,-2.9779,-2.9779,-2.9779,-2.9779,-2.9779,-2.9779,-2.9779,-2.9779,-2.9779,-2.9779,-2.9779,-2.9779,-2.9779,-2.9779,-2.9779,-2.9779,-2.9779,-2.9792,-3.3124,-3.3124,-3.3124,-3.3124,-3.3124,-3.3124,-3.3124,-3.3124,-3.3124,-3.3124,-3.3124,-3.3124,-3.3124,-3.3124,-3.3124,-3.3124,-3.3124,-3.3124,-3.3124,-3.3124,-3.3124,-3.3124,-3.3124,-3.3124,-3.3124,-3.3124,-3.3124,-3.3124,-3.3124,-3.3124,-3.3124,-3.3124,-3.3124,-3.3124,-3.3124,-3.3124,-3.3124,-3.3124,-3.3124,-3.3124,-3.3124,-3.3124,-3.3124,-3.3124,-3.3124,-3.3124,-3.3124,-3.3124,-3.3124,-3.3124,-3.3124,-3.3124,-3.3124,-3.3124,-3.3124,-3.3124,-3.3124,-3.3124,-3.3124,-3.3086,-3.2805,-3.229,-3.1763,-3.1223,-3.0658,-3.0118,-2.988,-2.9779,-2.9779,-2.9779,-2.9779,-2.9779,-2.9779,-2.9779,-2.9779,-2.9779,-2.9779,-2.9779,-2.9779,-2.9779,-2.9779,-2.9779,-2.996,-3.0113,-3.0771,-3.1095,-3.0908,-3.1082,-3.1068,-3.0482,-2.9895,-2.9856,-2.9779,-2.9779,-2.9779,-2.9779,-2.9779,-2.9779,-2.9779,-2.9779,-2.9779,-2.9779,-2.9779,-2.9779,-2.9779,-2.9779,-2.9765,-2.9739,-2.9792,-2.9779,-2.9578,-2.9578,-2.9619,-2.9699,-2.9792,-3.3124,-3.3124,-3.3124,-3.3124,-3.3124,-3.3124,-3.3124,-3.3124,-3.3124,-3.3124,-3.3124,-3.3124,-3.3124,-3.3124,-3.3124,-3.3124,-3.3124,-3.3124,-3.3124,-3.3124,-3.3124,-3.3124,-3.3124,-3.3124,-3.3124,-3.3124,-3.3124,-3.3124,-3.3124,-3.3124,-3.3124,-3.3124,-3.3124,-3.3124,-3.3124,-3.3124,-3.3124,-3.3124,-3.3124,-3.3124,-3.3124,-3.3124,-3.3124,-3.3124,-3.3124,-3.3124,-3.3124,-3.3124,-3.3124,-3.3124,-3.3124,-3.3124,-3.3124,-3.3124,-3.3124,-3.3124,-3.3124,-3.3124,-3.3124,-3.3124,-3.288,-3.2604,-3.1989,-3.1449,-3.0922,-3.0444,-3.0055,-2.988,-2.9804,-2.9779,-2.9779,-2.9779,-2.9779,-2.9779,-2.9779,-2.9779,-2.9779,-2.9779,-2.9779,-2.9779,-2.9779,-2.9779,-2.9779,-2.9818,-3.0062,-3.0216,-3.0317,-3.0595,-3.0796,-3.0279,-2.9779,-2.9779,-2.9779,-2.9779,-2.9779,-2.9779,-2.9779,-2.9779,-2.9779,-2.9779,-2.9779,-2.9779,-2.9779,-2.9779,-2.9779,-2.9753,-2.9725,-2.9711,-2.9522,-2.9245,-2.8982,-2.9113,-2.9398,-2.9571,-2.9702,-3.3124,-3.3124,-3.3124,-3.3124,-3.3124,-3.3124,-3.3124,-3.3124,-3.3124,-3.3124,-3.3124,-3.3124,-3.3124,-3.3124,-3.3124,-3.3124,-3.3124,-3.3124,-3.3124,-3.3124,-3.3124,-3.3124,-3.3124,-3.3124,-3.3124,-3.3124,-3.3124,-3.3124,-3.3124,-3.3124,-3.3124,-3.3124,-3.3124,-3.3124,-3.3124,-3.3124,-3.3124,-3.3124,-3.3124,-3.3124,-3.3124,-3.3124,-3.3124,-3.3124,-3.3124,-3.3124,-3.3124,-3.3124,-3.3124,-3.3124,-3.3124,-3.3124,-3.3124,-3.3124,-3.3124,-3.3124,-3.3124,-3.3124,-3.3124,-3.3124,-3.3111,-3.2867,-3.2528,-3.2001,-3.1373,-3.0758,-3.0281,-2.9942,-2.9779,-2.9779,-2.9779,-2.9779,-2.9779,-2.9779,-2.9779,-2.9779,-2.9779,-2.9779,-2.9779,-2.9779,-2.9779,-2.9779,-2.9779,-2.9779,-2.9779,-2.9856,-3.0037,-3.0037,-3.0203,-3.0165,-2.9779,-2.9779,-2.9779,-2.9779,-2.9779,-2.9779,-2.9779,-2.9779,-2.9779,-2.9779,-2.9779,-2.9779,-2.9779,-2.9779,-2.9779,-2.9765,-2.9752,-2.9426,-2.8994,-2.8751,-2.8567,-2.8482,-2.8692,-2.928,-2.9544,-3.3124,-3.3124,-3.3124,-3.3124,-3.3124,-3.3124,-3.3124,-3.3124,-3.3124,-3.3124,-3.3124,-3.3124,-3.3124,-3.3124,-3.3124,-3.3124,-3.3124,-3.3124,-3.3124,-3.3124,-3.3124,-3.3124,-3.3124,-3.3124,-3.3124,-3.3124,-3.3124,-3.3124,-3.3124,-3.3124,-3.3124,-3.3124,-3.3124,-3.3124,-3.3124,-3.3124,-3.3124,-3.3124,-3.3124,-3.3124,-3.3124,-3.3124,-3.3124,-3.3124,-3.3124,-3.3124,-3.3124,-3.3124,-3.3124,-3.3124,-3.3124,-3.3124,-3.3124,-3.3124,-3.3124,-3.3124,-3.3124,-3.3124,-3.3124,-3.3124,-3.3124,-3.3111,-3.2842,-3.2277,-3.1599,-3.0934,-3.0419,-3.003,-2.9804,-2.9779,-2.9779,-2.9779,-2.9779,-2.9779,-2.9779,-2.9779,-2.9779,-2.9779,-2.9779,-2.9779,-2.9779,-2.9779,-2.9779,-2.9779,-2.9779,-2.9779,-2.9779,-2.9779,-2.9779,-2.9779,-2.9779,-2.9779,-2.9779,-2.9779,-2.9779,-2.9779,-2.9779,-2.9779,-2.9779,-2.9779,-2.9779,-2.9779,-2.9779,-2.9702,-2.9611,-2.965,-2.9792,-2.922,-2.8275,-2.8428,-2.8311,-2.8077,-2.8062,-2.8673,-2.8974,-3.3124,-3.3124,-3.3124,-3.3124,-3.3124,-3.3124,-3.3124,-3.3124,-3.3124,-3.3124,-3.3124,-3.3124,-3.3124,-3.3124,-3.3124,-3.3124,-3.3124,-3.3124,-3.3124,-3.3124,-3.3124,-3.3124,-3.3124,-3.3124,-3.3124,-3.3124,-3.3124,-3.3124,-3.3124,-3.3124,-3.3124,-3.3124,-3.3124,-3.3124,-3.3124,-3.3124,-3.3124,-3.3124,-3.3124,-3.3124,-3.3124,-3.3124,-3.3124,-3.3124,-3.3124,-3.3124,-3.3124,-3.3124,-3.3124,-3.3124,-3.3124,-3.3124,-3.3124,-3.3124,-3.3124,-3.3124,-3.3124,-3.3124,-3.3124,-3.3124,-3.3124,-3.3061,-3.2855,-3.2227,-3.1712,-3.111,-3.0507,-3.0005,-2.988,-2.9779,-2.9779,-2.9779,-2.9779,-2.9779,-2.9779,-2.9779,-2.9779,-2.9779,-2.9779,-2.9779,-2.9779,-2.9779,-2.9779,-2.9779,-2.9779,-2.9779,-2.9779,-2.9779,-2.9779,-2.9779,-2.9779,-2.9779,-2.9779,-2.9779,-2.9779,-2.9779,-2.9779,-2.9779,-2.9779,-2.9779,-2.9779,-2.9779,-2.9779,-2.9573,-2.9314,-2.931,-2.9196,-2.8226,-2.7431,-2.7661,-2.7634,-2.7115,-2.7222,-2.8022,-2.8177,-3.296,-3.2948,-3.3036,-3.3048,-3.3124,-3.3124,-3.3124,-3.3124,-3.3124,-3.3124,-3.3124,-3.3124,-3.3124,-3.3124,-3.3124,-3.3124,-3.3124,-3.3124,-3.3124,-3.3124,-3.3124,-3.3124,-3.3124,-3.3124,-3.3124,-3.3124,-3.3124,-3.3124,-3.3124,-3.3124,-3.3124,-3.3124,-3.3124,-3.3124,-3.3124,-3.3124,-3.3124,-3.3124,-3.3124,-3.3124,-3.3124,-3.3124,-3.3124,-3.3124,-3.3124,-3.3124,-3.3124,-3.3124,-3.3124,-3.3124,-3.3124,-3.3124,-3.3124,-3.3124,-3.3124,-3.3124,-3.3124,-3.3124,-3.3124,-3.3124,-3.2993,-3.2817,-3.2516,-3.1938,-3.1436,-3.111,-3.0532,-3.0005,-2.9804,-2.9779,-2.9779,-2.9779,-2.9779,-2.9779,-2.9779,-2.9779,-2.9779,-2.9779,-2.9779,-2.9779,-2.9779,-2.9779,-2.9779,-2.9779,-2.9779,-2.9779,-2.9779,-2.9779,-2.9779,-2.9779,-2.9779,-2.9779,-2.9779,-2.9779,-2.9779,-2.9779,-2.9779,-2.9779,-2.9779,-2.9779,-2.9779,-2.9779,-2.9753,-2.9314,-2.8831,-2.8578,-2.8257,-2.7361,-2.6819,-2.6868,-2.6702,-2.6016,-2.6323,-2.7235,-2.7306,-3.18,-3.1838,-3.224,-3.2654,-3.3099,-3.3124,-3.3099,-3.3124,-3.3124,-3.3099,-3.3124,-3.3111,-3.3124,-3.3124,-3.3124,-3.3124,-3.3124,-3.3124,-3.3124,-3.3124,-3.3124,-3.3124,-3.3124,-3.3124,-3.3124,-3.3124,-3.3124,-3.3124,-3.3124,-3.3124,-3.3124,-3.3124,-3.3124,-3.3124,-3.3124,-3.3124,-3.3124,-3.3124,-3.3124,-3.3124,-3.3124,-3.3124,-3.3124,-3.3124,-3.3124,-3.3124,-3.3124,-3.3124,-3.3124,-3.3124,-3.3124,-3.3124,-3.3124,-3.3124,-3.3124,-3.3124,-3.3124,-3.3124,-3.3124,-3.3086,-3.2905,-3.2566,-3.2177,-3.1599,-3.1173,-3.0934,-3.057,-3.0055,-2.9779,-2.9779,-2.9779,-2.9779,-2.9779,-2.9779,-2.9779,-2.9779,-2.9779,-2.9779,-2.9779,-2.9779,-2.9779,-2.9779,-2.9779,-2.9779,-2.9779,-2.9779,-2.9779,-2.9779,-2.9779,-2.9779,-2.9779,-2.9779,-2.9779,-2.9779,-2.9779,-2.9779,-2.9779,-2.9779,-2.9779,-2.9779,-2.9779,-2.9534,-2.9314,-2.8727,-2.8247,-2.7813,-2.7324,-2.6813,-2.6399,-2.6367,-2.6236,-2.5809,-2.5684,-2.636,-2.6287,-3.1386,-3.1436,-3.1712,-3.2026,-3.229,-3.2328,-3.2328,-3.2365,-3.2579,-3.2692,-3.2754,-3.2986,-3.3124,-3.3124,-3.3124,-3.3124,-3.3124,-3.3124,-3.3124,-3.3124,-3.3124,-3.3124,-3.3124,-3.3124,-3.3124,-3.3124,-3.3124,-3.3124,-3.3124,-3.3124,-3.3124,-3.3124,-3.3124,-3.3124,-3.3124,-3.3124,-3.3124,-3.3124,-3.3124,-3.3124,-3.3124,-3.3124,-3.3124,-3.3124,-3.3124,-3.3124,-3.3124,-3.3124,-3.3124,-3.3124,-3.3124,-3.3124,-3.3124,-3.3124,-3.3124,-3.3124,-3.3124,-3.3124,-3.3124,-3.3023,-3.2767,-3.2365,-3.1876,-3.1336,-3.0821,-3.0557,-3.0244,-2.9804,-2.9792,-2.9779,-2.9779,-2.9779,-2.9779,-2.9779,-2.9779,-2.9779,-2.9779,-2.9779,-2.9779,-2.9779,-2.9779,-2.9779,-2.9779,-2.9779,-2.9779,-2.9779,-2.9779,-2.9779,-2.9779,-2.9779,-2.9779,-2.9779,-2.9779,-2.9779,-2.9779,-2.9779,-2.9779,-2.9779,-2.9779,-2.974,-2.9663,-2.9236,-2.8767,-2.8056,-2.7313,-2.6688,-2.6206,-2.5884,-2.5941,-2.5979,-2.5874,-2.5723,-2.5684,-2.5684,-2.5771,-3.1198,-3.1286,-3.1286,-3.1348,-3.1386,-3.1399,-3.1436,-3.1499,-3.1901,-3.2114,-3.219,-3.2692,-3.2998,-3.3111,-3.3124,-3.3124,-3.3124,-3.3124,-3.3124,-3.3124,-3.3124,-3.3124,-3.3124,-3.3124,-3.3124,-3.3124,-3.3124,-3.3124,-3.3124,-3.3124,-3.3124,-3.3124,-3.3124,-3.3124,-3.3124,-3.3124,-3.3124,-3.3124,-3.3124,-3.3124,-3.3124,-3.3124,-3.3124,-3.3124,-3.3124,-3.3124,-3.3124,-3.3124,-3.3124,-3.3124,-3.3124,-3.3124,-3.3124,-3.3124,-3.3124,-3.3124,-3.3124,-3.3124,-3.3099,-3.2918,-3.2566,-3.2127,-3.1599,-3.1072,-3.0545,-3.0193,-2.988,-2.9804,-2.9792,-2.9779,-2.9779,-2.9779,-2.9779,-2.9779,-2.9779,-2.9779,-2.9779,-2.9779,-2.9779,-2.9779,-2.9779,-2.9779,-2.9779,-2.9779,-2.9779,-2.9779,-2.9779,-2.9779,-2.9779,-2.9779,-2.9779,-2.9779,-2.9779,-2.9779,-2.9779,-2.9779,-2.9779,-2.9779,-2.9779,-2.9702,-2.9495,-2.8897,-2.8136,-2.7186,-2.6493,-2.5808,-2.5438,-2.5174,-2.5298,-2.5604,-2.5693,-2.5684,-2.5684,-2.5684,-2.5684,-3.0369,-3.0771,-3.0758,-3.0997,-3.1323,-3.1361,-3.1386,-3.1439,-3.1474,-3.1549,-3.17,-3.2127,-3.2591,-3.3111,-3.3124,-3.3124,-3.3124,-3.3124,-3.3124,-3.3124,-3.3124,-3.3124,-3.3124,-3.3124,-3.3124,-3.3124,-3.3124,-3.3124,-3.3124,-3.3124,-3.3124,-3.3124,-3.3124,-3.3124,-3.3124,-3.3124,-3.3124,-3.3124,-3.3124,-3.3124,-3.3124,-3.3124,-3.3124,-3.3124,-3.3124,-3.3124,-3.3124,-3.3124,-3.3124,-3.3124,-3.3124,-3.3124,-3.3124,-3.3124,-3.3124,-3.3124,-3.3124,-3.3048,-3.2973,-3.2667,-3.2265,-3.1612,-3.1085,-3.0633,-3.0231,-2.998,-2.9792,-2.9792,-2.9779,-2.9779,-2.9779,-2.9779,-2.9779,-2.9779,-2.9779,-2.9779,-2.9779,-2.9779,-2.9779,-2.9779,-2.9779,-2.9779,-2.9779,-2.9779,-2.9779,-2.9779,-2.9779,-2.9779,-2.9779,-2.9779,-2.9779,-2.9779,-2.9779,-2.9779,-2.9779,-2.9779,-2.9779,-2.9779,-2.9702,-2.9443,-2.9067,-2.8466,-2.7631,-2.6438,-2.5623,-2.4949,-2.464,-2.469,-2.512,-2.5439,-2.5625,-2.5684,-2.5684,-2.5684,-2.5684]}]]